ISO8601,Initialization_Date,Location,Lat_[degN],Lon_[degE],SurfacePressure_[hPa],Temperature_[K],Precipitation_[mm],Eastward_wind_[ms-1],Northward_wind_[ms-1],o3_orig_[ugm-3],o3_ML_[ugm-3],no2_orig_[ugm-3],no2_ML_[ugm-3],pm25_gcc_orig_[ugm-3],pm25_gcc_ML_[ugm-3],pm25_gocart_orig_[ugm-3],pm25_gocart_ML_[ugm-3]
2021-05-12T12:00:00Z,2021-05-12T12:00:00Z,Quito_Belisario,-0.1800,-78.4900,708.9741,283.8204,0.1201,-2.3590,0.9805,31.5617,10.7230,11.4028,29.8099,13.9841,15.3194,3.1018,
2021-05-12T13:00:00Z,2021-05-12T12:00:00Z,Quito_Belisario,-0.1800,-78.4900,709.0759,285.7407,0.4964,-3.0445,1.1364,37.3580,12.8806,3.8359,32.5297,4.8299,22.1324,1.5338,
2021-05-12T14:00:00Z,2021-05-12T12:00:00Z,Quito_Belisario,-0.1800,-78.4900,709.1236,287.4953,1.1679,-3.2324,1.0115,38.9146,19.2818,2.1422,26.6521,2.8794,24.6340,1.0499,
2021-05-12T15:00:00Z,2021-05-12T12:00:00Z,Quito_Belisario,-0.1800,-78.4900,709.0923,288.9521,1.6857,-3.1327,0.7342,40.0361,30.6838,1.4867,25.5750,2.3968,17.0769,0.9348,
2021-05-12T16:00:00Z,2021-05-12T12:00:00Z,Quito_Belisario,-0.1800,-78.4900,708.9109,289.9386,3.2224,-2.6245,0.1960,40.5469,29.9510,1.2475,20.2270,2.3769,17.1930,1.0077,
2021-05-12T17:00:00Z,2021-05-12T12:00:00Z,Quito_Belisario,-0.1800,-78.4900,708.6160,290.5020,11.9507,-1.8387,-0.3711,40.9433,30.3723,1.2114,18.7550,2.6261,17.4900,1.1964,
2021-05-12T18:00:00Z,2021-05-12T12:00:00Z,Quito_Belisario,-0.1800,-78.4900,708.2672,290.6724,38.9814,-1.2370,-0.6783,41.3495,31.1788,1.2825,18.8071,3.0182,17.3870,1.8341,
2021-05-12T19:00:00Z,2021-05-12T12:00:00Z,Quito_Belisario,-0.1800,-78.4900,708.0283,290.4139,78.5589,-0.9206,-1.0859,40.8808,31.1848,1.5408,19.0989,3.4238,13.0910,2.6790,
2021-05-12T20:00:00Z,2021-05-12T12:00:00Z,Quito_Belisario,-0.1800,-78.4900,708.0339,289.6020,120.4014,-0.7139,-1.5096,39.0240,23.8538,2.1627,19.4273,3.8487,13.5160,2.7469,
2021-05-12T21:00:00Z,2021-05-12T12:00:00Z,Quito_Belisario,-0.1800,-78.4900,708.2961,288.5097,169.2772,-0.5667,-1.6800,35.9276,26.2863,3.1328,21.4369,4.1432,13.8830,3.0427,
2021-05-12T22:00:00Z,2021-05-12T12:00:00Z,Quito_Belisario,-0.1800,-78.4900,708.6986,287.3608,207.4242,-0.6004,-1.5196,31.4093,20.9395,5.2219,26.1189,4.8071,14.5469,2.7911,
2021-05-12T23:00:00Z,2021-05-12T12:00:00Z,Quito_Belisario,-0.1800,-78.4900,709.0613,286.2717,208.1394,-0.7906,-1.0919,25.5522,8.9999,8.9834,29.6371,6.0606,14.1396,3.0034,
2021-05-13T00:00:00Z,2021-05-12T12:00:00Z,Quito_Belisario,-0.1800,-78.4900,709.3633,285.5704,208.8547,-0.9561,-0.8511,18.5099,8.7556,14.4589,31.9051,8.4993,13.5693,3.5380,
2021-05-13T01:00:00Z,2021-05-12T12:00:00Z,Quito_Belisario,-0.1800,-78.4900,709.7592,285.0736,197.8874,-0.8853,-0.6672,14.8713,3.3032,17.1381,28.2171,10.2678,15.3378,3.8361,
2021-05-13T02:00:00Z,2021-05-12T12:00:00Z,Quito_Belisario,-0.1800,-78.4900,710.0110,284.6367,161.4094,-0.8039,-0.4554,9.7339,3.9701,21.5284,33.2020,13.5974,13.3321,4.3630,
2021-05-13T03:00:00Z,2021-05-12T12:00:00Z,Quito_Belisario,-0.1800,-78.4900,709.9680,284.1889,76.6516,-0.7111,-0.2008,3.7830,7.3695,27.5546,26.9824,19.2376,13.5758,6.0456,
2021-05-13T04:00:00Z,2021-05-12T12:00:00Z,Quito_Belisario,-0.1800,-78.4900,709.7526,283.6485,31.4116,-0.7169,0.0637,2.5094,7.9906,30.9831,25.6428,26.7054,13.0659,6.8288,
2021-05-13T05:00:00Z,2021-05-12T12:00:00Z,Quito_Belisario,-0.1800,-78.4900,709.3171,283.1770,6.8396,-0.8553,0.2391,2.6357,6.8802,32.9113,22.7529,32.8296,13.8193,7.1621,
2021-05-13T06:00:00Z,2021-05-12T12:00:00Z,Quito_Belisario,-0.1800,-78.4900,708.8280,282.6402,2.2352,-1.0252,0.4300,3.1710,8.3224,33.9202,23.7108,37.4544,13.3019,7.8309,
2021-05-13T07:00:00Z,2021-05-12T12:00:00Z,Quito_Belisario,-0.1800,-78.4900,708.5321,282.1898,1.0300,-1.2083,0.6572,4.2561,5.1381,33.2728,23.2982,40.5784,10.7970,8.1361,
2021-05-13T08:00:00Z,2021-05-12T12:00:00Z,Quito_Belisario,-0.1800,-78.4900,708.3459,281.7654,0.3506,-1.3377,0.8289,5.7235,6.6915,31.4522,19.9387,41.0765,11.2951,7.8457,
2021-05-13T09:00:00Z,2021-05-12T12:00:00Z,Quito_Belisario,-0.1800,-78.4900,708.2977,281.4741,0.1700,-1.4780,0.8701,7.2088,5.3669,29.3351,20.3800,39.9525,11.0793,7.5990,
2021-05-13T10:00:00Z,2021-05-12T12:00:00Z,Quito_Belisario,-0.1800,-78.4900,708.3494,281.1875,0.1276,-1.5761,0.9124,8.4017,4.8674,27.7447,18.5864,38.3259,13.4669,7.2859,
2021-05-13T11:00:00Z,2021-05-12T12:00:00Z,Quito_Belisario,-0.1800,-78.4900,708.4624,281.3209,0.0912,-1.5055,0.9959,12.4611,6.0860,23.8837,22.2443,36.3224,13.4625,6.7757,
2021-05-13T12:00:00Z,2021-05-12T12:00:00Z,Quito_Belisario,-0.1800,-78.4900,708.7473,283.4063,0.0476,-1.8371,1.1079,22.6478,7.9137,12.7648,29.0973,25.2254,21.0855,4.8689,
2021-05-13T13:00:00Z,2021-05-12T12:00:00Z,Quito_Belisario,-0.1800,-78.4900,709.0882,285.9896,0.0329,-2.2875,0.8186,31.8272,12.5237,4.6111,31.8792,7.8778,28.7370,2.1369,
2021-05-13T14:00:00Z,2021-05-12T12:00:00Z,Quito_Belisario,-0.1800,-78.4900,709.2321,288.1973,0.5523,-2.5143,0.3055,35.9727,18.0817,2.4790,28.5062,3.8174,20.0866,1.2695,
2021-05-13T15:00:00Z,2021-05-12T12:00:00Z,Quito_Belisario,-0.1800,-78.4900,709.1912,289.7911,1.6429,-2.3801,-0.0969,39.0211,28.8471,1.6402,24.7747,2.7716,12.1390,1.0001,
2021-05-13T16:00:00Z,2021-05-12T12:00:00Z,Quito_Belisario,-0.1800,-78.4900,708.8593,290.7862,7.6443,-2.1738,-0.2574,40.6716,30.0250,1.3125,20.6640,2.5865,11.8008,0.9707,
2021-05-13T17:00:00Z,2021-05-12T12:00:00Z,Quito_Belisario,-0.1800,-78.4900,708.4691,291.4583,16.4509,-1.7173,-0.5779,41.2906,32.4647,1.2072,17.6287,2.6235,11.3831,1.0518,
2021-05-13T18:00:00Z,2021-05-12T12:00:00Z,Quito_Belisario,-0.1800,-78.4900,708.2607,291.5031,32.7229,-1.0036,-0.9982,42.3743,33.5524,1.2372,17.1050,2.9505,11.5104,1.5705,
2021-05-13T19:00:00Z,2021-05-12T12:00:00Z,Quito_Belisario,-0.1800,-78.4900,707.8076,291.0751,51.1408,-0.6858,-1.1945,43.0632,37.5403,1.4658,17.6179,3.4007,13.0680,2.2177,
2021-05-13T20:00:00Z,2021-05-12T12:00:00Z,Quito_Belisario,-0.1800,-78.4900,707.6130,289.8763,97.7516,-0.4545,-1.6028,41.8759,32.9386,1.9211,18.0580,3.7169,13.3842,2.2928,
2021-05-13T21:00:00Z,2021-05-12T12:00:00Z,Quito_Belisario,-0.1800,-78.4900,707.7733,288.4843,130.8918,-0.3263,-1.8045,38.7073,29.0603,3.0221,21.3144,4.1408,13.8805,2.1884,
2021-05-13T22:00:00Z,2021-05-12T12:00:00Z,Quito_Belisario,-0.1800,-78.4900,708.0712,287.2856,114.2025,-0.3483,-1.5696,34.2057,23.6240,4.9062,24.1176,4.6896,14.4293,2.4706,
2021-05-13T23:00:00Z,2021-05-12T12:00:00Z,Quito_Belisario,-0.1800,-78.4900,708.3517,286.3715,91.5527,-0.4472,-1.0577,29.2582,10.6116,7.7466,29.2793,5.6311,14.1787,2.8817,
2021-05-14T00:00:00Z,2021-05-12T12:00:00Z,Quito_Belisario,-0.1800,-78.4900,708.8313,285.7001,90.4799,-0.6816,-0.7042,22.5937,5.3362,12.7037,31.7556,7.9344,13.5199,3.5590,
2021-05-14T01:00:00Z,2021-05-12T12:00:00Z,Quito_Belisario,-0.1800,-78.4900,709.3022,285.0193,69.6182,-0.9174,-0.1371,15.3036,2.4245,19.3943,31.9735,11.9378,15.4573,4.3972,
2021-05-14T02:00:00Z,2021-05-12T12:00:00Z,Quito_Belisario,-0.1800,-78.4900,709.5815,284.5865,37.6105,-1.0316,0.2113,14.9978,2.0939,18.9296,30.6223,11.9077,13.3050,5.2414,
2021-05-14T03:00:00Z,2021-05-12T12:00:00Z,Quito_Belisario,-0.1800,-78.4900,709.8614,284.1620,22.9776,-0.9993,0.3192,9.0870,5.9016,24.8179,27.2456,16.9082,13.2980,6.1679,
2021-05-14T04:00:00Z,2021-05-12T12:00:00Z,Quito_Belisario,-0.1800,-78.4900,709.9086,283.6679,15.3482,-0.9580,0.4339,6.8644,6.2835,28.4088,22.7729,22.7835,10.6572,6.9173,
2021-05-14T05:00:00Z,2021-05-12T12:00:00Z,Quito_Belisario,-0.1800,-78.4900,709.5918,283.1707,10.2073,-0.9660,0.5450,5.9576,7.4794,30.5038,23.0159,27.9722,13.3526,7.4418,
2021-05-14T06:00:00Z,2021-05-12T12:00:00Z,Quito_Belisario,-0.1800,-78.4900,709.3051,282.6354,6.8769,-1.0556,0.5611,5.7662,7.2903,31.3574,25.9192,32.5676,15.3972,7.9211,
2021-05-14T07:00:00Z,2021-05-12T12:00:00Z,Quito_Belisario,-0.1800,-78.4900,708.9920,282.1111,4.3958,-1.1643,0.7413,6.3234,7.8496,30.9972,24.9668,36.3175,17.5415,8.1246,
2021-05-14T08:00:00Z,2021-05-12T12:00:00Z,Quito_Belisario,-0.1800,-78.4900,708.6455,281.6045,2.6859,-1.2354,0.9516,7.5154,8.7265,29.6196,23.4636,38.3795,16.9390,7.9217,
2021-05-14T09:00:00Z,2021-05-12T12:00:00Z,Quito_Belisario,-0.1800,-78.4900,708.6313,281.2872,1.5460,-1.2575,0.9400,8.6773,9.0484,28.1515,22.3858,39.3167,17.8761,7.7315,
2021-05-14T10:00:00Z,2021-05-12T12:00:00Z,Quito_Belisario,-0.1800,-78.4900,708.7914,281.0602,0.8652,-1.3304,1.0283,9.4277,5.4606,27.0436,24.2745,39.1930,17.7525,7.3593,
2021-05-14T11:00:00Z,2021-05-12T12:00:00Z,Quito_Belisario,-0.1800,-78.4900,708.9189,281.1688,0.3693,-1.3672,1.0441,13.0901,4.6653,23.1813,24.1087,37.7586,17.4341,6.8436,
2021-05-14T12:00:00Z,2021-05-12T12:00:00Z,Quito_Belisario,-0.1800,-78.4900,709.1828,283.2705,0.0209,-1.6645,1.0824,21.7051,8.7039,13.2423,33.2139,29.1377,23.0748,5.2662,
2021-05-14T13:00:00Z,2021-05-12T12:00:00Z,Quito_Belisario,-0.1800,-78.4900,709.5305,286.2577,0.0204,-1.5979,0.4425,30.0265,6.1510,5.0187,33.4072,9.3279,28.5873,2.1480,
2021-05-14T14:00:00Z,2021-05-12T12:00:00Z,Quito_Belisario,-0.1800,-78.4900,709.6697,288.5871,1.0151,-1.0989,-0.1764,34.9547,18.0981,2.9747,33.3326,5.1949,24.7524,1.3664,
2021-05-14T15:00:00Z,2021-05-12T12:00:00Z,Quito_Belisario,-0.1800,-78.4900,709.5826,290.0437,13.1428,-0.4591,-0.7505,39.8719,33.6411,2.1740,28.3852,4.4510,20.1223,1.1690,
2021-05-14T16:00:00Z,2021-05-12T12:00:00Z,Quito_Belisario,-0.1800,-78.4900,709.2480,290.6081,39.4583,0.0457,-1.2641,44.6143,40.4598,1.7291,25.4427,4.6758,17.2235,1.2455,
2021-05-14T17:00:00Z,2021-05-12T12:00:00Z,Quito_Belisario,-0.1800,-78.4900,708.8018,290.2584,98.4669,0.5406,-1.6616,47.1018,42.3973,1.5236,19.0090,5.0413,16.8202,1.7885,
2021-05-14T18:00:00Z,2021-05-12T12:00:00Z,Quito_Belisario,-0.1800,-78.4900,708.3506,289.2679,242.9485,1.0757,-2.0170,47.8090,43.3632,1.6388,19.2972,5.4620,15.7553,3.5777,
2021-05-14T19:00:00Z,2021-05-12T12:00:00Z,Quito_Belisario,-0.1800,-78.4900,707.9113,288.0129,450.1343,1.3702,-2.0688,46.9138,46.3840,2.3103,22.5729,6.1802,16.5459,6.2512,
2021-05-14T20:00:00Z,2021-05-12T12:00:00Z,Quito_Belisario,-0.1800,-78.4900,707.5949,287.0102,607.4905,1.3982,-1.9715,44.5713,40.3876,3.6770,24.3923,7.2737,17.0134,9.2199,
2021-05-14T21:00:00Z,2021-05-12T12:00:00Z,Quito_Belisario,-0.1800,-78.4900,707.5807,286.4341,741.0049,1.1594,-1.8291,40.8000,27.5319,5.5985,31.4417,8.4460,18.1857,12.5094,
2021-05-14T22:00:00Z,2021-05-12T12:00:00Z,Quito_Belisario,-0.1800,-78.4900,707.8461,285.8739,796.3181,0.8541,-1.5517,35.4037,19.4161,9.2098,39.6663,10.1495,20.7031,23.1334,
2021-05-14T23:00:00Z,2021-05-12T12:00:00Z,Quito_Belisario,-0.1800,-78.4900,708.3464,285.4359,805.8548,0.6525,-1.1329,28.0613,7.4312,14.9445,42.9602,12.9435,19.6134,22.3771,
2021-05-15T00:00:00Z,2021-05-12T12:00:00Z,Quito_Belisario,-0.1800,-78.4900,709.0383,285.2107,695.2286,0.6680,-0.6893,23.4745,5.8092,18.4734,37.3003,15.6454,17.8498,14.8067,
2021-05-15T01:00:00Z,2021-05-12T12:00:00Z,Quito_Belisario,-0.1800,-78.4900,709.7299,285.0242,556.9458,0.6858,-0.2669,18.7432,5.3367,22.0920,39.2839,18.7872,19.8913,13.4645,
2021-05-15T02:00:00Z,2021-05-12T12:00:00Z,Quito_Belisario,-0.1800,-78.4900,710.2591,284.7849,415.3252,0.5989,0.0823,13.7235,3.7029,25.9421,34.9162,22.7233,15.5930,13.2762,
2021-05-15T03:00:00Z,2021-05-12T12:00:00Z,Quito_Belisario,-0.1800,-78.4900,710.4072,284.5151,227.2129,0.4868,0.0960,9.5966,3.9772,29.3492,33.4453,26.9708,14.5694,11.9549,
2021-05-15T04:00:00Z,2021-05-12T12:00:00Z,Quito_Belisario,-0.1800,-78.4900,710.2997,284.0812,141.3822,0.3318,-0.0105,5.2040,6.5566,33.6572,32.7706,33.3749,16.6457,10.9073,
2021-05-15T05:00:00Z,2021-05-12T12:00:00Z,Quito_Belisario,-0.1800,-78.4900,709.8745,283.7248,118.7325,0.2153,0.0399,3.6783,7.6025,36.5396,27.3337,40.3735,13.3448,10.0492,
2021-05-15T06:00:00Z,2021-05-12T12:00:00Z,Quito_Belisario,-0.1800,-78.4900,709.4198,283.4848,104.6658,0.0948,0.0812,3.3795,8.6992,38.4409,27.6629,48.9981,15.5561,9.9326,
2021-05-15T07:00:00Z,2021-05-12T12:00:00Z,Quito_Belisario,-0.1800,-78.4900,708.9844,283.2852,117.3019,0.0677,0.0361,3.2904,12.1601,39.6533,24.0964,57.7487,16.8466,9.5378,
2021-05-15T08:00:00Z,2021-05-12T12:00:00Z,Quito_Belisario,-0.1800,-78.4900,708.6070,283.0946,92.1488,-0.0275,-0.0175,3.5432,11.8576,39.3365,21.9970,64.4380,12.3034,9.1165,
2021-05-15T09:00:00Z,2021-05-12T12:00:00Z,Quito_Belisario,-0.1800,-78.4900,708.5079,282.8704,34.9283,-0.2322,-0.0246,7.5435,13.0270,33.3127,21.0436,61.8156,14.0824,7.5742,
2021-05-15T10:00:00Z,2021-05-12T12:00:00Z,Quito_Belisario,-0.1800,-78.4900,708.6931,282.6911,10.7437,-0.5554,0.1049,9.3930,6.5067,30.6783,19.7633,63.8803,13.1893,7.0148,
2021-05-15T11:00:00Z,2021-05-12T12:00:00Z,Quito_Belisario,-0.1800,-78.4900,708.9265,282.5748,1.5907,-0.9044,0.4325,12.7512,7.0815,26.4595,24.7871,66.5675,14.6849,7.2343,
2021-05-15T12:00:00Z,2021-05-12T12:00:00Z,Quito_Belisario,-0.1800,-78.4900,709.3895,284.1678,0.2421,-1.2523,0.3803,23.9917,8.1732,13.7068,25.4955,38.8799,21.0860,5.3646,
2021-05-15T13:00:00Z,2021-05-12T12:00:00Z,Quito_Belisario,-0.1800,-78.4900,709.9061,286.7531,1.4715,-0.6419,-0.4923,32.9854,17.5162,5.7701,34.0630,15.1923,24.0075,2.6614,
2021-05-15T14:00:00Z,2021-05-12T12:00:00Z,Quito_Belisario,-0.1800,-78.4900,710.1005,288.4382,11.9954,-0.0003,-1.1641,37.4350,18.9825,3.3199,27.1995,8.6773,24.5588,1.7832,
2021-05-15T15:00:00Z,2021-05-12T12:00:00Z,Quito_Belisario,-0.1800,-78.4900,709.9875,289.3230,28.0142,0.2681,-1.5568,42.3030,33.3947,2.2448,27.3561,7.1633,20.3708,1.5910,
2021-05-15T16:00:00Z,2021-05-12T12:00:00Z,Quito_Belisario,-0.1800,-78.4900,709.6032,289.8329,42.7961,0.5170,-1.9105,46.1547,41.8756,1.6360,21.1907,6.4215,17.6834,1.6243,
2021-05-15T17:00:00Z,2021-05-12T12:00:00Z,Quito_Belisario,-0.1800,-78.4900,709.0254,290.0118,72.4792,1.0296,-2.2673,47.9782,45.2164,1.3876,17.3351,6.2564,17.0637,1.9188,
2021-05-15T18:00:00Z,2021-05-12T12:00:00Z,Quito_Belisario,-0.1800,-78.4900,708.5497,289.2137,180.4829,1.6332,-2.5088,49.2309,45.8135,1.4546,17.4354,6.5616,17.1691,3.0619,
2021-05-15T19:00:00Z,2021-05-12T12:00:00Z,Quito_Belisario,-0.1800,-78.4900,708.1779,287.9275,368.5951,1.9734,-2.4590,49.3422,48.4019,2.3044,19.2226,7.6800,18.2874,5.3839,
2021-05-15T20:00:00Z,2021-05-12T12:00:00Z,Quito_Belisario,-0.1800,-78.4900,707.7852,287.1469,490.1886,1.8485,-2.2590,47.7924,45.2257,3.5075,22.2731,8.8354,19.2012,8.0450,
2021-05-15T21:00:00Z,2021-05-12T12:00:00Z,Quito_Belisario,-0.1800,-78.4900,707.6714,286.6114,537.8723,1.5214,-2.0016,44.5551,33.8321,5.1485,28.9248,9.5347,19.2744,13.0645,
2021-05-15T22:00:00Z,2021-05-12T12:00:00Z,Quito_Belisario,-0.1800,-78.4900,707.8766,286.0538,467.7773,1.1637,-1.6976,39.2082,23.9367,8.4274,39.1527,10.9149,20.6547,18.3322,
2021-05-15T23:00:00Z,2021-05-12T12:00:00Z,Quito_Belisario,-0.1800,-78.4900,708.3179,285.5353,368.1183,0.8586,-1.2790,30.5928,9.8199,15.1783,43.9484,15.5776,18.9837,12.7321,
2021-05-16T00:00:00Z,2021-05-12T12:00:00Z,Quito_Belisario,-0.1800,-78.4900,708.8895,285.3086,305.1758,0.6941,-1.0798,22.2091,8.4314,22.0838,46.7398,22.7333,20.0379,9.2137,
2021-05-16T01:00:00Z,2021-05-12T12:00:00Z,Quito_Belisario,-0.1800,-78.4900,709.4135,285.1108,237.7033,0.4815,-0.8961,14.4441,6.2991,28.6460,35.2050,30.2026,13.9870,7.2914,
2021-05-16T02:00:00Z,2021-05-12T12:00:00Z,Quito_Belisario,-0.1800,-78.4900,709.6862,284.9469,171.6614,0.1769,-0.6761,8.5262,6.3867,33.8467,33.5318,38.4516,14.2243,6.6373,
2021-05-16T03:00:00Z,2021-05-12T12:00:00Z,Quito_Belisario,-0.1800,-78.4900,709.7238,284.7298,111.8183,-0.0307,-0.3582,4.8895,8.5754,37.4063,34.1443,46.8880,12.4200,7.2438,
2021-05-16T04:00:00Z,2021-05-12T12:00:00Z,Quito_Belisario,-0.1800,-78.4900,709.6413,284.4654,73.7906,-0.0149,-0.2036,3.7200,10.0171,39.0032,32.6097,53.4506,16.6298,7.4208,
2021-05-16T05:00:00Z,2021-05-12T12:00:00Z,Quito_Belisario,-0.1800,-78.4900,709.3987,284.1437,52.0945,-0.1194,-0.1868,3.0517,10.9326,39.7978,26.9055,58.7641,13.5091,7.5127,
2021-05-16T06:00:00Z,2021-05-12T12:00:00Z,Quito_Belisario,-0.1800,-78.4900,709.1047,283.8668,36.9549,-0.3666,-0.1405,4.3020,10.7528,37.0448,24.6914,60.1405,15.5343,7.1826,
2021-05-16T07:00:00Z,2021-05-12T12:00:00Z,Quito_Belisario,-0.1800,-78.4900,708.8228,283.5775,21.8749,-0.5793,0.1795,5.2444,9.9096,35.2165,24.0387,63.7665,16.5147,7.2374,
2021-05-16T08:00:00Z,2021-05-12T12:00:00Z,Quito_Belisario,-0.1800,-78.4900,708.6044,283.2347,5.1558,-0.8100,0.4008,6.5260,9.3394,32.3075,23.2584,64.3278,15.5998,7.3798,
2021-05-16T09:00:00Z,2021-05-12T12:00:00Z,Quito_Belisario,-0.1800,-78.4900,708.6363,282.9331,1.5497,-0.9464,0.4875,6.4701,7.6099,28.8348,22.5360,57.3893,26.2972,7.3965,
2021-05-16T10:00:00Z,2021-05-12T12:00:00Z,Quito_Belisario,-0.1800,-78.4900,708.7947,282.5272,1.1642,-1.0618,0.6336,6.5658,10.5181,27.2669,20.4250,59.2644,19.2300,7.9502,
2021-05-16T11:00:00Z,2021-05-12T12:00:00Z,Quito_Belisario,-0.1800,-78.4900,709.1566,282.3732,1.9930,-1.1037,0.6710,9.0531,10.3550,23.6563,23.2577,60.9478,20.9759,8.3716,
2021-05-16T12:00:00Z,2021-05-12T12:00:00Z,Quito_Belisario,-0.1800,-78.4900,709.7371,283.8412,3.6918,-1.3466,0.4081,18.8030,8.9097,13.3066,31.4955,41.7591,19.7786,6.0952,
2021-05-16T13:00:00Z,2021-05-12T12:00:00Z,Quito_Belisario,-0.1800,-78.4900,710.1387,286.3401,1.7527,-0.9725,-0.6781,28.5854,17.2432,5.7104,32.5055,16.0256,27.1605,2.7363,
2021-05-16T14:00:00Z,2021-05-12T12:00:00Z,Quito_Belisario,-0.1800,-78.4900,710.0331,288.6235,2.1867,-0.3130,-1.3838,34.6788,23.9628,3.3967,27.4959,9.3212,24.1151,1.7172,
2021-05-16T15:00:00Z,2021-05-12T12:00:00Z,Quito_Belisario,-0.1800,-78.4900,709.6508,289.9626,11.6080,0.3335,-1.7248,40.9560,32.2583,2.3004,25.1894,7.1536,21.6842,1.3872,
2021-05-16T16:00:00Z,2021-05-12T12:00:00Z,Quito_Belisario,-0.1800,-78.4900,709.0316,290.2037,39.6967,0.8207,-1.8156,45.9765,41.7063,1.6965,20.3926,6.6077,17.8696,1.4675,
2021-05-16T17:00:00Z,2021-05-12T12:00:00Z,Quito_Belisario,-0.1800,-78.4900,708.3664,289.6395,128.7460,0.9430,-1.8005,47.8309,44.7425,1.4817,18.5813,6.4752,17.2824,1.9430,
2021-05-16T18:00:00Z,2021-05-12T12:00:00Z,Quito_Belisario,-0.1800,-78.4900,707.7930,288.8125,333.3092,0.9174,-1.7370,46.4467,42.5179,1.5735,18.4349,6.1436,16.4368,2.9076,
2021-05-16T19:00:00Z,2021-05-12T12:00:00Z,Quito_Belisario,-0.1800,-78.4900,707.3963,288.0708,567.4362,0.9216,-1.6576,44.0646,36.2388,2.0462,18.4791,6.1031,16.3964,4.5329,
2021-05-16T20:00:00Z,2021-05-12T12:00:00Z,Quito_Belisario,-0.1800,-78.4900,707.3002,287.3413,816.3452,0.9217,-1.5401,40.9032,29.5528,3.0271,19.4995,6.4334,15.7160,6.1573,
2021-05-16T21:00:00Z,2021-05-12T12:00:00Z,Quito_Belisario,-0.1800,-78.4900,707.5383,286.7192,1066.2079,0.6320,-1.3141,37.2327,18.1426,4.2963,21.4257,6.9274,16.2825,8.4314,
2021-05-16T22:00:00Z,2021-05-12T12:00:00Z,Quito_Belisario,-0.1800,-78.4900,708.0234,286.1804,1094.8181,0.3036,-0.9802,32.2571,11.7000,6.7821,29.7133,7.8938,17.2489,13.0746,
2021-05-16T23:00:00Z,2021-05-12T12:00:00Z,Quito_Belisario,-0.1800,-78.4900,708.6838,285.7026,852.5848,0.1399,-0.5554,24.9227,6.6579,12.2217,34.6733,10.4716,18.3869,10.7055,
2021-05-17T00:00:00Z,2021-05-12T12:00:00Z,Quito_Belisario,-0.1800,-78.4900,709.2241,285.4878,646.5912,0.0976,-0.3103,17.1760,7.9417,18.0803,33.5793,14.2694,17.1033,6.8205,
2021-05-17T01:00:00Z,2021-05-12T12:00:00Z,Quito_Belisario,-0.1800,-78.4900,709.6314,285.3285,611.3052,-0.0737,-0.3074,11.0736,4.2918,22.5860,33.5327,18.9104,17.1164,5.3593,
2021-05-17T02:00:00Z,2021-05-12T12:00:00Z,Quito_Belisario,-0.1800,-78.4900,709.8699,285.1263,582.6950,-0.1871,-0.2732,5.9295,4.1345,26.8589,29.8552,25.1928,14.6326,4.8789,
2021-05-17T03:00:00Z,2021-05-12T12:00:00Z,Quito_Belisario,-0.1800,-78.4900,709.8397,284.8499,531.1966,-0.2850,-0.2469,4.3440,4.8634,29.2111,27.1127,30.6933,13.8037,4.9428,
2021-05-17T04:00:00Z,2021-05-12T12:00:00Z,Quito_Belisario,-0.1800,-78.4900,709.6824,284.5411,410.0800,-0.4167,-0.2002,3.8033,6.8379,30.2001,26.9922,34.3182,15.1394,4.9728,
2021-05-17T05:00:00Z,2021-05-12T12:00:00Z,Quito_Belisario,-0.1800,-78.4900,709.2455,284.1749,221.4909,-0.5046,-0.0935,3.2605,7.5301,31.0242,23.6810,37.8179,13.9490,5.2101,
2021-05-17T06:00:00Z,2021-05-12T12:00:00Z,Quito_Belisario,-0.1800,-78.4900,708.7383,283.7834,85.7115,-0.5199,-0.0606,2.7642,11.1879,31.8088,23.6942,42.1933,11.3817,5.9177,
2021-05-17T07:00:00Z,2021-05-12T12:00:00Z,Quito_Belisario,-0.1800,-78.4900,708.3389,283.3459,26.0770,-0.6552,-0.0255,2.4887,13.1396,32.2827,21.9014,46.7559,11.9237,6.4610,
2021-05-17T08:00:00Z,2021-05-12T12:00:00Z,Quito_Belisario,-0.1800,-78.4900,708.1016,282.9414,5.7071,-0.8985,0.0968,2.4756,11.8969,32.2375,21.8448,49.4425,13.7994,6.9355,
2021-05-17T09:00:00Z,2021-05-12T12:00:00Z,Quito_Belisario,-0.1800,-78.4900,708.1669,282.6936,0.9798,-1.0952,0.2587,2.8095,9.6620,31.5830,21.1802,49.5064,13.8632,7.3914,
2021-05-17T10:00:00Z,2021-05-12T12:00:00Z,Quito_Belisario,-0.1800,-78.4900,708.4175,282.5602,0.4726,-1.2728,0.5273,3.5336,7.2746,30.3173,17.3715,47.1955,12.7021,7.3558,
2021-05-17T11:00:00Z,2021-05-12T12:00:00Z,Quito_Belisario,-0.1800,-78.4900,708.7512,282.6345,0.2733,-1.3333,0.6990,7.5210,10.1079,25.7205,24.1182,43.3850,12.2909,7.0056,
2021-05-12T12:00:00Z,2021-05-12T12:00:00Z,Quito_El_Camal,-0.2500,-78.5100,708.9741,283.8204,0.1201,-2.3590,0.9805,31.5617,7.9331,11.4028,37.3503,13.9841,25.6967,3.1018,
2021-05-12T13:00:00Z,2021-05-12T12:00:00Z,Quito_El_Camal,-0.2500,-78.5100,709.0759,285.7407,0.4964,-3.0445,1.1364,37.3580,15.8877,3.8359,29.7651,4.8299,20.5352,1.5338,
2021-05-12T14:00:00Z,2021-05-12T12:00:00Z,Quito_El_Camal,-0.2500,-78.5100,709.1236,287.4953,1.1679,-3.2324,1.0115,38.9146,27.4713,2.1422,21.3456,2.8794,20.0734,1.0499,
2021-05-12T15:00:00Z,2021-05-12T12:00:00Z,Quito_El_Camal,-0.2500,-78.5100,709.0923,288.9521,1.6857,-3.1327,0.7342,40.0361,33.6549,1.4867,15.0633,2.3968,19.0951,0.9348,
2021-05-12T16:00:00Z,2021-05-12T12:00:00Z,Quito_El_Camal,-0.2500,-78.5100,708.9109,289.9386,3.2224,-2.6245,0.1960,40.5469,36.5262,1.2475,15.7974,2.3769,18.8055,1.0077,
2021-05-12T17:00:00Z,2021-05-12T12:00:00Z,Quito_El_Camal,-0.2500,-78.5100,708.6160,290.5020,11.9507,-1.8387,-0.3711,40.9433,37.2995,1.2114,16.7694,2.6261,19.0547,1.1964,
2021-05-12T18:00:00Z,2021-05-12T12:00:00Z,Quito_El_Camal,-0.2500,-78.5100,708.2672,290.6724,38.9814,-1.2370,-0.6783,41.3495,39.7681,1.2825,17.6101,3.0182,17.2003,1.8341,
2021-05-12T19:00:00Z,2021-05-12T12:00:00Z,Quito_El_Camal,-0.2500,-78.5100,708.0283,290.4139,78.5589,-0.9206,-1.0859,40.8808,35.4412,1.5408,18.5639,3.4238,17.5341,2.6790,
2021-05-12T20:00:00Z,2021-05-12T12:00:00Z,Quito_El_Camal,-0.2500,-78.5100,708.0339,289.6020,120.4014,-0.7139,-1.5096,39.0240,33.1566,2.1627,21.5329,3.8487,16.6332,2.7469,
2021-05-12T21:00:00Z,2021-05-12T12:00:00Z,Quito_El_Camal,-0.2500,-78.5100,708.2961,288.5097,169.2772,-0.5667,-1.6800,35.9276,28.8430,3.1328,22.8815,4.1432,16.3030,3.0427,
2021-05-12T22:00:00Z,2021-05-12T12:00:00Z,Quito_El_Camal,-0.2500,-78.5100,708.6986,287.3608,207.4242,-0.6004,-1.5196,31.4093,14.3323,5.2219,27.3069,4.8071,16.8288,2.7911,
2021-05-12T23:00:00Z,2021-05-12T12:00:00Z,Quito_El_Camal,-0.2500,-78.5100,709.0613,286.2717,208.1394,-0.7906,-1.0919,25.5522,10.8893,8.9834,28.8950,6.0606,14.3394,3.0034,
2021-05-13T00:00:00Z,2021-05-12T12:00:00Z,Quito_El_Camal,-0.2500,-78.5100,709.3633,285.5704,208.8547,-0.9561,-0.8511,18.5099,3.8675,14.4589,33.8259,8.4993,13.7692,3.5380,
2021-05-13T01:00:00Z,2021-05-12T12:00:00Z,Quito_El_Camal,-0.2500,-78.5100,709.7592,285.0736,197.8874,-0.8853,-0.6672,14.8713,4.0357,17.1381,31.2969,10.2678,14.6579,3.8361,
2021-05-13T02:00:00Z,2021-05-12T12:00:00Z,Quito_El_Camal,-0.2500,-78.5100,710.0110,284.6367,161.4094,-0.8039,-0.4554,9.7339,4.2130,21.5284,34.8196,13.5974,14.6289,4.3630,
2021-05-13T03:00:00Z,2021-05-12T12:00:00Z,Quito_El_Camal,-0.2500,-78.5100,709.9680,284.1889,76.6516,-0.7111,-0.2008,3.7830,1.0929,27.5546,32.6704,19.2376,17.3966,6.0456,
2021-05-13T04:00:00Z,2021-05-12T12:00:00Z,Quito_El_Camal,-0.2500,-78.5100,709.7526,283.6485,31.4116,-0.7169,0.0637,2.5094,1.2232,30.9831,26.2281,26.7054,16.5936,6.8288,
2021-05-13T05:00:00Z,2021-05-12T12:00:00Z,Quito_El_Camal,-0.2500,-78.5100,709.3171,283.1770,6.8396,-0.8553,0.2391,2.6357,2.9839,32.9113,25.8607,32.8296,17.4049,7.1621,
2021-05-13T06:00:00Z,2021-05-12T12:00:00Z,Quito_El_Camal,-0.2500,-78.5100,708.8280,282.6402,2.2352,-1.0252,0.4300,3.1710,4.4936,33.9202,23.4305,37.4544,16.8952,7.8309,
2021-05-13T07:00:00Z,2021-05-12T12:00:00Z,Quito_El_Camal,-0.2500,-78.5100,708.5321,282.1898,1.0300,-1.2083,0.6572,4.2561,5.5696,33.2728,22.8925,40.5784,12.9429,8.1361,
2021-05-13T08:00:00Z,2021-05-12T12:00:00Z,Quito_El_Camal,-0.2500,-78.5100,708.3459,281.7654,0.3506,-1.3377,0.8289,5.7235,6.4981,31.4522,21.0589,41.0765,13.4410,7.8457,
2021-05-13T09:00:00Z,2021-05-12T12:00:00Z,Quito_El_Camal,-0.2500,-78.5100,708.2977,281.4741,0.1700,-1.4780,0.8701,7.2088,4.8127,29.3351,21.6559,39.9525,16.1444,7.5990,
2021-05-13T10:00:00Z,2021-05-12T12:00:00Z,Quito_El_Camal,-0.2500,-78.5100,708.3494,281.1875,0.1276,-1.5761,0.9124,8.4017,3.3564,27.7447,27.7203,38.3259,22.5449,7.2859,
2021-05-13T11:00:00Z,2021-05-12T12:00:00Z,Quito_El_Camal,-0.2500,-78.5100,708.4624,281.3209,0.0912,-1.5055,0.9959,12.4611,2.1967,23.8837,31.8515,36.3224,36.1809,6.7757,
2021-05-13T12:00:00Z,2021-05-12T12:00:00Z,Quito_El_Camal,-0.2500,-78.5100,708.7473,283.4063,0.0476,-1.8371,1.1079,22.6478,7.0557,12.7648,35.0761,25.2254,37.2777,4.8689,
2021-05-13T13:00:00Z,2021-05-12T12:00:00Z,Quito_El_Camal,-0.2500,-78.5100,709.0882,285.9896,0.0329,-2.2875,0.8186,31.8272,12.6731,4.6111,26.8113,7.8778,26.1339,2.1369,
2021-05-13T14:00:00Z,2021-05-12T12:00:00Z,Quito_El_Camal,-0.2500,-78.5100,709.2321,288.1973,0.5523,-2.5143,0.3055,35.9727,20.9071,2.4790,22.7796,3.8174,21.0114,1.2695,
2021-05-13T15:00:00Z,2021-05-12T12:00:00Z,Quito_El_Camal,-0.2500,-78.5100,709.1912,289.7911,1.6429,-2.3801,-0.0969,39.0211,27.7238,1.6402,16.0308,2.7716,19.9656,1.0001,
2021-05-13T16:00:00Z,2021-05-12T12:00:00Z,Quito_El_Camal,-0.2500,-78.5100,708.8593,290.7862,7.6443,-2.1738,-0.2574,40.6716,34.9745,1.3125,13.6234,2.5865,19.6399,0.9707,
2021-05-13T17:00:00Z,2021-05-12T12:00:00Z,Quito_El_Camal,-0.2500,-78.5100,708.4691,291.4583,16.4509,-1.7173,-0.5779,41.2906,34.8687,1.2072,16.0885,2.6235,19.6456,1.0518,
2021-05-13T18:00:00Z,2021-05-12T12:00:00Z,Quito_El_Camal,-0.2500,-78.5100,708.2607,291.5031,32.7229,-1.0036,-0.9982,42.3743,35.5037,1.2372,17.2941,2.9505,17.1327,1.5705,
2021-05-13T19:00:00Z,2021-05-12T12:00:00Z,Quito_El_Camal,-0.2500,-78.5100,707.8076,291.0751,51.1408,-0.6858,-1.1945,43.0632,31.8554,1.4658,16.5204,3.4007,17.5111,2.2177,
2021-05-13T20:00:00Z,2021-05-12T12:00:00Z,Quito_El_Camal,-0.2500,-78.5100,707.6130,289.8763,97.7516,-0.4545,-1.6028,41.8759,31.7259,1.9211,20.6381,3.7169,16.5014,2.2928,
2021-05-13T21:00:00Z,2021-05-12T12:00:00Z,Quito_El_Camal,-0.2500,-78.5100,707.7733,288.4843,130.8918,-0.3263,-1.8045,38.7073,22.6109,3.0221,22.1315,4.1408,16.3005,2.1884,
2021-05-13T22:00:00Z,2021-05-12T12:00:00Z,Quito_El_Camal,-0.2500,-78.5100,708.0712,287.2856,114.2025,-0.3483,-1.5696,34.2057,12.5653,4.9062,25.1771,4.6896,16.1497,2.4706,
2021-05-13T23:00:00Z,2021-05-12T12:00:00Z,Quito_El_Camal,-0.2500,-78.5100,708.3517,286.3715,91.5527,-0.4472,-1.0577,29.2582,7.2866,7.7466,26.9997,5.6311,14.8237,2.8817,
2021-05-14T00:00:00Z,2021-05-12T12:00:00Z,Quito_El_Camal,-0.2500,-78.5100,708.8313,285.7001,90.4799,-0.6816,-0.7042,22.5937,4.2928,12.7037,34.8184,7.9344,11.9632,3.5590,
2021-05-14T01:00:00Z,2021-05-12T12:00:00Z,Quito_El_Camal,-0.2500,-78.5100,709.3022,285.0193,69.6182,-0.9174,-0.1371,15.3036,3.8232,19.3943,36.0568,11.9378,14.1426,4.3972,
2021-05-14T02:00:00Z,2021-05-12T12:00:00Z,Quito_El_Camal,-0.2500,-78.5100,709.5815,284.5865,37.6105,-1.0316,0.2113,14.9978,3.4953,18.9296,36.3475,11.9077,13.6766,5.2414,
2021-05-14T03:00:00Z,2021-05-12T12:00:00Z,Quito_El_Camal,-0.2500,-78.5100,709.8614,284.1620,22.9776,-0.9993,0.3192,9.0870,3.9417,24.8179,30.7074,16.9082,14.6313,6.1679,
2021-05-14T04:00:00Z,2021-05-12T12:00:00Z,Quito_El_Camal,-0.2500,-78.5100,709.9086,283.6679,15.3482,-0.9580,0.4339,6.8644,3.4415,28.4088,26.4438,22.7835,16.0932,6.9173,
2021-05-14T05:00:00Z,2021-05-12T12:00:00Z,Quito_El_Camal,-0.2500,-78.5100,709.5918,283.1707,10.2073,-0.9660,0.5450,5.9576,4.6288,30.5038,24.6601,27.9722,17.1713,7.4418,
2021-05-14T06:00:00Z,2021-05-12T12:00:00Z,Quito_El_Camal,-0.2500,-78.5100,709.3051,282.6354,6.8769,-1.0556,0.5611,5.7662,7.6961,31.3574,23.1750,32.5676,19.7932,7.9211,
2021-05-14T07:00:00Z,2021-05-12T12:00:00Z,Quito_El_Camal,-0.2500,-78.5100,708.9920,282.1111,4.3958,-1.1643,0.7413,6.3234,8.7336,30.9972,22.8031,36.3175,15.6669,8.1246,
2021-05-14T08:00:00Z,2021-05-12T12:00:00Z,Quito_El_Camal,-0.2500,-78.5100,708.6455,281.6045,2.6859,-1.2354,0.9516,7.5154,11.5009,29.6196,23.2107,38.3795,17.3355,7.9217,
2021-05-14T09:00:00Z,2021-05-12T12:00:00Z,Quito_El_Camal,-0.2500,-78.5100,708.6313,281.2872,1.5460,-1.2575,0.9400,8.6773,12.6671,28.1515,21.7356,39.3167,19.2939,7.7315,
2021-05-14T10:00:00Z,2021-05-12T12:00:00Z,Quito_El_Camal,-0.2500,-78.5100,708.7914,281.0602,0.8652,-1.3304,1.0283,9.4277,9.6091,27.0436,26.5769,39.1930,20.5739,7.3593,
2021-05-14T11:00:00Z,2021-05-12T12:00:00Z,Quito_El_Camal,-0.2500,-78.5100,708.9189,281.1688,0.3693,-1.3672,1.0441,13.0901,1.8040,23.1813,32.9912,37.7586,40.2082,6.8436,
2021-05-14T12:00:00Z,2021-05-12T12:00:00Z,Quito_El_Camal,-0.2500,-78.5100,709.1828,283.2705,0.0209,-1.6645,1.0824,21.7051,5.2596,13.2423,37.5850,29.1377,38.4592,5.2662,
2021-05-14T13:00:00Z,2021-05-12T12:00:00Z,Quito_El_Camal,-0.2500,-78.5100,709.5305,286.2577,0.0204,-1.5979,0.4425,30.0265,9.8649,5.0187,31.8010,9.3279,28.7248,2.1480,
2021-05-14T14:00:00Z,2021-05-12T12:00:00Z,Quito_El_Camal,-0.2500,-78.5100,709.6697,288.5871,1.0151,-1.0989,-0.1764,34.9547,20.0623,2.9747,27.8806,5.1949,27.1287,1.3664,
2021-05-14T15:00:00Z,2021-05-12T12:00:00Z,Quito_El_Camal,-0.2500,-78.5100,709.5826,290.0437,13.1428,-0.4591,-0.7505,39.8719,29.1653,2.1740,25.6680,4.4510,24.2670,1.1690,
2021-05-14T16:00:00Z,2021-05-12T12:00:00Z,Quito_El_Camal,-0.2500,-78.5100,709.2480,290.6081,39.4583,0.0457,-1.2641,44.6143,36.1965,1.7291,22.1071,4.6758,23.9649,1.2455,
2021-05-14T17:00:00Z,2021-05-12T12:00:00Z,Quito_El_Camal,-0.2500,-78.5100,708.8018,290.2584,98.4669,0.5406,-1.6616,47.1018,41.0722,1.5236,20.1464,5.0413,24.3304,1.7885,
2021-05-14T18:00:00Z,2021-05-12T12:00:00Z,Quito_El_Camal,-0.2500,-78.5100,708.3506,289.2679,242.9485,1.0757,-2.0170,47.8090,39.2643,1.6388,21.2807,5.4620,23.4607,3.5777,
2021-05-14T19:00:00Z,2021-05-12T12:00:00Z,Quito_El_Camal,-0.2500,-78.5100,707.9113,288.0129,450.1343,1.3702,-2.0688,46.9138,38.2044,2.3103,22.8412,6.1802,20.2905,6.2512,
2021-05-14T20:00:00Z,2021-05-12T12:00:00Z,Quito_El_Camal,-0.2500,-78.5100,707.5949,287.0102,607.4905,1.3982,-1.9715,44.5713,34.7888,3.6770,23.7597,7.2737,18.5732,9.2199,
2021-05-14T21:00:00Z,2021-05-12T12:00:00Z,Quito_El_Camal,-0.2500,-78.5100,707.5807,286.4341,741.0049,1.1594,-1.8291,40.8000,25.9490,5.5985,27.0088,8.4460,15.7020,12.5094,
2021-05-14T22:00:00Z,2021-05-12T12:00:00Z,Quito_El_Camal,-0.2500,-78.5100,707.8461,285.8739,796.3181,0.8541,-1.5517,35.4037,18.4434,9.2098,31.4612,10.1495,12.6577,23.1334,
2021-05-14T23:00:00Z,2021-05-12T12:00:00Z,Quito_El_Camal,-0.2500,-78.5100,708.3464,285.4359,805.8548,0.6525,-1.1329,28.0613,16.3820,14.9445,37.2458,12.9435,15.6634,22.3771,
2021-05-15T00:00:00Z,2021-05-12T12:00:00Z,Quito_El_Camal,-0.2500,-78.5100,709.0383,285.2107,695.2286,0.6680,-0.6893,23.4745,10.1039,18.4734,43.4319,15.6454,21.6311,14.8067,
2021-05-15T01:00:00Z,2021-05-12T12:00:00Z,Quito_El_Camal,-0.2500,-78.5100,709.7299,285.0242,556.9458,0.6858,-0.2669,18.7432,6.9062,22.0920,42.7329,18.7872,21.6994,13.4645,
2021-05-15T02:00:00Z,2021-05-12T12:00:00Z,Quito_El_Camal,-0.2500,-78.5100,710.2591,284.7849,415.3252,0.5989,0.0823,13.7235,7.1699,25.9421,39.1578,22.7233,22.9536,13.2762,
2021-05-15T03:00:00Z,2021-05-12T12:00:00Z,Quito_El_Camal,-0.2500,-78.5100,710.4072,284.5151,227.2129,0.4868,0.0960,9.5966,6.3048,29.3492,33.6659,26.9708,21.0242,11.9549,
2021-05-15T04:00:00Z,2021-05-12T12:00:00Z,Quito_El_Camal,-0.2500,-78.5100,710.2997,284.0812,141.3822,0.3318,-0.0105,5.2040,9.9516,33.6572,32.3865,33.3749,24.2572,10.9073,
2021-05-15T05:00:00Z,2021-05-12T12:00:00Z,Quito_El_Camal,-0.2500,-78.5100,709.8745,283.7248,118.7325,0.2153,0.0399,3.6783,9.0009,36.5396,27.3670,40.3735,18.9309,10.0492,
2021-05-15T06:00:00Z,2021-05-12T12:00:00Z,Quito_El_Camal,-0.2500,-78.5100,709.4198,283.4848,104.6658,0.0948,0.0812,3.3795,8.7031,38.4409,30.5060,48.9981,21.1436,9.9326,
2021-05-15T07:00:00Z,2021-05-12T12:00:00Z,Quito_El_Camal,-0.2500,-78.5100,708.9844,283.2852,117.3019,0.0677,0.0361,3.2904,11.5131,39.6533,27.2927,57.7487,20.2613,9.5378,
2021-05-15T08:00:00Z,2021-05-12T12:00:00Z,Quito_El_Camal,-0.2500,-78.5100,708.6070,283.0946,92.1488,-0.0275,-0.0175,3.5432,8.0021,39.3365,26.9741,64.4380,17.4080,9.1165,
2021-05-15T09:00:00Z,2021-05-12T12:00:00Z,Quito_El_Camal,-0.2500,-78.5100,708.5079,282.8704,34.9283,-0.2322,-0.0246,7.5435,6.8147,33.3127,26.2048,61.8156,19.3202,7.5742,
2021-05-15T10:00:00Z,2021-05-12T12:00:00Z,Quito_El_Camal,-0.2500,-78.5100,708.6931,282.6911,10.7437,-0.5554,0.1049,9.3930,4.6931,30.6783,32.0251,63.8803,19.4870,7.0148,
2021-05-15T11:00:00Z,2021-05-12T12:00:00Z,Quito_El_Camal,-0.2500,-78.5100,708.9265,282.5748,1.5907,-0.9044,0.4325,12.7512,3.1144,26.4595,36.9155,66.5675,29.7002,7.2343,
2021-05-15T12:00:00Z,2021-05-12T12:00:00Z,Quito_El_Camal,-0.2500,-78.5100,709.3895,284.1678,0.2421,-1.2523,0.3803,23.9917,8.1121,13.7068,37.6348,38.8799,35.0553,5.3646,
2021-05-15T13:00:00Z,2021-05-12T12:00:00Z,Quito_El_Camal,-0.2500,-78.5100,709.9061,286.7531,1.4715,-0.6419,-0.4923,32.9854,16.3789,5.7701,30.5293,15.1923,31.2184,2.6614,
2021-05-15T14:00:00Z,2021-05-12T12:00:00Z,Quito_El_Camal,-0.2500,-78.5100,710.1005,288.4382,11.9954,-0.0003,-1.1641,37.4350,24.3699,3.3199,29.6468,8.6773,30.0287,1.7832,
2021-05-15T15:00:00Z,2021-05-12T12:00:00Z,Quito_El_Camal,-0.2500,-78.5100,709.9875,289.3230,28.0142,0.2681,-1.5568,42.3030,37.3920,2.2448,26.3314,7.1633,27.7463,1.5910,
2021-05-15T16:00:00Z,2021-05-12T12:00:00Z,Quito_El_Camal,-0.2500,-78.5100,709.6032,289.8329,42.7961,0.5170,-1.9105,46.1547,35.9364,1.6360,22.3974,6.4215,26.4800,1.6243,
2021-05-15T17:00:00Z,2021-05-12T12:00:00Z,Quito_El_Camal,-0.2500,-78.5100,709.0254,290.0118,72.4792,1.0296,-2.2673,47.9782,40.0385,1.3876,21.3766,6.2564,26.3149,1.9188,
2021-05-15T18:00:00Z,2021-05-12T12:00:00Z,Quito_El_Camal,-0.2500,-78.5100,708.5497,289.2137,180.4829,1.6332,-2.5088,49.2309,41.3899,1.4546,21.4853,6.5616,23.4196,3.0619,
2021-05-15T19:00:00Z,2021-05-12T12:00:00Z,Quito_El_Camal,-0.2500,-78.5100,708.1779,287.9275,368.5951,1.9734,-2.4590,49.3422,40.6270,2.3044,22.3121,7.6800,21.7903,5.3839,
2021-05-15T20:00:00Z,2021-05-12T12:00:00Z,Quito_El_Camal,-0.2500,-78.5100,707.7852,287.1469,490.1886,1.8485,-2.2590,47.7924,38.0119,3.5075,23.7263,8.8354,23.1187,8.0450,
2021-05-15T21:00:00Z,2021-05-12T12:00:00Z,Quito_El_Camal,-0.2500,-78.5100,707.6714,286.6114,537.8723,1.5214,-2.0016,44.5551,33.1114,5.1485,26.6816,9.5347,18.4091,13.0645,
2021-05-15T22:00:00Z,2021-05-12T12:00:00Z,Quito_El_Camal,-0.2500,-78.5100,707.8766,286.0538,467.7773,1.1637,-1.6976,39.2082,24.2201,8.4274,31.5715,10.9149,15.4028,18.3322,
2021-05-15T23:00:00Z,2021-05-12T12:00:00Z,Quito_El_Camal,-0.2500,-78.5100,708.3179,285.5353,368.1183,0.8586,-1.2790,30.5928,11.3381,15.1783,36.7442,15.5776,15.5348,12.7321,
2021-05-16T00:00:00Z,2021-05-12T12:00:00Z,Quito_El_Camal,-0.2500,-78.5100,708.8895,285.3086,305.1758,0.6941,-1.0798,22.2091,8.6672,22.0838,40.8556,22.7333,22.4073,9.2137,
2021-05-16T01:00:00Z,2021-05-12T12:00:00Z,Quito_El_Camal,-0.2500,-78.5100,709.4135,285.1108,237.7033,0.4815,-0.8961,14.4441,6.4553,28.6460,39.1979,30.2026,16.1876,7.2914,
2021-05-16T02:00:00Z,2021-05-12T12:00:00Z,Quito_El_Camal,-0.2500,-78.5100,709.6862,284.9469,171.6614,0.1769,-0.6761,8.5262,10.5317,33.8467,35.5046,38.4516,18.8069,6.6373,
2021-05-16T03:00:00Z,2021-05-12T12:00:00Z,Quito_El_Camal,-0.2500,-78.5100,709.7238,284.7298,111.8183,-0.0307,-0.3582,4.8895,13.6381,37.4063,34.5598,46.8880,20.9414,7.2438,
2021-05-16T04:00:00Z,2021-05-12T12:00:00Z,Quito_El_Camal,-0.2500,-78.5100,709.6413,284.4654,73.7906,-0.0149,-0.2036,3.7200,7.9670,39.0032,36.5303,53.4506,23.5599,7.4208,
2021-05-16T05:00:00Z,2021-05-12T12:00:00Z,Quito_El_Camal,-0.2500,-78.5100,709.3987,284.1437,52.0945,-0.1194,-0.1868,3.0517,11.7775,39.7978,36.5788,58.7641,23.2788,7.5127,
2021-05-16T06:00:00Z,2021-05-12T12:00:00Z,Quito_El_Camal,-0.2500,-78.5100,709.1047,283.8668,36.9549,-0.3666,-0.1405,4.3020,7.9029,37.0448,32.8407,60.1405,19.4361,7.1826,
2021-05-16T07:00:00Z,2021-05-12T12:00:00Z,Quito_El_Camal,-0.2500,-78.5100,708.8228,283.5775,21.8749,-0.5793,0.1795,5.2444,9.2809,35.2165,28.5713,63.7665,22.9649,7.2374,
2021-05-16T08:00:00Z,2021-05-12T12:00:00Z,Quito_El_Camal,-0.2500,-78.5100,708.6044,283.2347,5.1558,-0.8100,0.4008,6.5260,8.1575,32.3075,25.3008,64.3278,23.3371,7.3798,
2021-05-16T09:00:00Z,2021-05-12T12:00:00Z,Quito_El_Camal,-0.2500,-78.5100,708.6363,282.9331,1.5497,-0.9464,0.4875,6.4701,8.3667,28.8348,28.0045,57.3893,24.7154,7.3965,
2021-05-16T10:00:00Z,2021-05-12T12:00:00Z,Quito_El_Camal,-0.2500,-78.5100,708.7947,282.5272,1.1642,-1.0618,0.6336,6.5658,6.4008,27.2669,29.7293,59.2644,23.7673,7.9502,
2021-05-16T11:00:00Z,2021-05-12T12:00:00Z,Quito_El_Camal,-0.2500,-78.5100,709.1566,282.3732,1.9930,-1.1037,0.6710,9.0531,5.8053,23.6563,33.2459,60.9478,25.8803,8.3716,
2021-05-16T12:00:00Z,2021-05-12T12:00:00Z,Quito_El_Camal,-0.2500,-78.5100,709.7371,283.8412,3.6918,-1.3466,0.4081,18.8030,6.2426,13.3066,36.3308,41.7591,39.1775,6.0952,
2021-05-16T13:00:00Z,2021-05-12T12:00:00Z,Quito_El_Camal,-0.2500,-78.5100,710.1387,286.3401,1.7527,-0.9725,-0.6781,28.5854,14.9289,5.7104,34.8496,16.0256,32.8678,2.7363,
2021-05-16T14:00:00Z,2021-05-12T12:00:00Z,Quito_El_Camal,-0.2500,-78.5100,710.0331,288.6235,2.1867,-0.3130,-1.3838,34.6788,25.7336,3.3967,32.6881,9.3212,29.7271,1.7172,
2021-05-16T15:00:00Z,2021-05-12T12:00:00Z,Quito_El_Camal,-0.2500,-78.5100,709.6508,289.9626,11.6080,0.3335,-1.7248,40.9560,37.0287,2.3004,27.2703,7.1536,29.1212,1.3872,
2021-05-16T16:00:00Z,2021-05-12T12:00:00Z,Quito_El_Camal,-0.2500,-78.5100,709.0316,290.2037,39.6967,0.8207,-1.8156,45.9765,35.7974,1.6965,22.2002,6.6077,26.6662,1.4675,
2021-05-16T17:00:00Z,2021-05-12T12:00:00Z,Quito_El_Camal,-0.2500,-78.5100,708.3664,289.6395,128.7460,0.9430,-1.8005,47.8309,40.8456,1.4817,22.0060,6.4752,26.5336,1.9430,
2021-05-16T18:00:00Z,2021-05-12T12:00:00Z,Quito_El_Camal,-0.2500,-78.5100,707.7930,288.8125,333.3092,0.9174,-1.7370,46.4467,39.5845,1.5735,21.3955,6.1436,20.3664,2.9076,
2021-05-16T19:00:00Z,2021-05-12T12:00:00Z,Quito_El_Camal,-0.2500,-78.5100,707.3963,288.0708,567.4362,0.9216,-1.6576,44.0646,33.4655,2.0462,22.3702,6.1031,20.2134,4.5329,
2021-05-16T20:00:00Z,2021-05-12T12:00:00Z,Quito_El_Camal,-0.2500,-78.5100,707.3002,287.3413,816.3452,0.9217,-1.5401,40.9032,31.6068,3.0271,24.2168,6.4334,18.5931,6.1573,
2021-05-16T21:00:00Z,2021-05-12T12:00:00Z,Quito_El_Camal,-0.2500,-78.5100,707.5383,286.7192,1066.2079,0.6320,-1.3141,37.2327,23.5556,4.2963,25.7071,6.9274,18.7487,8.4314,
2021-05-16T22:00:00Z,2021-05-12T12:00:00Z,Quito_El_Camal,-0.2500,-78.5100,708.0234,286.1804,1094.8181,0.3036,-0.9802,32.2571,14.2476,6.7821,28.9342,7.8938,11.7371,13.0746,
2021-05-16T23:00:00Z,2021-05-12T12:00:00Z,Quito_El_Camal,-0.2500,-78.5100,708.6838,285.7026,852.5848,0.1399,-0.5554,24.9227,11.0776,12.2217,34.8432,10.4716,14.2469,10.7055,
2021-05-17T00:00:00Z,2021-05-12T12:00:00Z,Quito_El_Camal,-0.2500,-78.5100,709.2241,285.4878,646.5912,0.0976,-0.3103,17.1760,4.8159,18.0803,40.7580,14.2694,17.3540,6.8205,
2021-05-17T01:00:00Z,2021-05-12T12:00:00Z,Quito_El_Camal,-0.2500,-78.5100,709.6314,285.3285,611.3052,-0.0737,-0.3074,11.0736,6.0209,22.5860,38.2325,18.9104,18.5541,5.3593,
2021-05-17T02:00:00Z,2021-05-12T12:00:00Z,Quito_El_Camal,-0.2500,-78.5100,709.8699,285.1263,582.6950,-0.1871,-0.2732,5.9295,6.1737,26.8589,35.4292,25.1928,16.6791,4.8789,
2021-05-17T03:00:00Z,2021-05-12T12:00:00Z,Quito_El_Camal,-0.2500,-78.5100,709.8397,284.8499,531.1966,-0.2850,-0.2469,4.3440,5.5213,29.2111,33.0477,30.6933,19.6736,4.9428,
2021-05-17T04:00:00Z,2021-05-12T12:00:00Z,Quito_El_Camal,-0.2500,-78.5100,709.6824,284.5411,410.0800,-0.4167,-0.2002,3.8033,4.9919,30.2001,31.4870,34.3182,18.0345,4.9728,
2021-05-17T05:00:00Z,2021-05-12T12:00:00Z,Quito_El_Camal,-0.2500,-78.5100,709.2455,284.1749,221.4909,-0.5046,-0.0935,3.2605,7.6557,31.0242,28.1439,37.8179,18.4706,5.2101,
2021-05-17T06:00:00Z,2021-05-12T12:00:00Z,Quito_El_Camal,-0.2500,-78.5100,708.7383,283.7834,85.7115,-0.5199,-0.0606,2.7642,6.1599,31.8088,24.5247,42.1933,19.5806,5.9177,
2021-05-17T07:00:00Z,2021-05-12T12:00:00Z,Quito_El_Camal,-0.2500,-78.5100,708.3389,283.3459,26.0770,-0.6552,-0.0255,2.4887,5.8876,32.2827,24.9915,46.7559,27.3437,6.4610,
2021-05-17T08:00:00Z,2021-05-12T12:00:00Z,Quito_El_Camal,-0.2500,-78.5100,708.1016,282.9414,5.7071,-0.8985,0.0968,2.4756,5.8783,32.2375,26.0946,49.4425,25.3349,6.9355,
2021-05-17T09:00:00Z,2021-05-12T12:00:00Z,Quito_El_Camal,-0.2500,-78.5100,708.1669,282.6936,0.9798,-1.0952,0.2587,2.8095,6.2154,31.5830,26.9713,49.5064,25.3988,7.3914,
2021-05-17T10:00:00Z,2021-05-12T12:00:00Z,Quito_El_Camal,-0.2500,-78.5100,708.4175,282.5602,0.4726,-1.2728,0.5273,3.5336,3.9774,30.3173,29.7956,47.1955,29.1647,7.3558,
2021-05-17T11:00:00Z,2021-05-12T12:00:00Z,Quito_El_Camal,-0.2500,-78.5100,708.7512,282.6345,0.2733,-1.3333,0.6990,7.5210,3.3590,25.7205,31.9521,43.3850,39.3543,7.0056,
2021-05-12T12:00:00Z,2021-05-12T12:00:00Z,Quito_Carapungo,-0.0983,-78.4472,743.5540,286.5079,0.0187,-1.7204,0.2378,33.1830,7.2471,11.9095,29.6381,14.4684,35.1754,3.8367,
2021-05-12T13:00:00Z,2021-05-12T12:00:00Z,Quito_Carapungo,-0.0983,-78.4472,743.6359,288.6782,0.1767,-2.0621,0.1325,40.7278,10.1901,3.8886,19.4831,5.2362,18.0685,1.9121,
2021-05-12T14:00:00Z,2021-05-12T12:00:00Z,Quito_Carapungo,-0.0983,-78.4472,743.5236,290.7453,0.4377,-2.0605,-0.0197,43.1821,24.4087,2.0177,15.3959,3.0669,16.2169,1.2355,
2021-05-12T15:00:00Z,2021-05-12T12:00:00Z,Quito_Carapungo,-0.0983,-78.4472,743.3673,292.4208,0.5160,-1.8905,-0.3517,43.9934,33.4765,1.2804,12.3324,2.4124,17.5724,1.0394,
2021-05-12T16:00:00Z,2021-05-12T12:00:00Z,Quito_Carapungo,-0.0983,-78.4472,743.1159,293.4386,0.9118,-1.3960,-0.9251,43.6558,36.1574,0.9952,10.1648,2.2988,18.1612,1.1077,
2021-05-12T17:00:00Z,2021-05-12T12:00:00Z,Quito_Carapungo,-0.0983,-78.4472,742.7835,293.8770,9.1940,-0.7244,-1.3320,43.3164,33.2824,0.9195,10.0713,2.5090,18.2954,1.3437,
2021-05-12T18:00:00Z,2021-05-12T12:00:00Z,Quito_Carapungo,-0.0983,-78.4472,742.5059,293.7349,31.4116,-0.3376,-1.5846,43.1088,33.6825,0.9400,9.3093,2.8697,18.6561,2.2997,
2021-05-12T19:00:00Z,2021-05-12T12:00:00Z,Quito_Carapungo,-0.0983,-78.4472,742.3309,293.0389,68.0685,-0.1476,-1.8554,42.0518,32.6053,1.1102,8.6565,3.1621,18.5022,3.7595,
2021-05-12T20:00:00Z,2021-05-12T12:00:00Z,Quito_Carapungo,-0.0983,-78.4472,742.3814,292.0395,114.6793,-0.1421,-1.9315,39.6786,30.3389,1.5298,9.1025,3.2979,16.6281,3.5691,
2021-05-12T21:00:00Z,2021-05-12T12:00:00Z,Quito_Carapungo,-0.0983,-78.4472,742.5862,291.1972,160.4557,-0.1385,-1.8362,36.9765,25.5632,1.7862,9.3828,3.1042,16.4343,2.9627,
2021-05-12T22:00:00Z,2021-05-12T12:00:00Z,Quito_Carapungo,-0.0983,-78.4472,743.0086,290.2983,206.9473,-0.2449,-1.5704,33.9298,19.5417,2.6994,12.1361,3.2251,14.2482,2.7766,
2021-05-12T23:00:00Z,2021-05-12T12:00:00Z,Quito_Carapungo,-0.0983,-78.4472,743.4063,289.2092,230.3123,-0.3091,-1.0645,30.9662,14.2284,4.0872,16.4472,3.6583,14.8616,3.0216,
2021-05-13T00:00:00Z,2021-05-12T12:00:00Z,Quito_Carapungo,-0.0983,-78.4472,743.8633,288.4454,240.0875,-0.3428,-0.7886,27.6010,12.8540,6.3013,20.0694,4.7337,9.4910,3.4471,
2021-05-13T01:00:00Z,2021-05-12T12:00:00Z,Quito_Carapungo,-0.0983,-78.4472,744.2791,287.7299,218.1530,-0.1153,-0.6516,25.6858,11.9284,7.2056,20.5413,5.5725,9.7257,3.6688,
2021-05-13T02:00:00Z,2021-05-12T12:00:00Z,Quito_Carapungo,-0.0983,-78.4472,744.5461,287.0742,169.2772,0.0413,-0.5726,21.3307,15.0993,10.1583,22.2089,7.8318,9.6886,4.0283,
2021-05-13T03:00:00Z,2021-05-12T12:00:00Z,Quito_Carapungo,-0.0983,-78.4472,744.5580,286.4702,79.0358,0.0396,-0.4410,15.5462,12.6556,15.1077,19.7182,12.3157,11.0518,5.5072,
2021-05-13T04:00:00Z,2021-05-12T12:00:00Z,Quito_Carapungo,-0.0983,-78.4472,744.3326,286.0235,32.7826,-0.1579,-0.2976,14.2103,11.5852,17.3685,16.7899,18.7366,12.0346,5.8538,
2021-05-13T05:00:00Z,2021-05-12T12:00:00Z,Quito_Carapungo,-0.0983,-78.4472,743.8971,285.6145,4.8503,-0.4949,-0.2182,13.6973,10.0483,18.9349,14.8961,23.8296,12.4244,6.0635,
2021-05-13T06:00:00Z,2021-05-12T12:00:00Z,Quito_Carapungo,-0.0983,-78.4472,743.4180,285.0152,1.0375,-0.8709,-0.0591,12.9724,11.9097,20.7894,15.1175,28.6106,12.1141,6.9796,
2021-05-13T07:00:00Z,2021-05-12T12:00:00Z,Quito_Carapungo,-0.0983,-78.4472,743.0921,284.5961,0.5262,-1.1224,0.1735,11.9991,10.5651,22.3665,16.1133,33.3909,18.1989,7.6996,
2021-05-13T08:00:00Z,2021-05-12T12:00:00Z,Quito_Carapungo,-0.0983,-78.4472,742.9159,284.2966,0.2645,-1.2127,0.3446,10.1424,8.5529,24.3202,14.7082,37.0140,14.8729,8.0785,
2021-05-13T09:00:00Z,2021-05-12T12:00:00Z,Quito_Carapungo,-0.0983,-78.4472,742.9177,283.9741,0.1088,-1.3178,0.4102,8.0660,7.8777,26.4120,17.1067,39.5775,21.4793,8.4284,
2021-05-13T10:00:00Z,2021-05-12T12:00:00Z,Quito_Carapungo,-0.0983,-78.4472,742.9395,283.5625,0.0637,-1.4433,0.4544,6.7132,3.4172,28.0542,22.9643,41.2009,22.3160,8.4864,
2021-05-13T11:00:00Z,2021-05-12T12:00:00Z,Quito_Carapungo,-0.0983,-78.4472,743.0974,283.4771,0.0412,-1.4157,0.5418,9.5465,2.8896,25.9160,25.1550,42.1974,38.0470,8.2964,
2021-05-13T12:00:00Z,2021-05-12T12:00:00Z,Quito_Carapungo,-0.0983,-78.4472,743.3573,285.3438,0.0267,-1.6886,0.6169,21.6884,5.9870,14.1571,28.7059,30.9441,44.8086,6.0912,
2021-05-13T13:00:00Z,2021-05-12T12:00:00Z,Quito_Carapungo,-0.0983,-78.4472,743.6432,288.4583,0.0484,-1.5609,0.0293,33.8722,16.0397,5.0590,22.4600,9.6746,24.0654,2.6535,
2021-05-13T14:00:00Z,2021-05-12T12:00:00Z,Quito_Carapungo,-0.0983,-78.4472,743.6871,291.0723,0.2272,-1.4206,-0.5914,39.7946,24.8041,2.4658,17.9055,4.5088,17.7663,1.5150,
2021-05-13T15:00:00Z,2021-05-12T12:00:00Z,Quito_Carapungo,-0.0983,-78.4472,743.5062,292.8849,0.4787,-1.2551,-1.0310,43.1215,33.5800,1.4255,13.0644,2.9005,16.8605,1.1074,
2021-05-13T16:00:00Z,2021-05-12T12:00:00Z,Quito_Carapungo,-0.0983,-78.4472,743.0218,294.0049,1.5348,-1.0800,-1.1563,43.9059,34.4069,1.0364,9.8583,2.4733,16.4332,1.0471,
2021-05-13T17:00:00Z,2021-05-12T12:00:00Z,Quito_Carapungo,-0.0983,-78.4472,742.6440,294.5833,8.6427,-0.5728,-1.5349,43.6280,34.1524,0.9121,9.7122,2.4438,16.6881,1.1537,
2021-05-13T18:00:00Z,2021-05-12T12:00:00Z,Quito_Carapungo,-0.0983,-78.4472,742.4583,294.4406,25.2426,0.0218,-1.8107,43.8077,34.9372,0.8907,8.9114,2.6927,16.7461,1.8816,
2021-05-13T19:00:00Z,2021-05-12T12:00:00Z,Quito_Carapungo,-0.0983,-78.4472,742.0776,293.6376,47.0877,0.4353,-1.9328,43.8200,37.0288,1.0287,8.7650,3.0570,16.8152,2.6615,
2021-05-13T20:00:00Z,2021-05-12T12:00:00Z,Quito_Carapungo,-0.0983,-78.4472,742.0530,291.8138,107.4076,0.7897,-2.0794,42.4689,32.8524,1.2987,8.7019,3.2442,15.8192,2.7839,
2021-05-13T21:00:00Z,2021-05-12T12:00:00Z,Quito_Carapungo,-0.0983,-78.4472,742.2708,290.1718,146.1506,0.7459,-1.9451,40.2289,34.5015,1.8097,10.8567,3.4455,16.7100,2.5741,
2021-05-13T22:00:00Z,2021-05-12T12:00:00Z,Quito_Carapungo,-0.0983,-78.4472,742.5312,289.1918,111.9375,0.4485,-1.6243,37.1439,20.9996,2.9974,12.6504,3.8107,15.9366,2.7617,
2021-05-13T23:00:00Z,2021-05-12T12:00:00Z,Quito_Carapungo,-0.0983,-78.4472,742.8017,288.3090,83.0889,0.2325,-1.1866,33.4185,17.1068,5.1233,18.8366,4.5998,16.7020,2.9981,
2021-05-14T00:00:00Z,2021-05-12T12:00:00Z,Quito_Carapungo,-0.0983,-78.4472,743.2988,287.6064,74.3866,-0.0507,-0.8019,27.5302,13.5743,9.6128,20.0218,6.8016,11.1032,3.4571,
2021-05-14T01:00:00Z,2021-05-12T12:00:00Z,Quito_Carapungo,-0.0983,-78.4472,743.6848,287.0818,54.8959,-0.3861,-0.2543,20.0433,11.5314,16.2466,21.1723,10.8753,11.4732,4.1426,
2021-05-14T02:00:00Z,2021-05-12T12:00:00Z,Quito_Carapungo,-0.0983,-78.4472,744.0115,286.6802,29.0573,-0.5941,-0.0036,20.9959,10.3352,14.0408,21.1591,10.2514,10.8493,4.8776,
2021-05-14T03:00:00Z,2021-05-12T12:00:00Z,Quito_Carapungo,-0.0983,-78.4472,744.3714,286.3183,18.7457,-0.6262,-0.0148,16.1403,7.2666,18.1259,21.1337,14.2051,10.0129,5.7095,
2021-05-14T04:00:00Z,2021-05-12T12:00:00Z,Quito_Carapungo,-0.0983,-78.4472,744.4562,285.8867,13.0087,-0.6416,0.0433,14.2414,6.2807,20.6921,19.4310,19.2835,12.1845,6.4152,
2021-05-14T05:00:00Z,2021-05-12T12:00:00Z,Quito_Carapungo,-0.0983,-78.4472,744.1943,285.4520,8.6278,-0.7082,0.0616,12.8782,6.0912,22.8362,19.0720,24.3472,10.9072,7.1363,
2021-05-14T06:00:00Z,2021-05-12T12:00:00Z,Quito_Carapungo,-0.0983,-78.4472,743.9501,285.0104,4.7386,-0.8095,0.0865,11.7099,7.3531,24.5032,15.9007,29.3489,11.7164,7.9357,
2021-05-14T07:00:00Z,2021-05-12T12:00:00Z,Quito_Carapungo,-0.0983,-78.4472,743.6020,284.5486,3.0696,-0.9494,0.2886,9.9671,7.8080,26.5092,15.9974,34.6925,19.4512,8.5466,
2021-05-14T08:00:00Z,2021-05-12T12:00:00Z,Quito_Carapungo,-0.0983,-78.4472,743.2705,284.0420,2.7046,-1.0674,0.4494,7.1116,6.0092,29.3676,18.1420,40.0045,18.0469,9.0276,
2021-05-14T09:00:00Z,2021-05-12T12:00:00Z,Quito_Carapungo,-0.0983,-78.4472,743.3213,283.5372,2.8722,-1.1716,0.4227,4.5865,5.3632,31.7436,19.4165,44.3167,20.1614,9.4777,
2021-05-14T10:00:00Z,2021-05-12T12:00:00Z,Quito_Carapungo,-0.0983,-78.4472,743.4664,283.0289,2.1085,-1.3109,0.5505,3.2495,2.0109,33.1180,23.9047,46.8180,19.5821,9.3456,
2021-05-14T11:00:00Z,2021-05-12T12:00:00Z,Quito_Carapungo,-0.0983,-78.4472,743.6089,282.9188,0.9835,-1.3867,0.5724,7.6950,2.2075,29.2437,26.1149,47.8211,28.5128,8.9172,
2021-05-14T12:00:00Z,2021-05-12T12:00:00Z,Quito_Carapungo,-0.0983,-78.4472,743.8553,284.8955,0.1173,-1.6762,0.5400,20.0262,5.4974,16.4591,29.0479,37.7002,33.8193,6.8233,
2021-05-14T13:00:00Z,2021-05-12T12:00:00Z,Quito_Carapungo,-0.0983,-78.4472,744.1505,288.6014,0.0896,-1.0236,-0.3094,31.0192,12.2595,5.8748,24.2145,12.2186,25.9849,2.7955,
2021-05-14T14:00:00Z,2021-05-12T12:00:00Z,Quito_Carapungo,-0.0983,-78.4472,744.1722,291.3371,0.2412,-0.0970,-1.0397,37.8531,26.4318,3.0487,19.1161,6.4527,21.2302,1.6865,
2021-05-14T15:00:00Z,2021-05-12T12:00:00Z,Quito_Carapungo,-0.0983,-78.4472,744.0226,292.7937,2.2165,0.7597,-1.6470,44.0615,38.9283,1.9256,14.9990,5.0370,18.9922,1.3818,
2021-05-14T16:00:00Z,2021-05-12T12:00:00Z,Quito_Carapungo,-0.0983,-78.4472,743.7280,292.9831,15.1098,1.3072,-2.0805,47.5130,47.5602,1.3718,10.7175,4.7617,19.1112,1.5529,
2021-05-14T17:00:00Z,2021-05-12T12:00:00Z,Quito_Carapungo,-0.0983,-78.4472,743.3618,292.0084,82.4928,1.7647,-2.2281,48.5035,43.5482,1.1208,9.4079,4.8226,19.9164,2.4325,
2021-05-14T18:00:00Z,2021-05-12T12:00:00Z,Quito_Carapungo,-0.0983,-78.4472,743.0031,290.5179,251.7700,2.1157,-2.1771,48.1273,42.4019,1.1775,9.1795,5.1182,19.7502,4.6654,
2021-05-14T19:00:00Z,2021-05-12T12:00:00Z,Quito_Carapungo,-0.0983,-78.4472,742.5162,289.3879,427.7229,2.2335,-1.9750,46.9040,44.0081,1.7016,9.8908,5.7661,20.3784,7.4881,
2021-05-14T20:00:00Z,2021-05-12T12:00:00Z,Quito_Carapungo,-0.0983,-78.4472,742.1724,288.6352,545.5017,2.2151,-1.7957,45.3628,37.2859,2.5126,11.2923,6.5081,21.1204,10.2676,
2021-05-14T21:00:00Z,2021-05-12T12:00:00Z,Quito_Carapungo,-0.0983,-78.4472,742.2158,287.9966,632.2861,1.9779,-1.6963,43.6474,35.9478,3.5117,11.7924,7.3131,19.6481,14.3430,
2021-05-14T22:00:00Z,2021-05-12T12:00:00Z,Quito_Carapungo,-0.0983,-78.4472,742.5161,287.4364,633.2397,1.6585,-1.5478,41.4498,32.0266,5.1577,16.9934,8.4620,18.0304,21.6782,
2021-05-14T23:00:00Z,2021-05-12T12:00:00Z,Quito_Carapungo,-0.0983,-78.4472,743.0439,286.9046,582.6950,1.4004,-1.3673,38.5537,26.3008,7.5792,20.8314,10.3653,19.0271,12.6855,
2021-05-15T00:00:00Z,2021-05-12T12:00:00Z,Quito_Carapungo,-0.0983,-78.4472,743.7383,286.6482,511.1694,1.4357,-1.1268,36.1830,19.3035,9.3477,21.4267,12.4735,16.7395,7.1960,
2021-05-15T01:00:00Z,2021-05-12T12:00:00Z,Quito_Carapungo,-0.0983,-78.4472,744.4149,286.4617,497.8180,1.4744,-0.7981,33.8381,15.8961,10.7745,23.3099,14.5685,18.5623,4.9516,
2021-05-15T02:00:00Z,2021-05-12T12:00:00Z,Quito_Carapungo,-0.0983,-78.4472,744.9442,286.2849,557.8995,1.4246,-0.5388,30.4729,14.2207,12.9257,22.9128,17.1608,17.8124,4.0212,
2021-05-15T03:00:00Z,2021-05-12T12:00:00Z,Quito_Carapungo,-0.0983,-78.4472,745.1572,286.1401,384.3307,1.2493,-0.4821,26.4716,16.0937,15.2002,25.3408,20.0646,15.1863,4.1769,
2021-05-15T04:00:00Z,2021-05-12T12:00:00Z,Quito_Carapungo,-0.0983,-78.4472,745.0547,285.8937,241.0412,1.0110,-0.4949,21.6305,17.1458,18.3583,21.9684,24.9687,13.5405,3.9806,
2021-05-15T05:00:00Z,2021-05-12T12:00:00Z,Quito_Carapungo,-0.0983,-78.4472,744.6444,285.6935,203.6095,0.8706,-0.4152,19.7506,18.4800,20.3126,15.1876,30.6235,10.4137,3.7409,
2021-05-15T06:00:00Z,2021-05-12T12:00:00Z,Quito_Carapungo,-0.0983,-78.4472,744.1798,285.4223,181.4365,0.6563,-0.3290,19.5818,18.3108,21.6207,13.8844,36.3731,11.4088,4.1554,
2021-05-15T07:00:00Z,2021-05-12T12:00:00Z,Quito_Carapungo,-0.0983,-78.4472,743.7493,285.2227,184.2976,0.5990,-0.3721,19.6499,18.3787,22.6310,14.7822,41.7487,13.3870,3.9062,
2021-05-15T08:00:00Z,2021-05-12T12:00:00Z,Quito_Carapungo,-0.0983,-78.4472,743.3320,285.0321,130.4150,0.5429,-0.3925,19.4987,18.2274,23.0953,15.2457,47.0005,11.0604,3.8923,
2021-05-15T09:00:00Z,2021-05-12T12:00:00Z,Quito_Carapungo,-0.0983,-78.4472,743.2230,284.9016,45.9552,0.3704,-0.3175,19.2198,14.4938,23.3125,16.3316,52.3781,14.4883,4.7439,
2021-05-15T10:00:00Z,2021-05-12T12:00:00Z,Quito_Carapungo,-0.0983,-78.4472,743.4131,284.7849,13.3663,-0.0427,-0.0826,18.6844,10.6724,23.2860,23.7641,57.8178,17.2407,5.0939,
2021-05-15T11:00:00Z,2021-05-12T12:00:00Z,Quito_Carapungo,-0.0983,-78.4472,743.6614,284.7623,2.1271,-0.5880,0.2835,19.7671,6.7331,21.1931,28.0198,63.4425,23.8195,5.7209,
2021-05-15T12:00:00Z,2021-05-12T12:00:00Z,Quito_Carapungo,-0.0983,-78.4472,744.1145,286.3553,0.2570,-0.8421,0.1000,28.4231,12.1150,11.4227,25.8586,36.6299,21.4381,4.2150,
2021-05-15T13:00:00Z,2021-05-12T12:00:00Z,Quito_Carapungo,-0.0983,-78.4472,744.5461,289.0968,2.0638,0.1032,-0.8556,37.2137,17.3741,4.7585,20.9681,14.2080,18.8199,2.3194,
2021-05-15T14:00:00Z,2021-05-12T12:00:00Z,Quito_Carapungo,-0.0983,-78.4472,744.6505,290.6882,11.3696,1.1315,-1.5235,41.3197,35.7590,2.5522,17.8957,8.2086,20.3439,1.7813,
2021-05-15T15:00:00Z,2021-05-12T12:00:00Z,Quito_Carapungo,-0.0983,-78.4472,744.5475,291.3230,30.2494,1.5919,-1.8029,44.9164,46.6198,1.6255,14.6428,6.5852,20.6907,1.7584,
2021-05-15T16:00:00Z,2021-05-12T12:00:00Z,Quito_Carapungo,-0.0983,-78.4472,744.1632,291.5204,48.5182,1.8900,-1.9612,47.3504,48.1629,1.1419,10.5384,5.8512,21.2625,1.9899,
2021-05-15T17:00:00Z,2021-05-12T12:00:00Z,Quito_Carapungo,-0.0983,-78.4472,743.6354,291.3868,93.9369,2.2562,-2.1853,48.1103,43.4361,0.9272,9.7641,5.6236,21.2390,2.4827,
2021-05-15T18:00:00Z,2021-05-12T12:00:00Z,Quito_Carapungo,-0.0983,-78.4472,743.1597,290.4012,208.8547,2.5980,-2.2003,48.5007,43.7025,0.9722,9.1398,5.8976,20.5099,3.6877,
2021-05-15T19:00:00Z,2021-05-12T12:00:00Z,Quito_Carapungo,-0.0983,-78.4472,742.7579,289.4275,370.0256,2.7234,-1.9395,48.2064,49.5620,1.5160,9.7067,6.7503,21.3626,5.9296,
2021-05-15T20:00:00Z,2021-05-12T12:00:00Z,Quito_Carapungo,-0.0983,-78.4472,742.3352,288.8656,413.8947,2.5985,-1.6574,47.1501,41.2839,2.0405,10.2424,7.1714,21.3234,7.3393,
2021-05-15T21:00:00Z,2021-05-12T12:00:00Z,Quito_Carapungo,-0.0983,-78.4472,742.2215,288.3614,389.0991,2.3300,-1.4352,45.4954,37.3373,2.7923,10.8457,7.4097,20.4803,10.3142,
2021-05-15T22:00:00Z,2021-05-12T12:00:00Z,Quito_Carapungo,-0.0983,-78.4472,742.4366,287.7726,314.2357,1.9195,-1.1703,43.0875,30.5070,4.1749,17.3663,8.1337,24.0075,14.3159,
2021-05-15T23:00:00Z,2021-05-12T12:00:00Z,Quito_Carapungo,-0.0983,-78.4472,742.9379,287.1290,256.5384,1.3943,-0.8903,39.1702,28.1610,6.9264,20.1471,10.3276,23.9245,9.9527,
2021-05-16T00:00:00Z,2021-05-12T12:00:00Z,Quito_Carapungo,-0.0983,-78.4472,743.5095,286.9336,239.8491,1.0525,-0.7067,34.9604,18.5485,9.9405,22.0038,13.9521,19.4626,7.1910,
2021-05-16T01:00:00Z,2021-05-12T12:00:00Z,Quito_Carapungo,-0.0983,-78.4472,744.0535,286.7670,210.7620,0.7907,-0.4898,29.8621,17.9052,13.7658,23.5225,18.1713,18.6715,5.6179,
2021-05-16T02:00:00Z,2021-05-12T12:00:00Z,Quito_Carapungo,-0.0983,-78.4472,744.3461,286.6656,166.8930,0.5244,-0.3050,24.7801,17.0162,17.6017,20.9311,23.2641,19.4395,4.8983,
2021-05-16T03:00:00Z,2021-05-12T12:00:00Z,Quito_Carapungo,-0.0983,-78.4472,744.3837,286.4485,125.6466,0.4685,-0.1179,21.0452,17.4302,21.0888,20.8513,29.4192,16.2020,5.2356,
2021-05-16T04:00:00Z,2021-05-12T12:00:00Z,Quito_Carapungo,-0.0983,-78.4472,744.3413,286.2466,106.5731,0.5564,-0.2290,19.1146,14.9756,23.1960,18.8032,35.5756,15.1653,5.0415,
2021-05-16T05:00:00Z,2021-05-12T12:00:00Z,Quito_Carapungo,-0.0983,-78.4472,744.0986,286.0187,117.0635,0.4522,-0.3040,17.5500,16.2818,24.5055,15.3742,42.0766,17.5648,4.7988,
2021-05-16T06:00:00Z,2021-05-12T12:00:00Z,Quito_Carapungo,-0.0983,-78.4472,743.7247,285.8668,109.3149,0.2455,-0.1717,16.1080,17.2536,25.3440,13.2874,49.3280,18.8706,5.3637,
2021-05-16T07:00:00Z,2021-05-12T12:00:00Z,Quito_Carapungo,-0.0983,-78.4472,743.3728,285.7025,119.6861,0.0623,0.1385,14.6670,18.5414,26.1845,14.4028,57.4540,22.7066,5.6512,
2021-05-16T08:00:00Z,2021-05-12T12:00:00Z,Quito_Carapungo,-0.0983,-78.4472,743.1444,285.5472,117.8980,-0.1068,0.1977,12.6371,16.6697,27.1126,15.2002,65.0778,16.7005,6.3030,
2021-05-16T09:00:00Z,2021-05-12T12:00:00Z,Quito_Carapungo,-0.0983,-78.4472,743.2063,285.4331,128.7460,-0.2585,0.0530,11.1339,15.1685,25.3648,15.3584,62.9518,18.4569,6.6034,
2021-05-16T10:00:00Z,2021-05-12T12:00:00Z,Quito_Carapungo,-0.0983,-78.4472,743.3747,285.2460,167.8467,-0.4065,-0.0002,10.3891,8.7922,24.5480,25.1180,66.7019,19.8419,7.1643,
2021-05-16T11:00:00Z,2021-05-12T12:00:00Z,Quito_Carapungo,-0.0983,-78.4472,743.7766,285.1857,191.6885,-0.5754,-0.0653,11.4500,7.7092,22.2568,28.0951,69.1978,35.4955,7.8769,
2021-05-16T12:00:00Z,2021-05-12T12:00:00Z,Quito_Carapungo,-0.0983,-78.4472,744.4371,286.0600,130.8918,-0.7972,-0.3673,19.0228,12.9543,13.3251,30.2609,47.6966,26.4908,6.0152,
2021-05-16T13:00:00Z,2021-05-12T12:00:00Z,Quito_Carapungo,-0.0983,-78.4472,744.8187,287.9963,46.7300,-0.4129,-1.0726,28.3750,18.6087,5.4031,22.0373,18.8537,25.9521,3.0528,
2021-05-16T14:00:00Z,2021-05-12T12:00:00Z,Quito_Carapungo,-0.0983,-78.4472,744.6331,290.2485,33.9150,0.3237,-1.6612,35.3030,31.6909,2.7625,19.7671,9.9775,23.0094,2.0083,
2021-05-16T15:00:00Z,2021-05-12T12:00:00Z,Quito_Carapungo,-0.0983,-78.4472,744.1708,291.8376,39.2199,1.1967,-2.0745,40.6586,45.5614,1.6860,13.4937,6.7786,21.1023,1.5945,
2021-05-16T16:00:00Z,2021-05-12T12:00:00Z,Quito_Carapungo,-0.0983,-78.4472,743.5516,291.8287,54.6575,1.8598,-2.1887,44.6073,45.0428,1.1910,10.0136,5.8187,20.7587,1.7313,
2021-05-16T17:00:00Z,2021-05-12T12:00:00Z,Quito_Carapungo,-0.0983,-78.4472,742.9064,290.7957,158.5484,2.0016,-2.1306,45.9288,40.1409,1.0477,9.5246,5.6158,19.8663,2.2886,
2021-05-16T18:00:00Z,2021-05-12T12:00:00Z,Quito_Carapungo,-0.0983,-78.4472,742.3730,289.6563,432.0145,1.9448,-2.0026,44.8706,39.0642,1.2148,9.3670,5.5811,19.3696,3.5152,
2021-05-16T19:00:00Z,2021-05-12T12:00:00Z,Quito_Carapungo,-0.0983,-78.4472,741.9763,289.0083,734.3292,1.9021,-1.9389,43.0492,38.3203,1.6070,9.0535,5.6734,19.4619,5.3914,
2021-05-16T20:00:00Z,2021-05-12T12:00:00Z,Quito_Carapungo,-0.0983,-78.4472,741.8602,288.5600,953.6743,1.8631,-1.8370,40.8632,35.2738,2.2742,9.7311,6.0506,19.1787,7.3724,
2021-05-16T21:00:00Z,2021-05-12T12:00:00Z,Quito_Carapungo,-0.0983,-78.4472,742.0784,288.1254,1087.1887,1.6144,-1.6695,38.6001,33.5612,3.0896,10.6688,6.5758,16.5607,10.3523,
2021-05-16T22:00:00Z,2021-05-12T12:00:00Z,Quito_Carapungo,-0.0983,-78.4472,742.5834,287.6492,991.8213,1.3095,-1.3981,35.5240,26.2126,4.7803,13.7046,7.5813,16.7079,15.6794,
2021-05-16T23:00:00Z,2021-05-12T12:00:00Z,Quito_Carapungo,-0.0983,-78.4472,743.2438,287.3276,768.6615,1.0423,-1.0554,31.3361,18.8691,7.7367,20.6826,9.4559,15.6695,10.8801,
2021-05-17T00:00:00Z,2021-05-12T12:00:00Z,Quito_Carapungo,-0.0983,-78.4472,743.8241,287.1753,664.7110,0.8535,-0.8963,26.9817,17.0972,10.5203,21.4642,12.1913,17.1994,6.8351,
2021-05-17T01:00:00Z,2021-05-12T12:00:00Z,Quito_Carapungo,-0.0983,-78.4472,744.2914,287.0785,667.5720,0.5748,-0.8660,21.8676,15.8806,13.8597,21.8582,16.4104,13.9589,4.9955,
2021-05-17T02:00:00Z,2021-05-12T12:00:00Z,Quito_Carapungo,-0.0983,-78.4472,744.5299,286.9700,618.9346,0.3842,-0.7149,17.6763,15.6013,17.2322,21.3951,22.0053,14.2239,4.1949,
2021-05-17T03:00:00Z,2021-05-12T12:00:00Z,Quito_Carapungo,-0.0983,-78.4472,744.4797,286.8187,562.6678,0.2355,-0.5926,16.2671,15.9797,19.2045,18.6482,27.2870,14.5882,4.1934,
2021-05-17T04:00:00Z,2021-05-12T12:00:00Z,Quito_Carapungo,-0.0983,-78.4472,744.2824,286.6036,463.0089,0.1370,-0.5336,15.2500,16.0233,20.0292,17.3359,31.0994,12.8993,3.9978,
2021-05-17T05:00:00Z,2021-05-12T12:00:00Z,Quito_Carapungo,-0.0983,-78.4472,743.8455,286.3624,284.1949,0.0950,-0.3918,14.2062,17.2895,20.7035,13.5452,35.0054,15.5615,4.1260,
2021-05-17T06:00:00Z,2021-05-12T12:00:00Z,Quito_Carapungo,-0.0983,-78.4472,743.3583,286.0334,122.7856,0.0231,-0.3042,13.3179,16.4028,21.1950,15.0877,39.6933,16.1780,4.8045,
2021-05-17T07:00:00Z,2021-05-12T12:00:00Z,Quito_Carapungo,-0.0983,-78.4472,742.9589,285.6584,59.2470,-0.3164,-0.2420,12.5198,15.3501,21.4836,15.3716,44.1934,13.2790,5.0568,
2021-05-17T08:00:00Z,2021-05-12T12:00:00Z,Quito_Carapungo,-0.0983,-78.4472,742.7216,285.2226,9.5814,-0.6874,-0.1888,11.7255,11.3234,21.7192,17.0562,47.0675,13.2211,5.4948,
2021-05-17T09:00:00Z,2021-05-12T12:00:00Z,Quito_Carapungo,-0.0983,-78.4472,742.8069,284.8186,0.9816,-0.9687,-0.1368,10.9219,10.5191,22.0045,17.4815,48.3814,14.3198,6.2854,
2021-05-17T10:00:00Z,2021-05-12T12:00:00Z,Quito_Carapungo,-0.0983,-78.4472,743.0576,284.4664,0.3371,-1.2191,0.0663,10.1551,4.1697,22.2915,23.7592,47.8205,18.7398,6.5773,
2021-05-17T11:00:00Z,2021-05-12T12:00:00Z,Quito_Carapungo,-0.0983,-78.4472,743.3513,284.5407,0.2205,-1.2488,0.2327,11.0286,3.5486,21.2008,26.8909,46.4475,25.3513,6.5836,
2021-05-12T12:00:00Z,2021-05-12T12:00:00Z,Quito_Centro,-0.2200,-78.5100,708.9741,283.8204,0.1201,-2.3590,0.9805,31.5617,8.1122,11.4028,32.0706,13.9841,18.5175,3.1018,
2021-05-12T13:00:00Z,2021-05-12T12:00:00Z,Quito_Centro,-0.2200,-78.5100,709.0759,285.7407,0.4964,-3.0445,1.1364,37.3580,11.6702,3.8359,24.9033,4.8299,17.2220,1.5338,
2021-05-12T14:00:00Z,2021-05-12T12:00:00Z,Quito_Centro,-0.2200,-78.5100,709.1236,287.4953,1.1679,-3.2324,1.0115,38.9146,24.2778,2.1422,21.6168,2.8794,15.8870,1.0499,
2021-05-12T15:00:00Z,2021-05-12T12:00:00Z,Quito_Centro,-0.2200,-78.5100,709.0923,288.9521,1.6857,-3.1327,0.7342,40.0361,29.8647,1.4867,14.7141,2.3968,11.6106,0.9348,
2021-05-12T16:00:00Z,2021-05-12T12:00:00Z,Quito_Centro,-0.2200,-78.5100,708.9109,289.9386,3.2224,-2.6245,0.1960,40.5469,31.7672,1.2475,13.0782,2.3769,13.0931,1.0077,
2021-05-12T17:00:00Z,2021-05-12T12:00:00Z,Quito_Centro,-0.2200,-78.5100,708.6160,290.5020,11.9507,-1.8387,-0.3711,40.9433,32.6031,1.2114,13.7393,2.6261,13.0997,1.1964,
2021-05-12T18:00:00Z,2021-05-12T12:00:00Z,Quito_Centro,-0.2200,-78.5100,708.2672,290.6724,38.9814,-1.2370,-0.6783,41.3495,27.6917,1.2825,12.6484,3.0182,13.0503,1.8341,
2021-05-12T19:00:00Z,2021-05-12T12:00:00Z,Quito_Centro,-0.2200,-78.5100,708.0283,290.4139,78.5589,-0.9206,-1.0859,40.8808,29.4457,1.5408,13.6879,3.4238,13.4559,2.6790,
2021-05-12T20:00:00Z,2021-05-12T12:00:00Z,Quito_Centro,-0.2200,-78.5100,708.0339,289.6020,120.4014,-0.7139,-1.5096,39.0240,24.2157,2.1627,16.5085,3.8487,14.2751,2.7469,
2021-05-12T21:00:00Z,2021-05-12T12:00:00Z,Quito_Centro,-0.2200,-78.5100,708.2961,288.5097,169.2772,-0.5667,-1.6800,35.9276,24.5596,3.1328,19.1415,4.1432,14.0216,3.0427,
2021-05-12T22:00:00Z,2021-05-12T12:00:00Z,Quito_Centro,-0.2200,-78.5100,708.6986,287.3608,207.4242,-0.6004,-1.5196,31.4093,12.3965,5.2219,23.9677,4.8071,14.2762,2.7911,
2021-05-12T23:00:00Z,2021-05-12T12:00:00Z,Quito_Centro,-0.2200,-78.5100,709.0613,286.2717,208.1394,-0.7906,-1.0919,25.5522,7.8072,8.9834,28.7600,6.0606,13.7977,3.0034,
2021-05-13T00:00:00Z,2021-05-12T12:00:00Z,Quito_Centro,-0.2200,-78.5100,709.3633,285.5704,208.8547,-0.9561,-0.8511,18.5099,4.4809,14.4589,33.4848,8.4993,12.5938,3.5380,
2021-05-13T01:00:00Z,2021-05-12T12:00:00Z,Quito_Centro,-0.2200,-78.5100,709.7592,285.0736,197.8874,-0.8853,-0.6672,14.8713,3.0385,17.1381,30.6217,10.2678,13.2254,3.8361,
2021-05-13T02:00:00Z,2021-05-12T12:00:00Z,Quito_Centro,-0.2200,-78.5100,710.0110,284.6367,161.4094,-0.8039,-0.4554,9.7339,1.3809,21.5284,33.6833,13.5974,14.1049,4.3630,
2021-05-13T03:00:00Z,2021-05-12T12:00:00Z,Quito_Centro,-0.2200,-78.5100,709.9680,284.1889,76.6516,-0.7111,-0.2008,3.7830,1.7134,27.5546,26.9963,19.2376,15.7140,6.0456,
2021-05-13T04:00:00Z,2021-05-12T12:00:00Z,Quito_Centro,-0.2200,-78.5100,709.7526,283.6485,31.4116,-0.7169,0.0637,2.5094,1.7317,30.9831,23.4726,26.7054,13.9029,6.8288,
2021-05-13T05:00:00Z,2021-05-12T12:00:00Z,Quito_Centro,-0.2200,-78.5100,709.3171,283.1770,6.8396,-0.8553,0.2391,2.6357,3.6105,32.9113,23.8589,32.8296,16.0969,7.1621,
2021-05-13T06:00:00Z,2021-05-12T12:00:00Z,Quito_Centro,-0.2200,-78.5100,708.8280,282.6402,2.2352,-1.0252,0.4300,3.1710,5.0561,33.9202,23.5842,37.4544,18.1494,7.8309,
2021-05-13T07:00:00Z,2021-05-12T12:00:00Z,Quito_Centro,-0.2200,-78.5100,708.5321,282.1898,1.0300,-1.2083,0.6572,4.2561,3.3622,33.2728,24.1562,40.5784,16.7448,8.1361,
2021-05-13T08:00:00Z,2021-05-12T12:00:00Z,Quito_Centro,-0.2200,-78.5100,708.3459,281.7654,0.3506,-1.3377,0.8289,5.7235,5.5106,31.4522,20.5009,41.0765,16.5814,7.8457,
2021-05-13T09:00:00Z,2021-05-12T12:00:00Z,Quito_Centro,-0.2200,-78.5100,708.2977,281.4741,0.1700,-1.4780,0.8701,7.2088,4.8823,29.3351,21.1088,39.9525,15.4573,7.5990,
2021-05-13T10:00:00Z,2021-05-12T12:00:00Z,Quito_Centro,-0.2200,-78.5100,708.3494,281.1875,0.1276,-1.5761,0.9124,8.4017,2.3802,27.7447,22.8423,38.3259,16.1900,7.2859,
2021-05-13T11:00:00Z,2021-05-12T12:00:00Z,Quito_Centro,-0.2200,-78.5100,708.4624,281.3209,0.0912,-1.5055,0.9959,12.4611,3.1738,23.8837,25.8314,36.3224,17.9438,6.7757,
2021-05-13T12:00:00Z,2021-05-12T12:00:00Z,Quito_Centro,-0.2200,-78.5100,708.7473,283.4063,0.0476,-1.8371,1.1079,22.6478,5.4583,12.7648,29.3355,25.2254,21.2341,4.8689,
2021-05-13T13:00:00Z,2021-05-12T12:00:00Z,Quito_Centro,-0.2200,-78.5100,709.0882,285.9896,0.0329,-2.2875,0.8186,31.8272,13.6679,4.6111,27.4612,7.8778,22.7468,2.1369,
2021-05-13T14:00:00Z,2021-05-12T12:00:00Z,Quito_Centro,-0.2200,-78.5100,709.2321,288.1973,0.5523,-2.5143,0.3055,35.9727,21.9328,2.4790,24.2215,3.8174,17.5770,1.2695,
2021-05-13T15:00:00Z,2021-05-12T12:00:00Z,Quito_Centro,-0.2200,-78.5100,709.1912,289.7911,1.6429,-2.3801,-0.0969,39.0211,28.6858,1.6402,16.7144,2.7716,14.2040,1.0001,
2021-05-13T16:00:00Z,2021-05-12T12:00:00Z,Quito_Centro,-0.2200,-78.5100,708.8593,290.7862,7.6443,-2.1738,-0.2574,40.6716,28.2214,1.3125,12.4418,2.5865,12.4770,0.9707,
2021-05-13T17:00:00Z,2021-05-12T12:00:00Z,Quito_Centro,-0.2200,-78.5100,708.4691,291.4583,16.4509,-1.7173,-0.5779,41.2906,26.7301,1.2072,10.0872,2.6235,12.2712,1.0518,
2021-05-13T18:00:00Z,2021-05-12T12:00:00Z,Quito_Centro,-0.2200,-78.5100,708.2607,291.5031,32.7229,-1.0036,-0.9982,42.3743,27.8203,1.2372,18.9906,2.9505,12.5983,1.5705,
2021-05-13T19:00:00Z,2021-05-12T12:00:00Z,Quito_Centro,-0.2200,-78.5100,707.8076,291.0751,51.1408,-0.6858,-1.1945,43.0632,28.5749,1.4658,13.5758,3.4007,11.7282,2.2177,
2021-05-13T20:00:00Z,2021-05-12T12:00:00Z,Quito_Centro,-0.2200,-78.5100,707.6130,289.8763,97.7516,-0.4545,-1.6028,41.8759,25.1944,1.9211,16.3012,3.7169,13.3175,2.2928,
2021-05-13T21:00:00Z,2021-05-12T12:00:00Z,Quito_Centro,-0.2200,-78.5100,707.7733,288.4843,130.8918,-0.3263,-1.8045,38.7073,23.4279,3.0221,18.6866,4.1408,14.2253,2.1884,
2021-05-13T22:00:00Z,2021-05-12T12:00:00Z,Quito_Centro,-0.2200,-78.5100,708.0712,287.2856,114.2025,-0.3483,-1.5696,34.2057,13.6012,4.9062,22.0622,4.6896,14.1587,2.4706,
2021-05-13T23:00:00Z,2021-05-12T12:00:00Z,Quito_Centro,-0.2200,-78.5100,708.3517,286.3715,91.5527,-0.4472,-1.0577,29.2582,8.7071,7.7466,28.0776,5.6311,14.4418,2.8817,
2021-05-14T00:00:00Z,2021-05-12T12:00:00Z,Quito_Centro,-0.2200,-78.5100,708.8313,285.7001,90.4799,-0.6816,-0.7042,22.5937,4.4913,12.7037,32.8906,7.9344,12.4257,3.5590,
2021-05-14T01:00:00Z,2021-05-12T12:00:00Z,Quito_Centro,-0.2200,-78.5100,709.3022,285.0193,69.6182,-0.9174,-0.1371,15.3036,3.1505,19.3943,35.0029,11.9378,15.6085,4.3972,
2021-05-14T02:00:00Z,2021-05-12T12:00:00Z,Quito_Centro,-0.2200,-78.5100,709.5815,284.5865,37.6105,-1.0316,0.2113,14.9978,3.1700,18.9296,32.5906,11.9077,12.2244,5.2414,
2021-05-14T03:00:00Z,2021-05-12T12:00:00Z,Quito_Centro,-0.2200,-78.5100,709.8614,284.1620,22.9776,-0.9993,0.3192,9.0870,3.2647,24.8179,25.9427,16.9082,15.6915,6.1679,
2021-05-14T04:00:00Z,2021-05-12T12:00:00Z,Quito_Centro,-0.2200,-78.5100,709.9086,283.6679,15.3482,-0.9580,0.4339,6.8644,3.4550,28.4088,23.5545,22.7835,18.7671,6.9173,
2021-05-14T05:00:00Z,2021-05-12T12:00:00Z,Quito_Centro,-0.2200,-78.5100,709.5918,283.1707,10.2073,-0.9660,0.5450,5.9576,3.4107,30.5038,21.9754,27.9722,20.6860,7.4418,
2021-05-14T06:00:00Z,2021-05-12T12:00:00Z,Quito_Centro,-0.2200,-78.5100,709.3051,282.6354,6.8769,-1.0556,0.5611,5.7662,4.2309,31.3574,21.3912,32.5676,18.0544,7.9211,
2021-05-14T07:00:00Z,2021-05-12T12:00:00Z,Quito_Centro,-0.2200,-78.5100,708.9920,282.1111,4.3958,-1.1643,0.7413,6.3234,4.4464,30.9972,21.3200,36.3175,16.2221,8.1246,
2021-05-14T08:00:00Z,2021-05-12T12:00:00Z,Quito_Centro,-0.2200,-78.5100,708.6455,281.6045,2.6859,-1.2354,0.9516,7.5154,4.9540,29.6196,21.3021,38.3795,16.8536,7.9217,
2021-05-14T09:00:00Z,2021-05-12T12:00:00Z,Quito_Centro,-0.2200,-78.5100,708.6313,281.2872,1.5460,-1.2575,0.9400,8.6773,5.4224,28.1515,19.8249,39.3167,17.7908,7.7315,
2021-05-14T10:00:00Z,2021-05-12T12:00:00Z,Quito_Centro,-0.2200,-78.5100,708.7914,281.0602,0.8652,-1.3304,1.0283,9.4277,3.7594,27.0436,22.8917,39.1930,17.6671,7.3593,
2021-05-14T11:00:00Z,2021-05-12T12:00:00Z,Quito_Centro,-0.2200,-78.5100,708.9189,281.1688,0.3693,-1.3672,1.0441,13.0901,5.2387,23.1813,27.8353,37.7586,18.4489,6.8436,
2021-05-14T12:00:00Z,2021-05-12T12:00:00Z,Quito_Centro,-0.2200,-78.5100,709.1828,283.2705,0.0209,-1.6645,1.0824,21.7051,6.7141,13.2423,31.5791,29.1377,28.9367,5.2662,
2021-05-14T13:00:00Z,2021-05-12T12:00:00Z,Quito_Centro,-0.2200,-78.5100,709.5305,286.2577,0.0204,-1.5979,0.4425,30.0265,8.8141,5.0187,27.9353,9.3279,24.8933,2.1480,
2021-05-14T14:00:00Z,2021-05-12T12:00:00Z,Quito_Centro,-0.2200,-78.5100,709.6697,288.5871,1.0151,-1.0989,-0.1764,34.9547,21.1050,2.9747,25.5864,5.1949,18.9201,1.3664,
2021-05-14T15:00:00Z,2021-05-12T12:00:00Z,Quito_Centro,-0.2200,-78.5100,709.5826,290.0437,13.1428,-0.4591,-0.7505,39.8719,25.8038,2.1740,22.8558,4.4510,16.2158,1.1690,
2021-05-14T16:00:00Z,2021-05-12T12:00:00Z,Quito_Centro,-0.2200,-78.5100,709.2480,290.6081,39.4583,0.0457,-1.2641,44.6143,29.9967,1.7291,15.4427,4.6758,14.3911,1.2455,
2021-05-14T17:00:00Z,2021-05-12T12:00:00Z,Quito_Centro,-0.2200,-78.5100,708.8018,290.2584,98.4669,0.5406,-1.6616,47.1018,30.2243,1.5236,13.8648,5.0413,14.1197,1.7885,
2021-05-14T18:00:00Z,2021-05-12T12:00:00Z,Quito_Centro,-0.2200,-78.5100,708.3506,289.2679,242.9485,1.0757,-2.0170,47.8090,33.4023,1.6388,15.8497,5.4620,14.9346,3.5777,
2021-05-14T19:00:00Z,2021-05-12T12:00:00Z,Quito_Centro,-0.2200,-78.5100,707.9113,288.0129,450.1343,1.3702,-2.0688,46.9138,28.6185,2.3103,18.2801,6.1802,16.6066,6.2512,
2021-05-14T20:00:00Z,2021-05-12T12:00:00Z,Quito_Centro,-0.2200,-78.5100,707.5949,287.0102,607.4905,1.3982,-1.9715,44.5713,27.7179,3.6770,23.5738,7.2737,17.1521,9.2199,
2021-05-14T21:00:00Z,2021-05-12T12:00:00Z,Quito_Centro,-0.2200,-78.5100,707.5807,286.4341,741.0049,1.1594,-1.8291,40.8000,20.4520,5.5985,26.6349,8.4460,18.3243,12.5094,
2021-05-14T22:00:00Z,2021-05-12T12:00:00Z,Quito_Centro,-0.2200,-78.5100,707.8461,285.8739,796.3181,0.8541,-1.5517,35.4037,16.3965,9.2098,33.6702,10.1495,18.2571,23.1334,
2021-05-14T23:00:00Z,2021-05-12T12:00:00Z,Quito_Centro,-0.2200,-78.5100,708.3464,285.4359,805.8548,0.6525,-1.1329,28.0613,13.0476,14.9445,37.7868,12.9435,19.9050,22.3771,
2021-05-15T00:00:00Z,2021-05-12T12:00:00Z,Quito_Centro,-0.2200,-78.5100,709.0383,285.2107,695.2286,0.6680,-0.6893,23.4745,9.1144,18.4734,39.0769,15.6454,19.9850,14.8067,
2021-05-15T01:00:00Z,2021-05-12T12:00:00Z,Quito_Centro,-0.2200,-78.5100,709.7299,285.0242,556.9458,0.6858,-0.2669,18.7432,5.7097,22.0920,39.5216,18.7872,20.9147,13.4645,
2021-05-15T02:00:00Z,2021-05-12T12:00:00Z,Quito_Centro,-0.2200,-78.5100,710.2591,284.7849,415.3252,0.5989,0.0823,13.7235,5.7919,25.9421,34.8724,22.7233,18.6107,13.2762,
2021-05-15T03:00:00Z,2021-05-12T12:00:00Z,Quito_Centro,-0.2200,-78.5100,710.4072,284.5151,227.2129,0.4868,0.0960,9.5966,3.0361,29.3492,30.6895,26.9708,17.1493,11.9549,
2021-05-15T04:00:00Z,2021-05-12T12:00:00Z,Quito_Centro,-0.2200,-78.5100,710.2997,284.0812,141.3822,0.3318,-0.0105,5.2040,5.9691,33.6572,32.2206,33.3749,16.7141,10.9073,
2021-05-15T05:00:00Z,2021-05-12T12:00:00Z,Quito_Centro,-0.2200,-78.5100,709.8745,283.7248,118.7325,0.2153,0.0399,3.6783,6.0892,36.5396,25.8749,40.3735,16.8192,10.0492,
2021-05-15T06:00:00Z,2021-05-12T12:00:00Z,Quito_Centro,-0.2200,-78.5100,709.4198,283.4848,104.6658,0.0948,0.0812,3.3795,7.8791,38.4409,25.3051,48.9981,16.9343,9.9326,
2021-05-15T07:00:00Z,2021-05-12T12:00:00Z,Quito_Centro,-0.2200,-78.5100,708.9844,283.2852,117.3019,0.0677,0.0361,3.2904,8.2527,39.6533,21.4406,57.7487,21.5660,9.5378,
2021-05-15T08:00:00Z,2021-05-12T12:00:00Z,Quito_Centro,-0.2200,-78.5100,708.6070,283.0946,92.1488,-0.0275,-0.0175,3.5432,8.5062,39.3365,22.6730,64.4380,17.7662,9.1165,
2021-05-15T09:00:00Z,2021-05-12T12:00:00Z,Quito_Centro,-0.2200,-78.5100,708.5079,282.8704,34.9283,-0.2322,-0.0246,7.5435,7.3588,33.3127,23.1962,61.8156,20.1633,7.5742,
2021-05-15T10:00:00Z,2021-05-12T12:00:00Z,Quito_Centro,-0.2200,-78.5100,708.6931,282.6911,10.7437,-0.5554,0.1049,9.3930,3.6061,30.6783,25.9375,63.8803,16.6702,7.0148,
2021-05-15T11:00:00Z,2021-05-12T12:00:00Z,Quito_Centro,-0.2200,-78.5100,708.9265,282.5748,1.5907,-0.9044,0.4325,12.7512,6.1175,26.4595,28.9766,66.5675,17.4851,7.2343,
2021-05-15T12:00:00Z,2021-05-12T12:00:00Z,Quito_Centro,-0.2200,-78.5100,709.3895,284.1678,0.2421,-1.2523,0.3803,23.9917,6.4411,13.7068,31.9005,38.8799,28.9112,5.3646,
2021-05-15T13:00:00Z,2021-05-12T12:00:00Z,Quito_Centro,-0.2200,-78.5100,709.9061,286.7531,1.4715,-0.6419,-0.4923,32.9854,13.8937,5.7701,28.6411,15.1923,24.1999,2.6614,
2021-05-15T14:00:00Z,2021-05-12T12:00:00Z,Quito_Centro,-0.2200,-78.5100,710.1005,288.4382,11.9954,-0.0003,-1.1641,37.4350,19.9287,3.3199,27.4913,8.6773,21.5767,1.7832,
2021-05-15T15:00:00Z,2021-05-12T12:00:00Z,Quito_Centro,-0.2200,-78.5100,709.9875,289.3230,28.0142,0.2681,-1.5568,42.3030,24.9107,2.2448,23.8689,7.1633,17.7631,1.5910,
2021-05-15T16:00:00Z,2021-05-12T12:00:00Z,Quito_Centro,-0.2200,-78.5100,709.6032,289.8329,42.7961,0.5170,-1.9105,46.1547,33.2407,1.6360,16.8711,6.4215,15.3111,1.6243,
2021-05-15T17:00:00Z,2021-05-12T12:00:00Z,Quito_Centro,-0.2200,-78.5100,709.0254,290.0118,72.4792,1.0296,-2.2673,47.9782,35.7537,1.3876,12.5971,6.2564,14.5090,1.9188,
2021-05-15T18:00:00Z,2021-05-12T12:00:00Z,Quito_Centro,-0.2200,-78.5100,708.5497,289.2137,180.4829,1.6332,-2.5088,49.2309,37.1719,1.4546,13.7685,6.5616,14.8142,3.0619,
2021-05-15T19:00:00Z,2021-05-12T12:00:00Z,Quito_Centro,-0.2200,-78.5100,708.1779,287.9275,368.5951,1.9734,-2.4590,49.3422,34.0817,2.3044,17.9153,7.6800,16.3268,5.3839,
2021-05-15T20:00:00Z,2021-05-12T12:00:00Z,Quito_Centro,-0.2200,-78.5100,707.7852,287.1469,490.1886,1.8485,-2.2590,47.7924,33.2790,3.5075,20.8383,8.8354,19.0557,8.0450,
2021-05-15T21:00:00Z,2021-05-12T12:00:00Z,Quito_Centro,-0.2200,-78.5100,707.6714,286.6114,537.8723,1.5214,-2.0016,44.5551,23.9858,5.1485,26.4379,9.5347,19.7549,13.0645,
2021-05-15T22:00:00Z,2021-05-12T12:00:00Z,Quito_Centro,-0.2200,-78.5100,707.8766,286.0538,467.7773,1.1637,-1.6976,39.2082,20.1651,8.4274,33.1130,10.9149,19.9717,18.3322,
2021-05-15T23:00:00Z,2021-05-12T12:00:00Z,Quito_Centro,-0.2200,-78.5100,708.3179,285.5353,368.1183,0.8586,-1.2790,30.5928,10.8473,15.1783,36.1421,15.5776,23.1945,12.7321,
2021-05-16T00:00:00Z,2021-05-12T12:00:00Z,Quito_Centro,-0.2200,-78.5100,708.8895,285.3086,305.1758,0.6941,-1.0798,22.2091,7.7396,22.0838,40.8295,22.7333,20.3666,9.2137,
2021-05-16T01:00:00Z,2021-05-12T12:00:00Z,Quito_Centro,-0.2200,-78.5100,709.4135,285.1108,237.7033,0.4815,-0.8961,14.4441,5.3282,28.6460,38.0880,30.2026,16.3106,7.2914,
2021-05-16T02:00:00Z,2021-05-12T12:00:00Z,Quito_Centro,-0.2200,-78.5100,709.6862,284.9469,171.6614,0.1769,-0.6761,8.5262,4.2529,33.8467,32.6148,38.4516,18.4561,6.6373,
2021-05-16T03:00:00Z,2021-05-12T12:00:00Z,Quito_Centro,-0.2200,-78.5100,709.7238,284.7298,111.8183,-0.0307,-0.3582,4.8895,6.0232,37.4063,36.6787,46.8880,18.0127,7.2438,
2021-05-16T04:00:00Z,2021-05-12T12:00:00Z,Quito_Centro,-0.2200,-78.5100,709.6413,284.4654,73.7906,-0.0149,-0.2036,3.7200,4.4314,39.0032,34.1366,53.4506,19.7777,7.4208,
2021-05-16T05:00:00Z,2021-05-12T12:00:00Z,Quito_Centro,-0.2200,-78.5100,709.3987,284.1437,52.0945,-0.1194,-0.1868,3.0517,7.6629,39.7978,30.7881,58.7641,20.1153,7.5127,
2021-05-16T06:00:00Z,2021-05-12T12:00:00Z,Quito_Centro,-0.2200,-78.5100,709.1047,283.8668,36.9549,-0.3666,-0.1405,4.3020,9.1452,37.0448,29.4658,60.1405,22.1024,7.1826,
2021-05-16T07:00:00Z,2021-05-12T12:00:00Z,Quito_Centro,-0.2200,-78.5100,708.8228,283.5775,21.8749,-0.5793,0.1795,5.2444,12.2449,35.2165,22.6753,63.7665,18.7420,7.2374,
2021-05-16T08:00:00Z,2021-05-12T12:00:00Z,Quito_Centro,-0.2200,-78.5100,708.6044,283.2347,5.1558,-0.8100,0.4008,6.5260,11.4430,32.3075,25.2403,64.3278,20.7844,7.3798,
2021-05-16T09:00:00Z,2021-05-12T12:00:00Z,Quito_Centro,-0.2200,-78.5100,708.6363,282.9331,1.5497,-0.9464,0.4875,6.4701,8.8116,28.8348,21.0476,57.3893,23.7624,7.3965,
2021-05-16T10:00:00Z,2021-05-12T12:00:00Z,Quito_Centro,-0.2200,-78.5100,708.7947,282.5272,1.1642,-1.0618,0.6336,6.5658,7.7362,27.2669,24.7665,59.2644,21.1001,7.9502,
2021-05-16T11:00:00Z,2021-05-12T12:00:00Z,Quito_Centro,-0.2200,-78.5100,709.1566,282.3732,1.9930,-1.1037,0.6710,9.0531,5.3738,23.6563,29.4223,60.9478,22.7835,8.3716,
2021-05-16T12:00:00Z,2021-05-12T12:00:00Z,Quito_Centro,-0.2200,-78.5100,709.7371,283.8412,3.6918,-1.3466,0.4081,18.8030,4.3089,13.3066,37.2228,41.7591,29.8235,6.0952,
2021-05-16T13:00:00Z,2021-05-12T12:00:00Z,Quito_Centro,-0.2200,-78.5100,710.1387,286.3401,1.7527,-0.9725,-0.6781,28.5854,11.0792,5.7104,31.0277,16.0256,25.2751,2.7363,
2021-05-16T14:00:00Z,2021-05-12T12:00:00Z,Quito_Centro,-0.2200,-78.5100,710.0331,288.6235,2.1867,-0.3130,-1.3838,34.6788,17.2313,3.3967,29.2962,9.3212,21.5990,1.7172,
2021-05-16T15:00:00Z,2021-05-12T12:00:00Z,Quito_Centro,-0.2200,-78.5100,709.6508,289.9626,11.6080,0.3335,-1.7248,40.9560,25.5388,2.3004,23.0768,7.1536,18.7327,1.3872,
2021-05-16T16:00:00Z,2021-05-12T12:00:00Z,Quito_Centro,-0.2200,-78.5100,709.0316,290.2037,39.6967,0.8207,-1.8156,45.9765,32.1548,1.6965,14.9548,6.6077,15.7254,1.4675,
2021-05-16T17:00:00Z,2021-05-12T12:00:00Z,Quito_Centro,-0.2200,-78.5100,708.3664,289.6395,128.7460,0.9430,-1.8005,47.8309,34.0798,1.4817,15.8324,6.4752,14.7278,1.9430,
2021-05-16T18:00:00Z,2021-05-12T12:00:00Z,Quito_Centro,-0.2200,-78.5100,707.7930,288.8125,333.3092,0.9174,-1.7370,46.4467,32.6674,1.5735,14.8594,6.1436,13.5172,2.9076,
2021-05-16T19:00:00Z,2021-05-12T12:00:00Z,Quito_Centro,-0.2200,-78.5100,707.3963,288.0708,567.4362,0.9216,-1.6576,44.0646,30.8490,2.0462,17.1748,6.1031,16.1876,4.5329,
2021-05-16T20:00:00Z,2021-05-12T12:00:00Z,Quito_Centro,-0.2200,-78.5100,707.3002,287.3413,816.3452,0.9217,-1.5401,40.9032,26.6039,3.0271,18.4122,6.4334,15.9333,6.1573,
2021-05-16T21:00:00Z,2021-05-12T12:00:00Z,Quito_Centro,-0.2200,-78.5100,707.5383,286.7192,1066.2079,0.6320,-1.3141,37.2327,17.3786,4.2963,22.4825,6.9274,16.0180,8.4314,
2021-05-16T22:00:00Z,2021-05-12T12:00:00Z,Quito_Centro,-0.2200,-78.5100,708.0234,286.1804,1094.8181,0.3036,-0.9802,32.2571,16.1867,6.7821,28.9370,7.8938,16.2301,13.0746,
2021-05-16T23:00:00Z,2021-05-12T12:00:00Z,Quito_Centro,-0.2200,-78.5100,708.6838,285.7026,852.5848,0.1399,-0.5554,24.9227,9.7212,12.2217,34.5634,10.4716,17.9651,10.7055,
2021-05-17T00:00:00Z,2021-05-12T12:00:00Z,Quito_Centro,-0.2200,-78.5100,709.2241,285.4878,646.5912,0.0976,-0.3103,17.1760,6.2568,18.0803,36.8788,14.2694,17.5863,6.8205,
2021-05-17T01:00:00Z,2021-05-12T12:00:00Z,Quito_Centro,-0.2200,-78.5100,709.6314,285.3285,611.3052,-0.0737,-0.3074,11.0736,3.7173,22.5860,29.2648,18.9104,17.3934,5.3593,
2021-05-17T02:00:00Z,2021-05-12T12:00:00Z,Quito_Centro,-0.2200,-78.5100,709.8699,285.1263,582.6950,-0.1871,-0.2732,5.9295,4.0652,26.8589,26.0079,25.1928,18.9232,4.8789,
2021-05-17T03:00:00Z,2021-05-12T12:00:00Z,Quito_Centro,-0.2200,-78.5100,709.8397,284.8499,531.1966,-0.2850,-0.2469,4.3440,3.9540,29.2111,27.4894,30.6933,14.1815,4.9428,
2021-05-17T04:00:00Z,2021-05-12T12:00:00Z,Quito_Centro,-0.2200,-78.5100,709.6824,284.5411,410.0800,-0.4167,-0.2002,3.8033,4.2166,30.2001,23.8108,34.3182,16.8407,4.9728,
2021-05-17T05:00:00Z,2021-05-12T12:00:00Z,Quito_Centro,-0.2200,-78.5100,709.2455,284.1749,221.4909,-0.5046,-0.0935,3.2605,5.0815,31.0242,22.3119,37.8179,17.7901,5.2101,
2021-05-17T06:00:00Z,2021-05-12T12:00:00Z,Quito_Centro,-0.2200,-78.5100,708.7383,283.7834,85.7115,-0.5199,-0.0606,2.7642,3.9422,31.8088,20.7399,42.1933,16.1272,5.9177,
2021-05-17T07:00:00Z,2021-05-12T12:00:00Z,Quito_Centro,-0.2200,-78.5100,708.3389,283.3459,26.0770,-0.6552,-0.0255,2.4887,3.6678,32.2827,21.2030,46.7559,15.2646,6.4610,
2021-05-17T08:00:00Z,2021-05-12T12:00:00Z,Quito_Centro,-0.2200,-78.5100,708.1016,282.9414,5.7071,-0.8985,0.0968,2.4756,4.6574,32.2375,21.1456,49.4425,18.1210,6.9355,
2021-05-17T09:00:00Z,2021-05-12T12:00:00Z,Quito_Centro,-0.2200,-78.5100,708.1669,282.6936,0.9798,-1.0952,0.2587,2.8095,4.9933,31.5830,20.2920,49.5064,17.3996,7.3914,
2021-05-17T10:00:00Z,2021-05-12T12:00:00Z,Quito_Centro,-0.2200,-78.5100,708.4175,282.5602,0.4726,-1.2728,0.5273,3.5336,4.2662,30.3173,23.9012,47.1955,15.8402,7.3558,
2021-05-17T11:00:00Z,2021-05-12T12:00:00Z,Quito_Centro,-0.2200,-78.5100,708.7512,282.6345,0.2733,-1.3333,0.6990,7.5210,3.8222,25.7205,26.2735,43.3850,16.4105,7.0056,
2021-05-12T12:00:00Z,2021-05-12T12:00:00Z,Quito_Cotocollao,-0.1078,-78.4972,743.5540,286.5079,0.0187,-1.7204,0.2378,33.1830,8.3518,11.9095,22.9437,14.4684,23.1578,3.8367,
2021-05-12T13:00:00Z,2021-05-12T12:00:00Z,Quito_Cotocollao,-0.1078,-78.4972,743.6359,288.6782,0.1767,-2.0621,0.1325,40.7278,19.6396,3.8886,17.9872,5.2362,21.5320,1.9121,
2021-05-12T14:00:00Z,2021-05-12T12:00:00Z,Quito_Cotocollao,-0.1078,-78.4972,743.5236,290.7453,0.4377,-2.0605,-0.0197,43.1821,26.0060,2.0177,15.4885,3.0669,20.4348,1.2355,
2021-05-12T15:00:00Z,2021-05-12T12:00:00Z,Quito_Cotocollao,-0.1078,-78.4972,743.3673,292.4208,0.5160,-1.8905,-0.3517,43.9934,33.5276,1.2804,11.5332,2.4124,15.5511,1.0394,
2021-05-12T16:00:00Z,2021-05-12T12:00:00Z,Quito_Cotocollao,-0.1078,-78.4972,743.1159,293.4386,0.9118,-1.3960,-0.9251,43.6558,32.2373,0.9952,8.9682,2.2988,12.8364,1.1077,
2021-05-12T17:00:00Z,2021-05-12T12:00:00Z,Quito_Cotocollao,-0.1078,-78.4972,742.7835,293.8770,9.1940,-0.7244,-1.3320,43.3164,33.4581,0.9195,8.6320,2.5090,11.2362,1.3437,
2021-05-12T18:00:00Z,2021-05-12T12:00:00Z,Quito_Cotocollao,-0.1078,-78.4972,742.5059,293.7349,31.4116,-0.3376,-1.5846,43.1088,36.1058,0.9400,8.6533,2.8697,11.3334,2.2997,
2021-05-12T19:00:00Z,2021-05-12T12:00:00Z,Quito_Cotocollao,-0.1078,-78.4972,742.3309,293.0389,68.0685,-0.1476,-1.8554,42.0518,35.6465,1.1102,8.8401,3.1621,11.6257,3.7595,
2021-05-12T20:00:00Z,2021-05-12T12:00:00Z,Quito_Cotocollao,-0.1078,-78.4972,742.3814,292.0395,114.6793,-0.1421,-1.9315,39.6786,32.5039,1.5298,9.2867,3.2979,11.7616,3.5691,
2021-05-12T21:00:00Z,2021-05-12T12:00:00Z,Quito_Cotocollao,-0.1078,-78.4972,742.5862,291.1972,160.4557,-0.1385,-1.8362,36.9765,25.6328,1.7862,9.5676,3.1042,11.5678,2.9627,
2021-05-12T22:00:00Z,2021-05-12T12:00:00Z,Quito_Cotocollao,-0.1078,-78.4972,743.0086,290.2983,206.9473,-0.2449,-1.5704,33.9298,19.4771,2.6994,11.8073,3.2251,11.6384,2.7766,
2021-05-12T23:00:00Z,2021-05-12T12:00:00Z,Quito_Cotocollao,-0.1078,-78.4972,743.4063,289.2092,230.3123,-0.3091,-1.0645,30.9662,14.2932,4.0872,12.4358,3.6583,12.0716,3.0216,
2021-05-13T00:00:00Z,2021-05-12T12:00:00Z,Quito_Cotocollao,-0.1078,-78.4972,743.8633,288.4454,240.0875,-0.3428,-0.7886,27.6010,10.0297,6.3013,19.9134,4.7337,10.8693,3.4471,
2021-05-13T01:00:00Z,2021-05-12T12:00:00Z,Quito_Cotocollao,-0.1078,-78.4972,744.2791,287.7299,218.1530,-0.1153,-0.6516,25.6858,8.1198,7.2056,20.3211,5.5725,10.6057,3.6688,
2021-05-13T02:00:00Z,2021-05-12T12:00:00Z,Quito_Cotocollao,-0.1078,-78.4972,744.5461,287.0742,169.2772,0.0413,-0.5726,21.3307,9.6074,10.1583,23.1110,7.8318,12.8649,4.0283,
2021-05-13T03:00:00Z,2021-05-12T12:00:00Z,Quito_Cotocollao,-0.1078,-78.4972,744.5580,286.4702,79.0358,0.0396,-0.4410,15.5462,5.2904,15.1077,19.6889,12.3157,11.6098,5.5072,
2021-05-13T04:00:00Z,2021-05-12T12:00:00Z,Quito_Cotocollao,-0.1078,-78.4972,744.3326,286.0235,32.7826,-0.1579,-0.2976,14.2103,4.6697,17.3685,18.0425,18.7366,9.9741,5.8538,
2021-05-13T05:00:00Z,2021-05-12T12:00:00Z,Quito_Cotocollao,-0.1078,-78.4972,743.8971,285.6145,4.8503,-0.4949,-0.2182,13.6973,7.2278,18.9349,17.0645,23.8296,13.6781,6.0635,
2021-05-13T06:00:00Z,2021-05-12T12:00:00Z,Quito_Cotocollao,-0.1078,-78.4972,743.4180,285.0152,1.0375,-0.8709,-0.0591,12.9724,6.8269,20.7894,16.1604,28.6106,16.9353,6.9796,
2021-05-13T07:00:00Z,2021-05-12T12:00:00Z,Quito_Cotocollao,-0.1078,-78.4972,743.0921,284.5961,0.5262,-1.1224,0.1735,11.9991,7.9902,22.3665,13.6064,33.3909,16.0200,7.6996,
2021-05-13T08:00:00Z,2021-05-12T12:00:00Z,Quito_Cotocollao,-0.1078,-78.4972,742.9159,284.2966,0.2645,-1.2127,0.3446,10.1424,7.0267,24.3202,17.5650,37.0140,13.8492,8.0785,
2021-05-13T09:00:00Z,2021-05-12T12:00:00Z,Quito_Cotocollao,-0.1078,-78.4972,742.9177,283.9741,0.1088,-1.3178,0.4102,8.0660,7.4425,26.4120,19.8763,39.5775,13.3839,8.4284,
2021-05-13T10:00:00Z,2021-05-12T12:00:00Z,Quito_Cotocollao,-0.1078,-78.4972,742.9395,283.5625,0.0637,-1.4433,0.4544,6.7132,4.1034,28.0542,20.4386,41.2009,11.7112,8.4864,
2021-05-13T11:00:00Z,2021-05-12T12:00:00Z,Quito_Cotocollao,-0.1078,-78.4972,743.0974,283.4771,0.0412,-1.4157,0.5418,9.5465,5.1364,25.9160,20.6703,42.1974,28.0519,8.2964,
2021-05-13T12:00:00Z,2021-05-12T12:00:00Z,Quito_Cotocollao,-0.1078,-78.4972,743.3573,285.3438,0.0267,-1.6886,0.6169,21.6884,5.3954,14.1571,14.8629,30.9441,25.1418,6.0912,
2021-05-13T13:00:00Z,2021-05-12T12:00:00Z,Quito_Cotocollao,-0.1078,-78.4972,743.6432,288.4583,0.0484,-1.5609,0.0293,33.8722,13.4192,5.0590,16.9805,9.6746,27.9846,2.6535,
2021-05-13T14:00:00Z,2021-05-12T12:00:00Z,Quito_Cotocollao,-0.1078,-78.4972,743.6871,291.0723,0.2272,-1.4206,-0.5914,39.7946,21.1957,2.4658,14.2809,4.5088,24.1109,1.5150,
2021-05-13T15:00:00Z,2021-05-12T12:00:00Z,Quito_Cotocollao,-0.1078,-78.4972,743.5062,292.8849,0.4787,-1.2551,-1.0310,43.1215,30.2470,1.4255,10.9662,2.9005,21.5947,1.1074,
2021-05-13T16:00:00Z,2021-05-12T12:00:00Z,Quito_Cotocollao,-0.1078,-78.4972,743.0218,294.0049,1.5348,-1.0800,-1.1563,43.9059,32.5108,1.0364,7.7721,2.4733,17.3205,1.0471,
2021-05-13T17:00:00Z,2021-05-12T12:00:00Z,Quito_Cotocollao,-0.1078,-78.4972,742.6440,294.5833,8.6427,-0.5728,-1.5349,43.6280,35.5296,0.9121,7.6311,2.4438,11.1710,1.1537,
2021-05-13T18:00:00Z,2021-05-12T12:00:00Z,Quito_Cotocollao,-0.1078,-78.4972,742.4583,294.4406,25.2426,0.0218,-1.8107,43.8077,35.4434,0.8907,7.6113,2.6927,11.1563,1.8816,
2021-05-13T19:00:00Z,2021-05-12T12:00:00Z,Quito_Cotocollao,-0.1078,-78.4972,742.0776,293.6376,47.0877,0.4353,-1.9328,43.8200,35.3993,1.0287,7.7643,3.0570,11.5206,2.6615,
2021-05-13T20:00:00Z,2021-05-12T12:00:00Z,Quito_Cotocollao,-0.1078,-78.4972,742.0530,291.8138,107.4076,0.7897,-2.0794,42.4689,33.3056,1.2987,8.1176,3.2442,11.7079,2.7839,
2021-05-13T21:00:00Z,2021-05-12T12:00:00Z,Quito_Cotocollao,-0.1078,-78.4972,742.2708,290.1718,146.1506,0.7459,-1.9451,40.2289,29.2657,1.8097,9.1719,3.4455,11.9091,2.5741,
2021-05-13T22:00:00Z,2021-05-12T12:00:00Z,Quito_Cotocollao,-0.1078,-78.4972,742.5312,289.1918,111.9375,0.4485,-1.6243,37.1439,21.4278,2.9974,10.3870,3.8107,12.2240,2.7617,
2021-05-13T23:00:00Z,2021-05-12T12:00:00Z,Quito_Cotocollao,-0.1078,-78.4972,742.8017,288.3090,83.0889,0.2325,-1.1866,33.4185,13.2091,5.1233,12.5383,4.5998,12.3694,2.9981,
2021-05-14T00:00:00Z,2021-05-12T12:00:00Z,Quito_Cotocollao,-0.1078,-78.4972,743.2988,287.6064,74.3866,-0.0507,-0.8019,27.5302,10.5162,9.6128,19.5157,6.8016,10.7793,3.4571,
2021-05-14T01:00:00Z,2021-05-12T12:00:00Z,Quito_Cotocollao,-0.1078,-78.4972,743.6848,287.0818,54.8959,-0.3861,-0.2543,20.0433,5.5917,16.2466,22.5754,10.8753,12.4624,4.1426,
2021-05-14T02:00:00Z,2021-05-12T12:00:00Z,Quito_Cotocollao,-0.1078,-78.4972,744.0115,286.6802,29.0573,-0.5941,-0.0036,20.9959,5.6656,14.0408,21.3710,10.2514,12.4010,4.8776,
2021-05-14T03:00:00Z,2021-05-12T12:00:00Z,Quito_Cotocollao,-0.1078,-78.4972,744.3714,286.3183,18.7457,-0.6262,-0.0148,16.1403,5.3101,18.1259,25.6859,14.2051,11.5416,5.7095,
2021-05-14T04:00:00Z,2021-05-12T12:00:00Z,Quito_Cotocollao,-0.1078,-78.4972,744.4562,285.8867,13.0087,-0.6416,0.0433,14.2414,4.5375,20.6921,19.0722,19.2835,10.7000,6.4152,
2021-05-14T05:00:00Z,2021-05-12T12:00:00Z,Quito_Cotocollao,-0.1078,-78.4972,744.1943,285.4520,8.6278,-0.7082,0.0616,12.8782,6.2451,22.8362,13.1835,24.3472,16.1695,7.1363,
2021-05-14T06:00:00Z,2021-05-12T12:00:00Z,Quito_Cotocollao,-0.1078,-78.4972,743.9501,285.0104,4.7386,-0.8095,0.0865,11.7099,5.6783,24.5032,14.2024,29.3489,13.7933,7.9357,
2021-05-14T07:00:00Z,2021-05-12T12:00:00Z,Quito_Cotocollao,-0.1078,-78.4972,743.6020,284.5486,3.0696,-0.9494,0.2886,9.9671,5.3812,26.5092,18.0395,34.6925,13.0134,8.5466,
2021-05-14T08:00:00Z,2021-05-12T12:00:00Z,Quito_Cotocollao,-0.1078,-78.4972,743.2705,284.0420,2.7046,-1.0674,0.4494,7.1116,5.7254,29.3676,15.8850,40.0045,16.2546,9.0276,
2021-05-14T09:00:00Z,2021-05-12T12:00:00Z,Quito_Cotocollao,-0.1078,-78.4972,743.3213,283.5372,2.8722,-1.1716,0.4227,4.5865,4.6999,31.7436,13.2556,44.3167,15.6201,9.4777,
2021-05-14T10:00:00Z,2021-05-12T12:00:00Z,Quito_Cotocollao,-0.1078,-78.4972,743.4664,283.0289,2.1085,-1.3109,0.5505,3.2495,1.2998,33.1180,13.6809,46.8180,17.5096,9.3456,
2021-05-14T11:00:00Z,2021-05-12T12:00:00Z,Quito_Cotocollao,-0.1078,-78.4972,743.6089,282.9188,0.9835,-1.3867,0.5724,7.6950,3.5705,29.2437,22.2745,47.8211,20.7379,8.9172,
2021-05-14T12:00:00Z,2021-05-12T12:00:00Z,Quito_Cotocollao,-0.1078,-78.4972,743.8553,284.8955,0.1173,-1.6762,0.5400,20.0262,6.3161,16.4591,23.8378,37.7002,41.3215,6.8233,
2021-05-14T13:00:00Z,2021-05-12T12:00:00Z,Quito_Cotocollao,-0.1078,-78.4972,744.1505,288.6014,0.0896,-1.0236,-0.3094,31.0192,9.1243,5.8748,22.2416,12.2186,26.7096,2.7955,
2021-05-14T14:00:00Z,2021-05-12T12:00:00Z,Quito_Cotocollao,-0.1078,-78.4972,744.1722,291.3371,0.2412,-0.0970,-1.0397,37.8531,22.2775,3.0487,19.9158,6.4527,26.9485,1.6865,
2021-05-14T15:00:00Z,2021-05-12T12:00:00Z,Quito_Cotocollao,-0.1078,-78.4972,744.0226,292.7937,2.2165,0.7597,-1.6470,44.0615,36.3364,1.9256,15.8989,5.0370,22.7538,1.3818,
2021-05-14T16:00:00Z,2021-05-12T12:00:00Z,Quito_Cotocollao,-0.1078,-78.4972,743.7280,292.9831,15.1098,1.3072,-2.0805,47.5130,43.4088,1.3718,9.1177,4.7617,19.1188,1.5529,
2021-05-14T17:00:00Z,2021-05-12T12:00:00Z,Quito_Cotocollao,-0.1078,-78.4972,743.3618,292.0084,82.4928,1.7647,-2.2281,48.5035,44.7848,1.1208,8.8887,4.8226,15.7504,2.4325,
2021-05-14T18:00:00Z,2021-05-12T12:00:00Z,Quito_Cotocollao,-0.1078,-78.4972,743.0031,290.5179,251.7700,2.1157,-2.1771,48.1273,44.1592,1.1775,7.6842,5.1182,14.7375,4.6654,
2021-05-14T19:00:00Z,2021-05-12T12:00:00Z,Quito_Cotocollao,-0.1078,-78.4972,742.5162,289.3879,427.7229,2.2335,-1.9750,46.9040,39.2202,1.7016,8.3758,5.7661,14.2672,7.4881,
2021-05-14T20:00:00Z,2021-05-12T12:00:00Z,Quito_Cotocollao,-0.1078,-78.4972,742.1724,288.6352,545.5017,2.2151,-1.7957,45.3628,37.6954,2.5126,6.8519,6.5081,15.0092,10.2676,
2021-05-14T21:00:00Z,2021-05-12T12:00:00Z,Quito_Cotocollao,-0.1078,-78.4972,742.2158,287.9966,632.2861,1.9779,-1.6963,43.6474,36.5445,3.5117,7.8608,7.3131,14.6950,14.3430,
2021-05-14T22:00:00Z,2021-05-12T12:00:00Z,Quito_Cotocollao,-0.1078,-78.4972,742.5161,287.4364,633.2397,1.6585,-1.5478,41.4498,27.3823,5.1577,10.0293,8.4620,14.1983,21.6782,
2021-05-14T23:00:00Z,2021-05-12T12:00:00Z,Quito_Cotocollao,-0.1078,-78.4972,743.0439,286.9046,582.6950,1.4004,-1.3673,38.5537,16.1335,7.5792,14.5139,10.3653,12.8187,12.6855,
2021-05-15T00:00:00Z,2021-05-12T12:00:00Z,Quito_Cotocollao,-0.1078,-78.4972,743.7383,286.6482,511.1694,1.4357,-1.1268,36.1830,10.0537,9.3477,21.4512,12.4735,15.4629,7.1960,
2021-05-15T01:00:00Z,2021-05-12T12:00:00Z,Quito_Cotocollao,-0.1078,-78.4972,744.4149,286.4617,497.8180,1.4744,-0.7981,33.8381,6.8555,10.7745,23.4624,14.5685,16.3769,4.9516,
2021-05-15T02:00:00Z,2021-05-12T12:00:00Z,Quito_Cotocollao,-0.1078,-78.4972,744.9442,286.2849,557.8995,1.4246,-0.5388,30.4729,9.5357,12.9257,19.7818,17.1608,15.9362,4.0212,
2021-05-15T03:00:00Z,2021-05-12T12:00:00Z,Quito_Cotocollao,-0.1078,-78.4972,745.1572,286.1401,384.3307,1.2493,-0.4821,26.4716,16.2783,15.2002,22.1776,20.0646,14.6966,4.1769,
2021-05-15T04:00:00Z,2021-05-12T12:00:00Z,Quito_Cotocollao,-0.1078,-78.4972,745.0547,285.8937,241.0412,1.0110,-0.4949,21.6305,16.3129,18.3583,14.1925,24.9687,11.2773,3.9806,
2021-05-15T05:00:00Z,2021-05-12T12:00:00Z,Quito_Cotocollao,-0.1078,-78.4972,744.6444,285.6935,203.6095,0.8706,-0.4152,19.7506,18.0962,20.3126,15.8064,30.6235,9.3312,3.7409,
2021-05-15T06:00:00Z,2021-05-12T12:00:00Z,Quito_Cotocollao,-0.1078,-78.4972,744.1798,285.4223,181.4365,0.6563,-0.3290,19.5818,18.0632,21.6207,17.8145,36.3731,11.7929,4.1554,
2021-05-15T07:00:00Z,2021-05-12T12:00:00Z,Quito_Cotocollao,-0.1078,-78.4972,743.7493,285.2227,184.2976,0.5990,-0.3721,19.6499,14.6863,22.6310,15.4330,41.7487,11.7704,3.9062,
2021-05-15T08:00:00Z,2021-05-12T12:00:00Z,Quito_Cotocollao,-0.1078,-78.4972,743.3320,285.0321,130.4150,0.5429,-0.3925,19.4987,13.3040,23.0953,14.6714,47.0005,13.7934,3.8923,
2021-05-15T09:00:00Z,2021-05-12T12:00:00Z,Quito_Cotocollao,-0.1078,-78.4972,743.2230,284.9016,45.9552,0.3704,-0.3175,19.2198,11.4636,23.3125,17.0780,52.3781,12.7953,4.7439,
2021-05-15T10:00:00Z,2021-05-12T12:00:00Z,Quito_Cotocollao,-0.1078,-78.4972,743.4131,284.7849,13.3663,-0.0427,-0.0826,18.6844,8.2819,23.2860,16.1356,57.8178,14.5182,5.0939,
2021-05-15T11:00:00Z,2021-05-12T12:00:00Z,Quito_Cotocollao,-0.1078,-78.4972,743.6614,284.7623,2.1271,-0.5880,0.2835,19.7671,7.1335,21.1931,19.9471,63.4425,22.4784,5.7209,
2021-05-15T12:00:00Z,2021-05-12T12:00:00Z,Quito_Cotocollao,-0.1078,-78.4972,744.1145,286.3553,0.2570,-0.8421,0.1000,28.4231,10.4153,11.4227,11.3420,36.6299,23.4354,4.2150,
2021-05-15T13:00:00Z,2021-05-12T12:00:00Z,Quito_Cotocollao,-0.1078,-78.4972,744.5461,289.0968,2.0638,0.1032,-0.8556,37.2137,15.7728,4.7585,18.1000,14.2080,27.3789,2.3194,
2021-05-15T14:00:00Z,2021-05-12T12:00:00Z,Quito_Cotocollao,-0.1078,-78.4972,744.6505,290.6882,11.3696,1.1315,-1.5235,41.3197,22.1962,2.5522,16.4400,8.2086,23.4399,1.7813,
2021-05-15T15:00:00Z,2021-05-12T12:00:00Z,Quito_Cotocollao,-0.1078,-78.4972,744.5475,291.3230,30.2494,1.5919,-1.8029,44.9164,44.8864,1.6255,15.1573,6.5852,22.0453,1.7584,
2021-05-15T16:00:00Z,2021-05-12T12:00:00Z,Quito_Cotocollao,-0.1078,-78.4972,744.1632,291.5204,48.5182,1.8900,-1.9612,47.3504,38.4482,1.1419,9.7027,5.8512,20.2083,1.9899,
2021-05-15T17:00:00Z,2021-05-12T12:00:00Z,Quito_Cotocollao,-0.1078,-78.4972,743.6354,291.3868,93.9369,2.2562,-2.1853,48.1103,40.5087,0.9272,7.4851,5.6236,15.5064,2.4827,
2021-05-15T18:00:00Z,2021-05-12T12:00:00Z,Quito_Cotocollao,-0.1078,-78.4972,743.1597,290.4012,208.8547,2.5980,-2.2003,48.5007,39.4442,0.9722,7.5482,5.8976,15.5168,3.6877,
2021-05-15T19:00:00Z,2021-05-12T12:00:00Z,Quito_Cotocollao,-0.1078,-78.4972,742.7579,289.4275,370.0256,2.7234,-1.9395,48.2064,42.6215,1.5160,6.2514,6.7503,14.8962,5.9296,
2021-05-15T20:00:00Z,2021-05-12T12:00:00Z,Quito_Cotocollao,-0.1078,-78.4972,742.3352,288.8656,413.8947,2.5985,-1.6574,47.1501,39.7260,2.0405,7.8413,7.1714,15.3173,7.3393,
2021-05-15T21:00:00Z,2021-05-12T12:00:00Z,Quito_Cotocollao,-0.1078,-78.4972,742.2215,288.3614,389.0991,2.3300,-1.4352,45.4954,38.7581,2.7923,9.9077,7.4097,14.7915,10.3142,
2021-05-15T22:00:00Z,2021-05-12T12:00:00Z,Quito_Cotocollao,-0.1078,-78.4972,742.4366,287.7726,314.2357,1.9195,-1.1703,43.0875,27.0357,4.1749,11.7424,8.1337,14.6729,14.3159,
2021-05-15T23:00:00Z,2021-05-12T12:00:00Z,Quito_Cotocollao,-0.1078,-78.4972,742.9379,287.1290,256.5384,1.3943,-0.8903,39.1702,19.5602,6.9264,17.5120,10.3276,12.5227,9.9527,
2021-05-16T00:00:00Z,2021-05-12T12:00:00Z,Quito_Cotocollao,-0.1078,-78.4972,743.5095,286.9336,239.8491,1.0525,-0.7067,34.9604,13.0062,9.9405,25.4647,13.9521,17.0343,7.1910,
2021-05-16T01:00:00Z,2021-05-12T12:00:00Z,Quito_Cotocollao,-0.1078,-78.4972,744.0535,286.7670,210.7620,0.7907,-0.4898,29.8621,11.2620,13.7658,26.8353,18.1713,16.3912,5.6179,
2021-05-16T02:00:00Z,2021-05-12T12:00:00Z,Quito_Cotocollao,-0.1078,-78.4972,744.3461,286.6656,166.8930,0.5244,-0.3050,24.7801,12.2020,17.6017,26.3061,23.2641,14.5302,4.8983,
2021-05-16T03:00:00Z,2021-05-12T12:00:00Z,Quito_Cotocollao,-0.1078,-78.4972,744.3837,286.4485,125.6466,0.4685,-0.1179,21.0452,12.2836,21.0888,17.3326,29.4192,12.8321,5.2356,
2021-05-16T04:00:00Z,2021-05-12T12:00:00Z,Quito_Cotocollao,-0.1078,-78.4972,744.3413,286.2466,106.5731,0.5564,-0.2290,19.1146,10.4403,23.1960,18.7038,35.5756,11.3601,5.0415,
2021-05-16T05:00:00Z,2021-05-12T12:00:00Z,Quito_Cotocollao,-0.1078,-78.4972,744.0986,286.0187,117.0635,0.4522,-0.3040,17.5500,10.7023,24.5055,15.2290,42.0766,15.7321,4.7988,
2021-05-16T06:00:00Z,2021-05-12T12:00:00Z,Quito_Cotocollao,-0.1078,-78.4972,743.7247,285.8668,109.3149,0.2455,-0.1717,16.1080,11.3851,25.3440,15.6379,49.3280,16.9247,5.3637,
2021-05-16T07:00:00Z,2021-05-12T12:00:00Z,Quito_Cotocollao,-0.1078,-78.4972,743.3728,285.7025,119.6861,0.0623,0.1385,14.6670,12.9348,26.1845,17.4956,57.4540,15.6732,5.6512,
2021-05-16T08:00:00Z,2021-05-12T12:00:00Z,Quito_Cotocollao,-0.1078,-78.4972,743.1444,285.5472,117.8980,-0.1068,0.1977,12.6371,11.7222,27.1126,13.8253,65.0778,14.9342,6.3030,
2021-05-16T09:00:00Z,2021-05-12T12:00:00Z,Quito_Cotocollao,-0.1078,-78.4972,743.2063,285.4331,128.7460,-0.2585,0.0530,11.1339,9.3978,25.3648,16.1417,62.9518,12.8082,6.6034,
2021-05-16T10:00:00Z,2021-05-12T12:00:00Z,Quito_Cotocollao,-0.1078,-78.4972,743.3747,285.2460,167.8467,-0.4065,-0.0002,10.3891,6.1273,24.5480,19.3091,66.7019,18.2103,7.1643,
2021-05-16T11:00:00Z,2021-05-12T12:00:00Z,Quito_Cotocollao,-0.1078,-78.4972,743.7766,285.1857,191.6885,-0.5754,-0.0653,11.4500,6.8237,22.2568,19.8722,69.1978,21.7352,7.8769,
2021-05-16T12:00:00Z,2021-05-12T12:00:00Z,Quito_Cotocollao,-0.1078,-78.4972,744.4371,286.0600,130.8918,-0.7972,-0.3673,19.0228,11.4361,13.3251,19.7763,47.6966,25.1317,6.0152,
2021-05-16T13:00:00Z,2021-05-12T12:00:00Z,Quito_Cotocollao,-0.1078,-78.4972,744.8187,287.9963,46.7300,-0.4129,-1.0726,28.3750,12.3412,5.4031,19.6026,18.8537,27.2761,3.0528,
2021-05-16T14:00:00Z,2021-05-12T12:00:00Z,Quito_Cotocollao,-0.1078,-78.4972,744.6331,290.2485,33.9150,0.3237,-1.6612,35.3030,23.9616,2.7625,20.5216,9.9775,31.2964,2.0083,
2021-05-16T15:00:00Z,2021-05-12T12:00:00Z,Quito_Cotocollao,-0.1078,-78.4972,744.1708,291.8376,39.2199,1.1967,-2.0745,40.6586,38.8430,1.6860,15.0720,6.7786,24.4954,1.5945,
2021-05-16T16:00:00Z,2021-05-12T12:00:00Z,Quito_Cotocollao,-0.1078,-78.4972,743.5516,291.8287,54.6575,1.8598,-2.1887,44.6073,36.4250,1.1910,9.1034,5.8187,18.9717,1.7313,
2021-05-16T17:00:00Z,2021-05-12T12:00:00Z,Quito_Cotocollao,-0.1078,-78.4972,742.9064,290.7957,158.5484,2.0016,-2.1306,45.9288,36.9188,1.0477,7.6126,5.6158,15.4986,2.2886,
2021-05-16T18:00:00Z,2021-05-12T12:00:00Z,Quito_Cotocollao,-0.1078,-78.4972,742.3730,289.6563,432.0145,1.9448,-2.0026,44.8706,34.5570,1.2148,7.7590,5.5811,14.0822,3.5152,
2021-05-16T19:00:00Z,2021-05-12T12:00:00Z,Quito_Cotocollao,-0.1078,-78.4972,741.9763,289.0083,734.3292,1.9021,-1.9389,43.0492,40.7827,1.6070,6.0141,5.6734,14.1745,5.3914,
2021-05-16T20:00:00Z,2021-05-12T12:00:00Z,Quito_Cotocollao,-0.1078,-78.4972,741.8602,288.5600,953.6743,1.8631,-1.8370,40.8632,33.3554,2.2742,6.6874,6.0506,13.7099,7.3724,
2021-05-16T21:00:00Z,2021-05-12T12:00:00Z,Quito_Cotocollao,-0.1078,-78.4972,742.0784,288.1254,1087.1887,1.6144,-1.6695,38.6001,29.8072,3.0896,7.5107,6.5758,13.5914,10.3523,
2021-05-16T22:00:00Z,2021-05-12T12:00:00Z,Quito_Cotocollao,-0.1078,-78.4972,742.5834,287.6492,991.8213,1.3095,-1.3981,35.5240,22.7913,4.7803,9.1028,7.5813,14.0188,15.6794,
2021-05-16T23:00:00Z,2021-05-12T12:00:00Z,Quito_Cotocollao,-0.1078,-78.4972,743.2438,287.3276,768.6615,1.0423,-1.0554,31.3361,14.8877,7.7367,15.6851,9.4559,12.3776,10.8801,
2021-05-17T00:00:00Z,2021-05-12T12:00:00Z,Quito_Cotocollao,-0.1078,-78.4972,743.8241,287.1753,664.7110,0.8535,-0.8963,26.9817,12.4198,10.5203,22.0452,12.1913,15.3892,6.8351,
2021-05-17T01:00:00Z,2021-05-12T12:00:00Z,Quito_Cotocollao,-0.1078,-78.4972,744.2914,287.0785,667.5720,0.5748,-0.8660,21.8676,11.3384,13.8597,15.3186,16.4104,16.5905,4.9955,
2021-05-17T02:00:00Z,2021-05-12T12:00:00Z,Quito_Cotocollao,-0.1078,-78.4972,744.5299,286.9700,618.9346,0.3842,-0.7149,17.6763,9.6628,17.2322,17.1828,22.0053,14.9327,4.1949,
2021-05-17T03:00:00Z,2021-05-12T12:00:00Z,Quito_Cotocollao,-0.1078,-78.4972,744.4797,286.8187,562.6678,0.2355,-0.5926,16.2671,7.6887,19.2045,15.9745,27.2870,15.8138,4.1934,
2021-05-17T04:00:00Z,2021-05-12T12:00:00Z,Quito_Cotocollao,-0.1078,-78.4972,744.2824,286.6036,463.0089,0.1370,-0.5336,15.2500,8.4789,20.0292,13.2649,31.0994,16.7423,3.9978,
2021-05-17T05:00:00Z,2021-05-12T12:00:00Z,Quito_Cotocollao,-0.1078,-78.4972,743.8455,286.3624,284.1949,0.0950,-0.3918,14.2062,12.3411,20.7035,14.5130,35.0054,14.8212,4.1260,
2021-05-17T06:00:00Z,2021-05-12T12:00:00Z,Quito_Cotocollao,-0.1078,-78.4972,743.3583,286.0334,122.7856,0.0231,-0.3042,13.3179,11.5878,21.1950,15.2400,39.6933,17.4645,4.8045,
2021-05-17T07:00:00Z,2021-05-12T12:00:00Z,Quito_Cotocollao,-0.1078,-78.4972,742.9589,285.6584,59.2470,-0.3164,-0.2420,12.5198,10.8397,21.4836,14.1741,44.1934,17.0837,5.0568,
2021-05-17T08:00:00Z,2021-05-12T12:00:00Z,Quito_Cotocollao,-0.1078,-78.4972,742.7216,285.2226,9.5814,-0.6874,-0.1888,11.7255,10.0737,21.7192,15.4297,47.0675,16.2807,5.4948,
2021-05-17T09:00:00Z,2021-05-12T12:00:00Z,Quito_Cotocollao,-0.1078,-78.4972,742.8069,284.8186,0.9816,-0.9687,-0.1368,10.9219,6.9167,22.0045,16.4433,48.3814,17.4478,6.2854,
2021-05-17T10:00:00Z,2021-05-12T12:00:00Z,Quito_Cotocollao,-0.1078,-78.4972,743.0576,284.4664,0.3371,-1.2191,0.0663,10.1551,5.4581,22.2915,18.0621,47.8205,17.0337,6.5773,
2021-05-17T11:00:00Z,2021-05-12T12:00:00Z,Quito_Cotocollao,-0.1078,-78.4972,743.3513,284.5407,0.2205,-1.2488,0.2327,11.0286,3.1019,21.2008,20.7819,46.4475,22.6538,6.5836,
2021-05-12T12:00:00Z,2021-05-12T12:00:00Z,Quito_Guamani,-0.3308,-78.5514,708.9741,283.8204,0.1201,-2.3590,0.9805,31.5617,18.7870,11.4028,14.3667,13.9841,16.5659,3.1018,
2021-05-12T13:00:00Z,2021-05-12T12:00:00Z,Quito_Guamani,-0.3308,-78.5514,709.0759,285.7407,0.4964,-3.0445,1.1364,37.3580,24.6492,3.8359,9.6794,4.8299,18.5620,1.5338,
2021-05-12T14:00:00Z,2021-05-12T12:00:00Z,Quito_Guamani,-0.3308,-78.5514,709.1236,287.4953,1.1679,-3.2324,1.0115,38.9146,32.1780,2.1422,7.9504,2.8794,16.6115,1.0499,
2021-05-12T15:00:00Z,2021-05-12T12:00:00Z,Quito_Guamani,-0.3308,-78.5514,709.0923,288.9521,1.6857,-3.1327,0.7342,40.0361,33.0120,1.4867,7.3795,2.3968,16.8773,0.9348,
2021-05-12T16:00:00Z,2021-05-12T12:00:00Z,Quito_Guamani,-0.3308,-78.5514,708.9109,289.9386,3.2224,-2.6245,0.1960,40.5469,34.6441,1.2475,7.7093,2.3769,16.8574,1.0077,
2021-05-12T17:00:00Z,2021-05-12T12:00:00Z,Quito_Guamani,-0.3308,-78.5514,708.6160,290.5020,11.9507,-1.8387,-0.3711,40.9433,36.5154,1.2114,11.3178,2.6261,17.1067,1.1964,
2021-05-12T18:00:00Z,2021-05-12T12:00:00Z,Quito_Guamani,-0.3308,-78.5514,708.2672,290.6724,38.9814,-1.2370,-0.6783,41.3495,36.9264,1.2825,11.3801,3.0182,17.4987,1.8341,
2021-05-12T19:00:00Z,2021-05-12T12:00:00Z,Quito_Guamani,-0.3308,-78.5514,708.0283,290.4139,78.5589,-0.9206,-1.0859,40.8808,35.2582,1.5408,10.3927,3.4238,17.9043,2.6790,
2021-05-12T20:00:00Z,2021-05-12T12:00:00Z,Quito_Guamani,-0.3308,-78.5514,708.0339,289.6020,120.4014,-0.7139,-1.5096,39.0240,35.0630,2.1627,12.0980,3.8487,14.3833,2.7469,
2021-05-12T21:00:00Z,2021-05-12T12:00:00Z,Quito_Guamani,-0.3308,-78.5514,708.2961,288.5097,169.2772,-0.5667,-1.6800,35.9276,26.7850,3.1328,16.9844,4.1432,15.4352,3.0427,
2021-05-12T22:00:00Z,2021-05-12T12:00:00Z,Quito_Guamani,-0.3308,-78.5514,708.6986,287.3608,207.4242,-0.6004,-1.5196,31.4093,17.0692,5.2219,22.0119,4.8071,16.0238,2.7911,
2021-05-12T23:00:00Z,2021-05-12T12:00:00Z,Quito_Guamani,-0.3308,-78.5514,709.0613,286.2717,208.1394,-0.7906,-1.0919,25.5522,10.0740,8.9834,25.9030,6.0606,18.4030,3.0034,
2021-05-13T00:00:00Z,2021-05-12T12:00:00Z,Quito_Guamani,-0.3308,-78.5514,709.3633,285.5704,208.8547,-0.9561,-0.8511,18.5099,7.9559,14.4589,28.3096,8.4993,22.3869,3.5380,
2021-05-13T01:00:00Z,2021-05-12T12:00:00Z,Quito_Guamani,-0.3308,-78.5514,709.7592,285.0736,197.8874,-0.8853,-0.6672,14.8713,6.9844,17.1381,26.3028,10.2678,21.8924,3.8361,
2021-05-13T02:00:00Z,2021-05-12T12:00:00Z,Quito_Guamani,-0.3308,-78.5514,710.0110,284.6367,161.4094,-0.8039,-0.4554,9.7339,5.0154,21.5284,27.3187,13.5974,16.3620,4.3630,
2021-05-13T03:00:00Z,2021-05-12T12:00:00Z,Quito_Guamani,-0.3308,-78.5514,709.9680,284.1889,76.6516,-0.7111,-0.2008,3.7830,3.0034,27.5546,20.1738,19.2376,18.4997,6.0456,
2021-05-13T04:00:00Z,2021-05-12T12:00:00Z,Quito_Guamani,-0.3308,-78.5514,709.7526,283.6485,31.4116,-0.7169,0.0637,2.5094,9.1583,30.9831,18.3690,26.7054,17.0461,6.8288,
2021-05-13T05:00:00Z,2021-05-12T12:00:00Z,Quito_Guamani,-0.3308,-78.5514,709.3171,283.1770,6.8396,-0.8553,0.2391,2.6357,10.5046,32.9113,15.9814,32.8296,16.7354,7.1621,
2021-05-13T06:00:00Z,2021-05-12T12:00:00Z,Quito_Guamani,-0.3308,-78.5514,708.8280,282.6402,2.2352,-1.0252,0.4300,3.1710,8.5293,33.9202,16.0364,37.4544,11.2320,7.8309,
2021-05-13T07:00:00Z,2021-05-12T12:00:00Z,Quito_Guamani,-0.3308,-78.5514,708.5321,282.1898,1.0300,-1.2083,0.6572,4.2561,7.6691,33.2728,15.5139,40.5784,15.5100,8.1361,
2021-05-13T08:00:00Z,2021-05-12T12:00:00Z,Quito_Guamani,-0.3308,-78.5514,708.3459,281.7654,0.3506,-1.3377,0.8289,5.7235,10.6941,31.4522,13.6812,41.0765,15.4085,7.8457,
2021-05-13T09:00:00Z,2021-05-12T12:00:00Z,Quito_Guamani,-0.3308,-78.5514,708.2977,281.4741,0.1700,-1.4780,0.8701,7.2088,12.7428,29.3351,17.0423,39.9525,13.5565,7.5990,
2021-05-13T10:00:00Z,2021-05-12T12:00:00Z,Quito_Guamani,-0.3308,-78.5514,708.3494,281.1875,0.1276,-1.5761,0.9124,8.4017,6.0724,27.7447,25.1756,38.3259,15.9195,7.2859,
2021-05-13T11:00:00Z,2021-05-12T12:00:00Z,Quito_Guamani,-0.3308,-78.5514,708.4624,281.3209,0.0912,-1.5055,0.9959,12.4611,7.1209,23.8837,21.9564,36.3224,25.5318,6.7757,
2021-05-13T12:00:00Z,2021-05-12T12:00:00Z,Quito_Guamani,-0.3308,-78.5514,708.7473,283.4063,0.0476,-1.8371,1.1079,22.6478,12.4257,12.7648,14.4504,25.2254,26.7646,4.8689,
2021-05-13T13:00:00Z,2021-05-12T12:00:00Z,Quito_Guamani,-0.3308,-78.5514,709.0882,285.9896,0.0329,-2.2875,0.8186,31.8272,20.7884,4.6111,10.4991,7.8778,14.6725,2.1369,
2021-05-13T14:00:00Z,2021-05-12T12:00:00Z,Quito_Guamani,-0.3308,-78.5514,709.2321,288.1973,0.5523,-2.5143,0.3055,35.9727,25.7657,2.4790,8.3884,3.8174,12.8334,1.2695,
2021-05-13T15:00:00Z,2021-05-12T12:00:00Z,Quito_Guamani,-0.3308,-78.5514,709.1912,289.7911,1.6429,-2.3801,-0.0969,39.0211,32.5354,1.6402,8.0988,2.7716,11.7876,1.0001,
2021-05-13T16:00:00Z,2021-05-12T12:00:00Z,Quito_Guamani,-0.3308,-78.5514,708.8593,290.7862,7.6443,-2.1738,-0.2574,40.6716,34.3959,1.3125,8.5968,2.5865,12.3510,0.9707,
2021-05-13T17:00:00Z,2021-05-12T12:00:00Z,Quito_Guamani,-0.3308,-78.5514,708.4691,291.4583,16.4509,-1.7173,-0.5779,41.2906,34.7680,1.2072,8.4708,2.6235,12.3879,1.0518,
2021-05-13T18:00:00Z,2021-05-12T12:00:00Z,Quito_Guamani,-0.3308,-78.5514,708.2607,291.5031,32.7229,-1.0036,-0.9982,42.3743,36.9541,1.2372,10.0590,2.9505,12.7150,1.5705,
2021-05-13T19:00:00Z,2021-05-12T12:00:00Z,Quito_Guamani,-0.3308,-78.5514,707.8076,291.0751,51.1408,-0.6858,-1.1945,43.0632,36.4638,1.4658,10.2949,3.4007,13.1652,2.2177,
2021-05-13T20:00:00Z,2021-05-12T12:00:00Z,Quito_Guamani,-0.3308,-78.5514,707.6130,289.8763,97.7516,-0.4545,-1.6028,41.8759,34.5839,1.9211,11.8410,3.7169,13.4814,2.2928,
2021-05-13T21:00:00Z,2021-05-12T12:00:00Z,Quito_Guamani,-0.3308,-78.5514,707.7733,288.4843,130.8918,-0.3263,-1.8045,38.7073,23.1052,3.0221,16.8648,4.1408,15.4327,2.1884,
2021-05-13T22:00:00Z,2021-05-12T12:00:00Z,Quito_Guamani,-0.3308,-78.5514,708.0712,287.2856,114.2025,-0.3483,-1.5696,34.2057,16.2979,4.9062,21.1628,4.6896,16.6763,2.4706,
2021-05-13T23:00:00Z,2021-05-12T12:00:00Z,Quito_Guamani,-0.3308,-78.5514,708.3517,286.3715,91.5527,-0.4472,-1.0577,29.2582,11.7999,7.7466,24.5864,5.6311,17.6178,2.8817,
2021-05-14T00:00:00Z,2021-05-12T12:00:00Z,Quito_Guamani,-0.3308,-78.5514,708.8313,285.7001,90.4799,-0.6816,-0.7042,22.5937,6.2905,12.7037,27.0643,7.9344,21.8219,3.5590,
2021-05-14T01:00:00Z,2021-05-12T12:00:00Z,Quito_Guamani,-0.3308,-78.5514,709.3022,285.0193,69.6182,-0.9174,-0.1371,15.3036,5.2965,19.3943,31.3126,11.9378,19.6229,4.3972,
2021-05-14T02:00:00Z,2021-05-12T12:00:00Z,Quito_Guamani,-0.3308,-78.5514,709.5815,284.5865,37.6105,-1.0316,0.2113,14.9978,5.6498,18.9296,24.1437,11.9077,17.9310,5.2414,
2021-05-14T03:00:00Z,2021-05-12T12:00:00Z,Quito_Guamani,-0.3308,-78.5514,709.8614,284.1620,22.9776,-0.9993,0.3192,9.0870,8.4268,24.8179,19.2407,16.9082,18.7141,6.1679,
2021-05-14T04:00:00Z,2021-05-12T12:00:00Z,Quito_Guamani,-0.3308,-78.5514,709.9086,283.6679,15.3482,-0.9580,0.4339,6.8644,13.9680,28.4088,13.6401,22.7835,16.7100,6.9173,
2021-05-14T05:00:00Z,2021-05-12T12:00:00Z,Quito_Guamani,-0.3308,-78.5514,709.5918,283.1707,10.2073,-0.9660,0.5450,5.9576,10.5307,30.5038,17.2144,27.9722,16.9265,7.4418,
2021-05-14T06:00:00Z,2021-05-12T12:00:00Z,Quito_Guamani,-0.3308,-78.5514,709.3051,282.6354,6.8769,-1.0556,0.5611,5.7662,11.3095,31.3574,15.3366,32.5676,14.7330,7.9211,
2021-05-14T07:00:00Z,2021-05-12T12:00:00Z,Quito_Guamani,-0.3308,-78.5514,708.9920,282.1111,4.3958,-1.1643,0.7413,6.3234,11.0904,30.9972,15.5884,36.3175,14.1671,8.1246,
2021-05-14T08:00:00Z,2021-05-12T12:00:00Z,Quito_Guamani,-0.3308,-78.5514,708.6455,281.6045,2.6859,-1.2354,0.9516,7.5154,10.7889,29.6196,14.9458,38.3795,13.0428,7.9217,
2021-05-14T09:00:00Z,2021-05-12T12:00:00Z,Quito_Guamani,-0.3308,-78.5514,708.6313,281.2872,1.5460,-1.2575,0.9400,8.6773,11.8851,28.1515,15.2219,39.3167,13.2606,7.7315,
2021-05-14T10:00:00Z,2021-05-12T12:00:00Z,Quito_Guamani,-0.3308,-78.5514,708.7914,281.0602,0.8652,-1.3304,1.0283,9.4277,7.2823,27.0436,20.1117,39.1930,19.5949,7.3593,
2021-05-14T11:00:00Z,2021-05-12T12:00:00Z,Quito_Guamani,-0.3308,-78.5514,708.9189,281.1688,0.3693,-1.3672,1.0441,13.0901,7.6466,23.1813,21.1962,37.7586,23.0474,6.8436,
2021-05-14T12:00:00Z,2021-05-12T12:00:00Z,Quito_Guamani,-0.3308,-78.5514,709.1828,283.2705,0.0209,-1.6645,1.0824,21.7051,12.0250,13.2423,16.4569,29.1377,20.9108,5.2662,
2021-05-14T13:00:00Z,2021-05-12T12:00:00Z,Quito_Guamani,-0.3308,-78.5514,709.5305,286.2577,0.0204,-1.5979,0.4425,30.0265,18.7044,5.0187,11.1666,9.3279,16.8928,2.1480,
2021-05-14T14:00:00Z,2021-05-12T12:00:00Z,Quito_Guamani,-0.3308,-78.5514,709.6697,288.5871,1.0151,-1.0989,-0.1764,34.9547,25.0792,2.9747,11.7893,5.1949,14.9810,1.3664,
2021-05-14T15:00:00Z,2021-05-12T12:00:00Z,Quito_Guamani,-0.3308,-78.5514,709.5826,290.0437,13.1428,-0.4591,-0.7505,39.8719,33.2083,2.1740,11.7418,4.4510,14.2371,1.1690,
2021-05-14T16:00:00Z,2021-05-12T12:00:00Z,Quito_Guamani,-0.3308,-78.5514,709.2480,290.6081,39.4583,0.0457,-1.2641,44.6143,37.4282,1.7291,11.2739,4.6758,14.4619,1.2455,
2021-05-14T17:00:00Z,2021-05-12T12:00:00Z,Quito_Guamani,-0.3308,-78.5514,708.8018,290.2584,98.4669,0.5406,-1.6616,47.1018,42.0016,1.5236,11.0739,5.0413,15.5759,1.7885,
2021-05-14T18:00:00Z,2021-05-12T12:00:00Z,Quito_Guamani,-0.3308,-78.5514,708.3506,289.2679,242.9485,1.0757,-2.0170,47.8090,46.8619,1.6388,13.6101,5.4620,16.7153,3.5777,
2021-05-14T19:00:00Z,2021-05-12T12:00:00Z,Quito_Guamani,-0.3308,-78.5514,707.9113,288.0129,450.1343,1.3702,-2.0688,46.9138,39.4859,2.3103,16.6732,6.1802,17.5442,6.2512,
2021-05-14T20:00:00Z,2021-05-12T12:00:00Z,Quito_Guamani,-0.3308,-78.5514,707.5949,287.0102,607.4905,1.3982,-1.9715,44.5713,34.8759,3.6770,20.6824,7.2737,17.8676,9.2199,
2021-05-14T21:00:00Z,2021-05-12T12:00:00Z,Quito_Guamani,-0.3308,-78.5514,707.5807,286.4341,741.0049,1.1594,-1.8291,40.8000,24.6781,5.5985,22.6703,8.4460,19.7972,12.5094,
2021-05-14T22:00:00Z,2021-05-12T12:00:00Z,Quito_Guamani,-0.3308,-78.5514,707.8461,285.8739,796.3181,0.8541,-1.5517,35.4037,22.2722,9.2098,26.8048,10.1495,21.5795,23.1334,
2021-05-14T23:00:00Z,2021-05-12T12:00:00Z,Quito_Guamani,-0.3308,-78.5514,708.3464,285.4359,805.8548,0.6525,-1.1329,28.0613,13.7158,14.9445,34.6083,12.9435,21.7981,22.3771,
2021-05-15T00:00:00Z,2021-05-12T12:00:00Z,Quito_Guamani,-0.3308,-78.5514,709.0383,285.2107,695.2286,0.6680,-0.6893,23.4745,11.8817,18.4734,33.2505,15.6454,23.8262,14.8067,
2021-05-15T01:00:00Z,2021-05-12T12:00:00Z,Quito_Guamani,-0.3308,-78.5514,709.7299,285.0242,556.9458,0.6858,-0.2669,18.7432,9.9414,22.0920,31.7116,18.7872,24.5023,13.4645,
2021-05-15T02:00:00Z,2021-05-12T12:00:00Z,Quito_Guamani,-0.3308,-78.5514,710.2591,284.7849,415.3252,0.5989,0.0823,13.7235,8.6882,25.9421,26.5365,22.7233,24.8959,13.2762,
2021-05-15T03:00:00Z,2021-05-12T12:00:00Z,Quito_Guamani,-0.3308,-78.5514,710.4072,284.5151,227.2129,0.4868,0.0960,9.5966,7.7206,29.3492,23.2020,26.9708,22.5811,11.9549,
2021-05-15T04:00:00Z,2021-05-12T12:00:00Z,Quito_Guamani,-0.3308,-78.5514,710.2997,284.0812,141.3822,0.3318,-0.0105,5.2040,13.6406,33.6572,19.9085,33.3749,18.3828,10.9073,
2021-05-15T05:00:00Z,2021-05-12T12:00:00Z,Quito_Guamani,-0.3308,-78.5514,709.8745,283.7248,118.7325,0.2153,0.0399,3.6783,13.8718,36.5396,19.6883,40.3735,17.8813,10.0492,
2021-05-15T06:00:00Z,2021-05-12T12:00:00Z,Quito_Guamani,-0.3308,-78.5514,709.4198,283.4848,104.6658,0.0948,0.0812,3.3795,13.5751,38.4409,19.3235,48.9981,15.0468,9.9326,
2021-05-15T07:00:00Z,2021-05-12T12:00:00Z,Quito_Guamani,-0.3308,-78.5514,708.9844,283.2852,117.3019,0.0677,0.0361,3.2904,13.4870,39.6533,19.4461,57.7487,18.9045,9.5378,
2021-05-15T08:00:00Z,2021-05-12T12:00:00Z,Quito_Guamani,-0.3308,-78.5514,708.6070,283.0946,92.1488,-0.0275,-0.0175,3.5432,13.7412,39.3365,19.0325,64.4380,16.1216,9.1165,
2021-05-15T09:00:00Z,2021-05-12T12:00:00Z,Quito_Guamani,-0.3308,-78.5514,708.5079,282.8704,34.9283,-0.2322,-0.0246,7.5435,9.9997,33.3127,19.4000,61.8156,22.1418,7.5742,
2021-05-15T10:00:00Z,2021-05-12T12:00:00Z,Quito_Guamani,-0.3308,-78.5514,708.6931,282.6911,10.7437,-0.5554,0.1049,9.3930,6.3547,30.6783,24.1825,63.8803,19.2123,7.0148,
2021-05-15T11:00:00Z,2021-05-12T12:00:00Z,Quito_Guamani,-0.3308,-78.5514,708.9265,282.5748,1.5907,-0.9044,0.4325,12.7512,9.9143,26.4595,27.3313,66.5675,26.6886,7.2343,
2021-05-15T12:00:00Z,2021-05-12T12:00:00Z,Quito_Guamani,-0.3308,-78.5514,709.3895,284.1678,0.2421,-1.2523,0.3803,23.9917,16.6961,13.7068,18.9420,38.8799,15.0171,5.3646,
2021-05-15T13:00:00Z,2021-05-12T12:00:00Z,Quito_Guamani,-0.3308,-78.5514,709.9061,286.7531,1.4715,-0.6419,-0.4923,32.9854,28.9122,5.7701,14.4934,15.1923,15.8204,2.6614,
2021-05-15T14:00:00Z,2021-05-12T12:00:00Z,Quito_Guamani,-0.3308,-78.5514,710.1005,288.4382,11.9954,-0.0003,-1.1641,37.4350,29.3923,3.3199,12.5663,8.6773,17.0224,1.7832,
2021-05-15T15:00:00Z,2021-05-12T12:00:00Z,Quito_Guamani,-0.3308,-78.5514,709.9875,289.3230,28.0142,0.2681,-1.5568,42.3030,37.9565,2.2448,11.4615,7.1633,16.1793,1.5910,
2021-05-15T16:00:00Z,2021-05-12T12:00:00Z,Quito_Guamani,-0.3308,-78.5514,709.6032,289.8329,42.7961,0.5170,-1.9105,46.1547,42.6849,1.6360,10.9021,6.4215,16.1860,1.6243,
2021-05-15T17:00:00Z,2021-05-12T12:00:00Z,Quito_Guamani,-0.3308,-78.5514,709.0254,290.0118,72.4792,1.0296,-2.2673,47.9782,44.2470,1.3876,13.6014,6.2564,16.7910,1.9188,
2021-05-15T18:00:00Z,2021-05-12T12:00:00Z,Quito_Guamani,-0.3308,-78.5514,708.5497,289.2137,180.4829,1.6332,-2.5088,49.2309,43.3407,1.4546,13.6890,6.5616,17.0962,3.0619,
2021-05-15T19:00:00Z,2021-05-12T12:00:00Z,Quito_Guamani,-0.3308,-78.5514,708.1779,287.9275,368.5951,1.9734,-2.4590,49.3422,43.5074,2.3044,16.3005,7.6800,19.0440,5.3839,
2021-05-15T20:00:00Z,2021-05-12T12:00:00Z,Quito_Guamani,-0.3308,-78.5514,707.7852,287.1469,490.1886,1.8485,-2.2590,47.7924,38.0805,3.5075,20.5871,8.8354,20.1994,8.0450,
2021-05-15T21:00:00Z,2021-05-12T12:00:00Z,Quito_Guamani,-0.3308,-78.5514,707.6714,286.6114,537.8723,1.5214,-2.0016,44.5551,33.0337,5.1485,23.0747,9.5347,21.8096,13.0645,
2021-05-15T22:00:00Z,2021-05-12T12:00:00Z,Quito_Guamani,-0.3308,-78.5514,707.8766,286.0538,467.7773,1.1637,-1.6976,39.2082,28.3123,8.4274,28.8972,10.9149,23.2686,18.3322,
2021-05-15T23:00:00Z,2021-05-12T12:00:00Z,Quito_Guamani,-0.3308,-78.5514,708.3179,285.5353,368.1183,0.8586,-1.2790,30.5928,14.1318,15.1783,36.7000,15.5776,29.3497,12.7321,
2021-05-16T00:00:00Z,2021-05-12T12:00:00Z,Quito_Guamani,-0.3308,-78.5514,708.8895,285.3086,305.1758,0.6941,-1.0798,22.2091,12.3123,22.0838,33.2706,22.7333,31.2019,9.2137,
2021-05-16T01:00:00Z,2021-05-12T12:00:00Z,Quito_Guamani,-0.3308,-78.5514,709.4135,285.1108,237.7033,0.4815,-0.8961,14.4441,10.4542,28.6460,30.3411,30.2026,24.6063,7.2914,
2021-05-16T02:00:00Z,2021-05-12T12:00:00Z,Quito_Guamani,-0.3308,-78.5514,709.6862,284.9469,171.6614,0.1769,-0.6761,8.5262,10.0550,33.8467,26.6553,38.4516,23.8851,6.6373,
2021-05-16T03:00:00Z,2021-05-12T12:00:00Z,Quito_Guamani,-0.3308,-78.5514,709.7238,284.7298,111.8183,-0.0307,-0.3582,4.8895,14.2695,37.4063,23.3627,46.8880,18.2451,7.2438,
2021-05-16T04:00:00Z,2021-05-12T12:00:00Z,Quito_Guamani,-0.3308,-78.5514,709.6413,284.4654,73.7906,-0.0149,-0.2036,3.7200,16.0315,39.0032,18.7756,53.4506,15.4039,7.4208,
2021-05-16T05:00:00Z,2021-05-12T12:00:00Z,Quito_Guamani,-0.3308,-78.5514,709.3987,284.1437,52.0945,-0.1194,-0.1868,3.0517,15.7896,39.7978,18.3152,58.7641,17.7106,7.5127,
2021-05-16T06:00:00Z,2021-05-12T12:00:00Z,Quito_Guamani,-0.3308,-78.5514,709.1047,283.8668,36.9549,-0.3666,-0.1405,4.3020,16.2977,37.0448,16.0007,60.1405,22.9036,7.1826,
2021-05-16T07:00:00Z,2021-05-12T12:00:00Z,Quito_Guamani,-0.3308,-78.5514,708.8228,283.5775,21.8749,-0.5793,0.1795,5.2444,17.2476,35.2165,17.9774,63.7665,18.0710,7.2374,
2021-05-16T08:00:00Z,2021-05-12T12:00:00Z,Quito_Guamani,-0.3308,-78.5514,708.6044,283.2347,5.1558,-0.8100,0.4008,6.5260,20.3252,32.3075,16.2974,64.3278,14.5332,7.3798,
2021-05-16T09:00:00Z,2021-05-12T12:00:00Z,Quito_Guamani,-0.3308,-78.5514,708.6363,282.9331,1.5497,-0.9464,0.4875,6.4701,16.1765,28.8348,20.0669,57.3893,28.8704,7.3965,
2021-05-16T10:00:00Z,2021-05-12T12:00:00Z,Quito_Guamani,-0.3308,-78.5514,708.7947,282.5272,1.1642,-1.0618,0.6336,6.5658,13.4245,27.2669,22.5836,59.2644,23.8516,7.9502,
2021-05-16T11:00:00Z,2021-05-12T12:00:00Z,Quito_Guamani,-0.3308,-78.5514,709.1566,282.3732,1.9930,-1.1037,0.6710,9.0531,11.8236,23.6563,22.5297,60.9478,19.0370,8.3716,
2021-05-16T12:00:00Z,2021-05-12T12:00:00Z,Quito_Guamani,-0.3308,-78.5514,709.7371,283.8412,3.6918,-1.3466,0.4081,18.8030,15.7050,13.3066,20.0756,41.7591,20.4901,6.0952,
2021-05-16T13:00:00Z,2021-05-12T12:00:00Z,Quito_Guamani,-0.3308,-78.5514,710.1387,286.3401,1.7527,-0.9725,-0.6781,28.5854,25.6750,5.7104,15.1920,16.0256,17.9694,2.7363,
2021-05-16T14:00:00Z,2021-05-12T12:00:00Z,Quito_Guamani,-0.3308,-78.5514,710.0331,288.6235,2.1867,-0.3130,-1.3838,34.6788,28.8060,3.3967,12.2410,9.3212,17.8204,1.7172,
2021-05-16T15:00:00Z,2021-05-12T12:00:00Z,Quito_Guamani,-0.3308,-78.5514,709.6508,289.9626,11.6080,0.3335,-1.7248,40.9560,42.4817,2.3004,11.1864,7.1536,16.9397,1.3872,
2021-05-16T16:00:00Z,2021-05-12T12:00:00Z,Quito_Guamani,-0.3308,-78.5514,709.0316,290.2037,39.6967,0.8207,-1.8156,45.9765,43.8489,1.6965,10.9433,6.6077,17.1423,1.4675,
2021-05-16T17:00:00Z,2021-05-12T12:00:00Z,Quito_Guamani,-0.3308,-78.5514,708.3664,289.6395,128.7460,0.9430,-1.8005,47.8309,42.9145,1.4817,10.7377,6.4752,17.0098,1.9430,
2021-05-16T18:00:00Z,2021-05-12T12:00:00Z,Quito_Guamani,-0.3308,-78.5514,707.7930,288.8125,333.3092,0.9174,-1.7370,46.4467,42.2891,1.5735,10.8486,6.1436,15.9080,2.9076,
2021-05-16T19:00:00Z,2021-05-12T12:00:00Z,Quito_Guamani,-0.3308,-78.5514,707.3963,288.0708,567.4362,0.9216,-1.6576,44.0646,39.0537,2.0462,13.0234,6.1031,16.5863,4.5329,
2021-05-16T20:00:00Z,2021-05-12T12:00:00Z,Quito_Guamani,-0.3308,-78.5514,707.3002,287.3413,816.3452,0.9217,-1.5401,40.9032,30.6212,3.0271,17.4546,6.4334,17.0273,6.1573,
2021-05-16T21:00:00Z,2021-05-12T12:00:00Z,Quito_Guamani,-0.3308,-78.5514,707.5383,286.7192,1066.2079,0.6320,-1.3141,37.2327,21.5495,4.2963,20.9045,6.9274,18.2786,8.4314,
2021-05-16T22:00:00Z,2021-05-12T12:00:00Z,Quito_Guamani,-0.3308,-78.5514,708.0234,286.1804,1094.8181,0.3036,-0.9802,32.2571,15.7636,6.7821,23.9633,7.8938,19.9398,13.0746,
2021-05-16T23:00:00Z,2021-05-12T12:00:00Z,Quito_Guamani,-0.3308,-78.5514,708.6838,285.7026,852.5848,0.1399,-0.5554,24.9227,12.1727,12.2217,29.0691,10.4716,21.9015,10.7055,
2021-05-17T00:00:00Z,2021-05-12T12:00:00Z,Quito_Guamani,-0.3308,-78.5514,709.2241,285.4878,646.5912,0.0976,-0.3103,17.1760,6.7931,18.0803,32.8910,14.2694,20.0373,6.8205,
2021-05-17T01:00:00Z,2021-05-12T12:00:00Z,Quito_Guamani,-0.3308,-78.5514,709.6314,285.3285,611.3052,-0.0737,-0.3074,11.0736,5.7761,22.5860,31.3023,18.9104,25.3342,5.3593,
2021-05-17T02:00:00Z,2021-05-12T12:00:00Z,Quito_Guamani,-0.3308,-78.5514,709.8699,285.1263,582.6950,-0.1871,-0.2732,5.9295,7.2458,26.8589,25.8855,25.1928,21.1716,4.8789,
2021-05-17T03:00:00Z,2021-05-12T12:00:00Z,Quito_Guamani,-0.3308,-78.5514,709.8397,284.8499,531.1966,-0.2850,-0.2469,4.3440,8.9325,29.2111,19.4110,30.6933,17.9380,4.9428,
2021-05-17T04:00:00Z,2021-05-12T12:00:00Z,Quito_Guamani,-0.3308,-78.5514,709.6824,284.5411,410.0800,-0.4167,-0.2002,3.8033,9.8788,30.2001,17.9158,34.3182,17.4397,4.9728,
2021-05-17T05:00:00Z,2021-05-12T12:00:00Z,Quito_Guamani,-0.3308,-78.5514,709.2455,284.1749,221.4909,-0.5046,-0.0935,3.2605,11.9559,31.0242,15.7002,37.8179,16.9099,5.2101,
2021-05-17T06:00:00Z,2021-05-12T12:00:00Z,Quito_Guamani,-0.3308,-78.5514,708.7383,283.7834,85.7115,-0.5199,-0.0606,2.7642,14.3466,31.8088,13.2184,42.1933,15.5375,5.9177,
2021-05-17T07:00:00Z,2021-05-12T12:00:00Z,Quito_Guamani,-0.3308,-78.5514,708.3389,283.3459,26.0770,-0.6552,-0.0255,2.4887,14.0824,32.2827,15.2203,46.7559,16.1510,6.4610,
2021-05-17T08:00:00Z,2021-05-12T12:00:00Z,Quito_Guamani,-0.3308,-78.5514,708.1016,282.9414,5.7071,-0.8985,0.0968,2.4756,14.0820,32.2375,14.3164,49.4425,14.3896,6.9355,
2021-05-17T09:00:00Z,2021-05-12T12:00:00Z,Quito_Guamani,-0.3308,-78.5514,708.1669,282.6936,0.9798,-1.0952,0.2587,2.8095,11.6792,31.5830,15.0276,49.5064,13.7737,7.3914,
2021-05-17T10:00:00Z,2021-05-12T12:00:00Z,Quito_Guamani,-0.3308,-78.5514,708.4175,282.5602,0.4726,-1.2728,0.5273,3.5336,8.1082,30.3173,25.6665,47.1955,19.3766,7.3558,
2021-05-17T11:00:00Z,2021-05-12T12:00:00Z,Quito_Guamani,-0.3308,-78.5514,708.7512,282.6345,0.2733,-1.3333,0.6990,7.5210,5.7139,25.7205,23.2226,43.3850,24.6768,7.0056,
2021-05-12T12:00:00Z,2021-05-12T12:00:00Z,Quito_Tumbaco,-0.2100,-78.4000,708.9741,283.8204,0.1201,-2.3590,0.9805,31.5617,6.1543,11.4028,11.3593,13.9841,14.6823,3.1018,
2021-05-12T13:00:00Z,2021-05-12T12:00:00Z,Quito_Tumbaco,-0.2100,-78.4000,709.0759,285.7407,0.4964,-3.0445,1.1364,37.3580,10.9822,3.8359,14.0937,4.8299,17.3022,1.5338,
2021-05-12T14:00:00Z,2021-05-12T12:00:00Z,Quito_Tumbaco,-0.2100,-78.4000,709.1236,287.4953,1.1679,-3.2324,1.0115,38.9146,20.7363,2.1422,10.1722,2.8794,14.6591,1.0499,
2021-05-12T15:00:00Z,2021-05-12T12:00:00Z,Quito_Tumbaco,-0.2100,-78.4000,709.0923,288.9521,1.6857,-3.1327,0.7342,40.0361,37.9538,1.4867,8.0005,2.3968,14.1764,0.9348,
2021-05-12T16:00:00Z,2021-05-12T12:00:00Z,Quito_Tumbaco,-0.2100,-78.4000,708.9109,289.9386,3.2224,-2.6245,0.1960,40.5469,36.9721,1.2475,5.0466,2.3769,12.7109,1.0077,
2021-05-12T17:00:00Z,2021-05-12T12:00:00Z,Quito_Tumbaco,-0.2100,-78.4000,708.6160,290.5020,11.9507,-1.8387,-0.3711,40.9433,37.9059,1.2114,3.5132,2.6261,8.7080,1.1964,
2021-05-12T18:00:00Z,2021-05-12T12:00:00Z,Quito_Tumbaco,-0.2100,-78.4000,708.2672,290.6724,38.9814,-1.2370,-0.6783,41.3495,37.6823,1.2825,4.3344,3.0182,9.7373,1.8341,
2021-05-12T19:00:00Z,2021-05-12T12:00:00Z,Quito_Tumbaco,-0.2100,-78.4000,708.0283,290.4139,78.5589,-0.9206,-1.0859,40.8808,40.5099,1.5408,4.5944,3.4238,11.5646,2.6790,
2021-05-12T20:00:00Z,2021-05-12T12:00:00Z,Quito_Tumbaco,-0.2100,-78.4000,708.0339,289.6020,120.4014,-0.7139,-1.5096,39.0240,37.0060,2.1627,5.7492,3.8487,11.9895,2.7469,
2021-05-12T21:00:00Z,2021-05-12T12:00:00Z,Quito_Tumbaco,-0.2100,-78.4000,708.2961,288.5097,169.2772,-0.5667,-1.6800,35.9276,34.3369,3.1328,6.7342,4.1432,11.8655,3.0427,
2021-05-12T22:00:00Z,2021-05-12T12:00:00Z,Quito_Tumbaco,-0.2100,-78.4000,708.6986,287.3608,207.4242,-0.6004,-1.5196,31.4093,25.0094,5.2219,7.6823,4.8071,13.2178,2.7911,
2021-05-12T23:00:00Z,2021-05-12T12:00:00Z,Quito_Tumbaco,-0.2100,-78.4000,709.0613,286.2717,208.1394,-0.7906,-1.0919,25.5522,21.3266,8.9834,10.2442,6.0606,14.0906,3.0034,
2021-05-13T00:00:00Z,2021-05-12T12:00:00Z,Quito_Tumbaco,-0.2100,-78.4000,709.3633,285.5704,208.8547,-0.9561,-0.8511,18.5099,16.6149,14.4589,11.9052,8.4993,15.2190,3.5380,
2021-05-13T01:00:00Z,2021-05-12T12:00:00Z,Quito_Tumbaco,-0.2100,-78.4000,709.7592,285.0736,197.8874,-0.8853,-0.6672,14.8713,20.5831,17.1381,10.7425,10.2678,12.8177,3.8361,
2021-05-13T02:00:00Z,2021-05-12T12:00:00Z,Quito_Tumbaco,-0.2100,-78.4000,710.0110,284.6367,161.4094,-0.8039,-0.4554,9.7339,19.0971,21.5284,9.9237,13.5974,11.6106,4.3630,
2021-05-13T03:00:00Z,2021-05-12T12:00:00Z,Quito_Tumbaco,-0.2100,-78.4000,709.9680,284.1889,76.6516,-0.7111,-0.2008,3.7830,17.1933,27.5546,9.2967,19.2376,11.5359,6.0456,
2021-05-13T04:00:00Z,2021-05-12T12:00:00Z,Quito_Tumbaco,-0.2100,-78.4000,709.7526,283.6485,31.4116,-0.7169,0.0637,2.5094,20.6590,30.9831,10.7908,26.7054,8.9756,6.8288,
2021-05-13T05:00:00Z,2021-05-12T12:00:00Z,Quito_Tumbaco,-0.2100,-78.4000,709.3171,283.1770,6.8396,-0.8553,0.2391,2.6357,20.8044,32.9113,11.4193,32.8296,10.1240,7.1621,
2021-05-13T06:00:00Z,2021-05-12T12:00:00Z,Quito_Tumbaco,-0.2100,-78.4000,708.8280,282.6402,2.2352,-1.0252,0.4300,3.1710,21.3616,33.9202,10.9013,37.4544,9.8931,7.8309,
2021-05-13T07:00:00Z,2021-05-12T12:00:00Z,Quito_Tumbaco,-0.2100,-78.4000,708.5321,282.1898,1.0300,-1.2083,0.6572,4.2561,15.8190,33.2728,10.7971,40.5784,12.6899,8.1361,
2021-05-13T08:00:00Z,2021-05-12T12:00:00Z,Quito_Tumbaco,-0.2100,-78.4000,708.3459,281.7654,0.3506,-1.3377,0.8289,5.7235,12.9508,31.4522,9.0719,41.0765,14.6264,7.8457,
2021-05-13T09:00:00Z,2021-05-12T12:00:00Z,Quito_Tumbaco,-0.2100,-78.4000,708.2977,281.4741,0.1700,-1.4780,0.8701,7.2088,8.5695,29.3351,10.3026,39.9525,21.8252,7.5990,
2021-05-13T10:00:00Z,2021-05-12T12:00:00Z,Quito_Tumbaco,-0.2100,-78.4000,708.3494,281.1875,0.1276,-1.5761,0.9124,8.4017,6.7779,27.7447,8.9951,38.3259,21.5395,7.2859,
2021-05-13T11:00:00Z,2021-05-12T12:00:00Z,Quito_Tumbaco,-0.2100,-78.4000,708.4624,281.3209,0.0912,-1.5055,0.9959,12.4611,3.5916,23.8837,12.4877,36.3224,24.4022,6.7757,
2021-05-13T12:00:00Z,2021-05-12T12:00:00Z,Quito_Tumbaco,-0.2100,-78.4000,708.7473,283.4063,0.0476,-1.8371,1.1079,22.6478,4.2772,12.7648,10.7640,25.2254,16.8691,4.8689,
2021-05-13T13:00:00Z,2021-05-12T12:00:00Z,Quito_Tumbaco,-0.2100,-78.4000,709.0882,285.9896,0.0329,-2.2875,0.8186,31.8272,13.2516,4.6111,10.0534,7.8778,15.8949,2.1369,
2021-05-13T14:00:00Z,2021-05-12T12:00:00Z,Quito_Tumbaco,-0.2100,-78.4000,709.2321,288.1973,0.5523,-2.5143,0.3055,35.9727,24.5110,2.4790,10.1933,3.8174,14.5312,1.2695,
2021-05-13T15:00:00Z,2021-05-12T12:00:00Z,Quito_Tumbaco,-0.2100,-78.4000,709.1912,289.7911,1.6429,-2.3801,-0.0969,39.0211,31.3823,1.6402,8.9239,2.7716,13.4854,1.0001,
2021-05-13T16:00:00Z,2021-05-12T12:00:00Z,Quito_Tumbaco,-0.2100,-78.4000,708.8593,290.7862,7.6443,-2.1738,-0.2574,40.6716,37.2580,1.3125,5.5182,2.5865,11.4532,0.9707,
2021-05-13T17:00:00Z,2021-05-12T12:00:00Z,Quito_Tumbaco,-0.2100,-78.4000,708.4691,291.4583,16.4509,-1.7173,-0.5779,41.2906,37.3413,1.2072,3.9177,2.6235,8.9510,1.0518,
2021-05-13T18:00:00Z,2021-05-12T12:00:00Z,Quito_Tumbaco,-0.2100,-78.4000,708.2607,291.5031,32.7229,-1.0036,-0.9982,42.3743,34.8955,1.2372,6.4139,2.9505,8.5075,1.5705,
2021-05-13T19:00:00Z,2021-05-12T12:00:00Z,Quito_Tumbaco,-0.2100,-78.4000,707.8076,291.0751,51.1408,-0.6858,-1.1945,43.0632,36.6513,1.4658,4.9659,3.4007,10.7193,2.2177,
2021-05-13T20:00:00Z,2021-05-12T12:00:00Z,Quito_Tumbaco,-0.2100,-78.4000,707.6130,289.8763,97.7516,-0.4545,-1.6028,41.8759,37.1600,1.9211,5.9582,3.7169,10.9599,2.2928,
2021-05-13T21:00:00Z,2021-05-12T12:00:00Z,Quito_Tumbaco,-0.2100,-78.4000,707.7733,288.4843,130.8918,-0.3263,-1.8045,38.7073,34.1270,3.0221,7.0796,4.1408,12.4115,2.1884,
2021-05-13T22:00:00Z,2021-05-12T12:00:00Z,Quito_Tumbaco,-0.2100,-78.4000,708.0712,287.2856,114.2025,-0.3483,-1.5696,34.2057,26.9484,4.9062,7.8255,4.6896,13.6487,2.4706,
2021-05-13T23:00:00Z,2021-05-12T12:00:00Z,Quito_Tumbaco,-0.2100,-78.4000,708.3517,286.3715,91.5527,-0.4472,-1.0577,29.2582,19.9949,7.7466,10.2142,5.6311,14.5902,2.8817,
2021-05-14T00:00:00Z,2021-05-12T12:00:00Z,Quito_Tumbaco,-0.2100,-78.4000,708.8313,285.7001,90.4799,-0.6816,-0.7042,22.5937,17.9232,12.7037,10.2324,7.9344,14.7825,3.5590,
2021-05-14T01:00:00Z,2021-05-12T12:00:00Z,Quito_Tumbaco,-0.2100,-78.4000,709.3022,285.0193,69.6182,-0.9174,-0.1371,15.3036,19.1085,19.3943,9.4216,11.9378,11.8130,4.3972,
2021-05-14T02:00:00Z,2021-05-12T12:00:00Z,Quito_Tumbaco,-0.2100,-78.4000,709.5815,284.5865,37.6105,-1.0316,0.2113,14.9978,16.4286,18.9296,8.6471,11.9077,11.2096,5.2414,
2021-05-14T03:00:00Z,2021-05-12T12:00:00Z,Quito_Tumbaco,-0.2100,-78.4000,709.8614,284.1620,22.9776,-0.9993,0.3192,9.0870,16.5232,24.8179,10.1916,16.9082,11.5751,6.1679,
2021-05-14T04:00:00Z,2021-05-12T12:00:00Z,Quito_Tumbaco,-0.2100,-78.4000,709.9086,283.6679,15.3482,-0.9580,0.4339,6.8644,17.0958,28.4088,10.9918,22.7835,12.5350,6.9173,
2021-05-14T05:00:00Z,2021-05-12T12:00:00Z,Quito_Tumbaco,-0.2100,-78.4000,709.5918,283.1707,10.2073,-0.9660,0.5450,5.9576,16.2024,30.5038,10.8986,27.9722,11.7544,7.4418,
2021-05-14T06:00:00Z,2021-05-12T12:00:00Z,Quito_Tumbaco,-0.2100,-78.4000,709.3051,282.6354,6.8769,-1.0556,0.5611,5.7662,16.0263,31.3574,11.7230,32.5676,12.5090,7.9211,
2021-05-14T07:00:00Z,2021-05-12T12:00:00Z,Quito_Tumbaco,-0.2100,-78.4000,708.9920,282.1111,4.3958,-1.1643,0.7413,6.3234,16.3706,30.9972,11.3349,36.3175,13.7290,8.1246,
2021-05-14T08:00:00Z,2021-05-12T12:00:00Z,Quito_Tumbaco,-0.2100,-78.4000,708.6455,281.6045,2.6859,-1.2354,0.9516,7.5154,13.9425,29.6196,11.2106,38.3795,10.9892,7.9217,
2021-05-14T09:00:00Z,2021-05-12T12:00:00Z,Quito_Tumbaco,-0.2100,-78.4000,708.6313,281.2872,1.5460,-1.2575,0.9400,8.6773,11.0185,28.1515,10.4771,39.3167,12.8090,7.7315,
2021-05-14T10:00:00Z,2021-05-12T12:00:00Z,Quito_Tumbaco,-0.2100,-78.4000,708.7914,281.0602,0.8652,-1.3304,1.0283,9.4277,8.1657,27.0436,9.6550,39.1930,14.6595,7.3593,
2021-05-14T11:00:00Z,2021-05-12T12:00:00Z,Quito_Tumbaco,-0.2100,-78.4000,708.9189,281.1688,0.3693,-1.3672,1.0441,13.0901,5.2708,23.1813,11.3806,37.7586,16.4629,6.8436,
2021-05-14T12:00:00Z,2021-05-12T12:00:00Z,Quito_Tumbaco,-0.2100,-78.4000,709.1828,283.2705,0.0209,-1.6645,1.0824,21.7051,4.4848,13.2423,8.9991,29.1377,18.8553,5.2662,
2021-05-14T13:00:00Z,2021-05-12T12:00:00Z,Quito_Tumbaco,-0.2100,-78.4000,709.5305,286.2577,0.0204,-1.5979,0.4425,30.0265,10.5843,5.0187,12.1755,9.3279,17.8452,2.1480,
2021-05-14T14:00:00Z,2021-05-12T12:00:00Z,Quito_Tumbaco,-0.2100,-78.4000,709.6697,288.5871,1.0151,-1.0989,-0.1764,34.9547,26.7967,2.9747,10.2616,5.1949,17.0158,1.3664,
2021-05-14T15:00:00Z,2021-05-12T12:00:00Z,Quito_Tumbaco,-0.2100,-78.4000,709.5826,290.0437,13.1428,-0.4591,-0.7505,39.8719,40.3366,2.1740,9.4234,4.4510,16.6505,1.1690,
2021-05-14T16:00:00Z,2021-05-12T12:00:00Z,Quito_Tumbaco,-0.2100,-78.4000,709.2480,290.6081,39.4583,0.0457,-1.2641,44.6143,42.8339,1.7291,7.7852,4.6758,14.9502,1.2455,
2021-05-14T17:00:00Z,2021-05-12T12:00:00Z,Quito_Tumbaco,-0.2100,-78.4000,708.8018,290.2584,98.4669,0.5406,-1.6616,47.1018,43.3864,1.5236,5.9432,5.0413,13.0697,1.7885,
2021-05-14T18:00:00Z,2021-05-12T12:00:00Z,Quito_Tumbaco,-0.2100,-78.4000,708.3506,289.2679,242.9485,1.0757,-2.0170,47.8090,42.8480,1.6388,5.5406,5.4620,12.7197,3.5777,
2021-05-14T19:00:00Z,2021-05-12T12:00:00Z,Quito_Tumbaco,-0.2100,-78.4000,707.9113,288.0129,450.1343,1.3702,-2.0688,46.9138,44.6365,2.3103,6.2267,6.1802,13.4232,6.2512,
2021-05-14T20:00:00Z,2021-05-12T12:00:00Z,Quito_Tumbaco,-0.2100,-78.4000,707.5949,287.0102,607.4905,1.3982,-1.9715,44.5713,38.0962,3.6770,5.6930,7.2737,14.9260,9.2199,
2021-05-14T21:00:00Z,2021-05-12T12:00:00Z,Quito_Tumbaco,-0.2100,-78.4000,707.5807,286.4341,741.0049,1.1594,-1.8291,40.8000,35.2315,5.5985,9.4063,8.4460,14.5174,12.5094,
2021-05-14T22:00:00Z,2021-05-12T12:00:00Z,Quito_Tumbaco,-0.2100,-78.4000,707.8461,285.8739,796.3181,0.8541,-1.5517,35.4037,29.8301,9.2098,14.3770,10.1495,14.5692,23.1334,
2021-05-14T23:00:00Z,2021-05-12T12:00:00Z,Quito_Tumbaco,-0.2100,-78.4000,708.3464,285.4359,805.8548,0.6525,-1.1329,28.0613,28.0065,14.9445,15.3460,12.9435,12.4921,22.3771,
2021-05-15T00:00:00Z,2021-05-12T12:00:00Z,Quito_Tumbaco,-0.2100,-78.4000,709.0383,285.2107,695.2286,0.6680,-0.6893,23.4745,21.6885,18.4734,13.9283,15.6454,14.3341,14.8067,
2021-05-15T01:00:00Z,2021-05-12T12:00:00Z,Quito_Tumbaco,-0.2100,-78.4000,709.7299,285.0242,556.9458,0.6858,-0.2669,18.7432,20.5407,22.0920,9.8736,18.7872,12.2622,13.4645,
2021-05-15T02:00:00Z,2021-05-12T12:00:00Z,Quito_Tumbaco,-0.2100,-78.4000,710.2591,284.7849,415.3252,0.5989,0.0823,13.7235,22.3406,25.9421,9.5262,22.7233,12.8788,13.2762,
2021-05-15T03:00:00Z,2021-05-12T12:00:00Z,Quito_Tumbaco,-0.2100,-78.4000,710.4072,284.5151,227.2129,0.4868,0.0960,9.5966,24.0425,29.3492,10.5239,26.9708,11.4990,11.9549,
2021-05-15T04:00:00Z,2021-05-12T12:00:00Z,Quito_Tumbaco,-0.2100,-78.4000,710.2997,284.0812,141.3822,0.3318,-0.0105,5.2040,22.9520,33.6572,12.0810,33.3749,9.0653,10.9073,
2021-05-15T05:00:00Z,2021-05-12T12:00:00Z,Quito_Tumbaco,-0.2100,-78.4000,709.8745,283.7248,118.7325,0.2153,0.0399,3.6783,19.8016,36.5396,10.1429,40.3735,10.1170,10.0492,
2021-05-15T06:00:00Z,2021-05-12T12:00:00Z,Quito_Tumbaco,-0.2100,-78.4000,709.4198,283.4848,104.6658,0.0948,0.0812,3.3795,18.3226,38.4409,12.0388,48.9981,11.4289,9.9326,
2021-05-15T07:00:00Z,2021-05-12T12:00:00Z,Quito_Tumbaco,-0.2100,-78.4000,708.9844,283.2852,117.3019,0.0677,0.0361,3.2904,18.0084,39.6533,9.1140,57.7487,11.5638,9.5378,
2021-05-15T08:00:00Z,2021-05-12T12:00:00Z,Quito_Tumbaco,-0.2100,-78.4000,708.6070,283.0946,92.1488,-0.0275,-0.0175,3.5432,17.1794,39.3365,9.6538,64.4380,11.8968,9.1165,
2021-05-15T09:00:00Z,2021-05-12T12:00:00Z,Quito_Tumbaco,-0.2100,-78.4000,708.5079,282.8704,34.9283,-0.2322,-0.0246,7.5435,13.1247,33.3127,8.7931,61.8156,11.4174,7.5742,
2021-05-15T10:00:00Z,2021-05-12T12:00:00Z,Quito_Tumbaco,-0.2100,-78.4000,708.6931,282.6911,10.7437,-0.5554,0.1049,9.3930,9.8502,30.6783,12.0124,63.8803,10.8753,7.0148,
2021-05-15T11:00:00Z,2021-05-12T12:00:00Z,Quito_Tumbaco,-0.2100,-78.4000,708.9265,282.5748,1.5907,-0.9044,0.4325,12.7512,7.9984,26.4595,10.0938,66.5675,17.0579,7.2343,
2021-05-15T12:00:00Z,2021-05-12T12:00:00Z,Quito_Tumbaco,-0.2100,-78.4000,709.3895,284.1678,0.2421,-1.2523,0.3803,23.9917,15.5776,13.7068,8.7368,38.8799,18.9122,5.3646,
2021-05-15T13:00:00Z,2021-05-12T12:00:00Z,Quito_Tumbaco,-0.2100,-78.4000,709.9061,286.7531,1.4715,-0.6419,-0.4923,32.9854,18.7445,5.7701,8.8482,15.1923,16.1381,2.6614,
2021-05-15T14:00:00Z,2021-05-12T12:00:00Z,Quito_Tumbaco,-0.2100,-78.4000,710.1005,288.4382,11.9954,-0.0003,-1.1641,37.4350,20.8498,3.3199,10.9623,8.6773,16.2530,1.7832,
2021-05-15T15:00:00Z,2021-05-12T12:00:00Z,Quito_Tumbaco,-0.2100,-78.4000,709.9875,289.3230,28.0142,0.2681,-1.5568,42.3030,44.3218,2.2448,9.4419,7.1633,17.4140,1.5910,
2021-05-15T16:00:00Z,2021-05-12T12:00:00Z,Quito_Tumbaco,-0.2100,-78.4000,709.6032,289.8329,42.7961,0.5170,-1.9105,46.1547,47.3287,1.6360,7.1815,6.4215,15.9331,1.6243,
2021-05-15T17:00:00Z,2021-05-12T12:00:00Z,Quito_Tumbaco,-0.2100,-78.4000,709.0254,290.0118,72.4792,1.0296,-2.2673,47.9782,49.9863,1.3876,5.2832,6.2564,13.8663,1.9188,
2021-05-15T18:00:00Z,2021-05-12T12:00:00Z,Quito_Tumbaco,-0.2100,-78.4000,708.5497,289.2137,180.4829,1.6332,-2.5088,49.2309,44.8506,1.4546,5.3583,6.5616,13.4593,3.0619,
2021-05-15T19:00:00Z,2021-05-12T12:00:00Z,Quito_Tumbaco,-0.2100,-78.4000,708.1779,287.9275,368.5951,1.9734,-2.4590,49.3422,51.3781,2.3044,5.6166,7.6800,14.5777,5.3839,
2021-05-15T20:00:00Z,2021-05-12T12:00:00Z,Quito_Tumbaco,-0.2100,-78.4000,707.7852,287.1469,490.1886,1.8485,-2.2590,47.7924,41.8271,3.5075,7.3069,8.8354,16.4822,8.0450,
2021-05-15T21:00:00Z,2021-05-12T12:00:00Z,Quito_Tumbaco,-0.2100,-78.4000,707.6714,286.6114,537.8723,1.5214,-2.0016,44.5551,36.5328,5.1485,8.9544,9.5347,16.8008,13.0645,
2021-05-15T22:00:00Z,2021-05-12T12:00:00Z,Quito_Tumbaco,-0.2100,-78.4000,707.8766,286.0538,467.7773,1.1637,-1.6976,39.2082,28.8624,8.4274,11.9648,10.9149,17.0309,18.3322,
2021-05-15T23:00:00Z,2021-05-12T12:00:00Z,Quito_Tumbaco,-0.2100,-78.4000,708.3179,285.5353,368.1183,0.8586,-1.2790,30.5928,29.2566,15.1783,16.8831,15.5776,18.9257,12.7321,
2021-05-16T00:00:00Z,2021-05-12T12:00:00Z,Quito_Tumbaco,-0.2100,-78.4000,708.8895,285.3086,305.1758,0.6941,-1.0798,22.2091,22.3780,22.0838,14.5269,22.7333,19.7017,9.2137,
2021-05-16T01:00:00Z,2021-05-12T12:00:00Z,Quito_Tumbaco,-0.2100,-78.4000,709.4135,285.1108,237.7033,0.4815,-0.8961,14.4441,19.5888,28.6460,22.1228,30.2026,14.7103,7.2914,
2021-05-16T02:00:00Z,2021-05-12T12:00:00Z,Quito_Tumbaco,-0.2100,-78.4000,709.6862,284.9469,171.6614,0.1769,-0.6761,8.5262,23.0323,33.8467,14.9742,38.4516,10.7164,6.6373,
2021-05-16T03:00:00Z,2021-05-12T12:00:00Z,Quito_Tumbaco,-0.2100,-78.4000,709.7238,284.7298,111.8183,-0.0307,-0.3582,4.8895,18.3401,37.4063,12.7531,46.8880,10.8554,7.2438,
2021-05-16T04:00:00Z,2021-05-12T12:00:00Z,Quito_Tumbaco,-0.2100,-78.4000,709.6413,284.4654,73.7906,-0.0149,-0.2036,3.7200,17.6927,39.0032,10.3470,53.4506,11.9650,7.4208,
2021-05-16T05:00:00Z,2021-05-12T12:00:00Z,Quito_Tumbaco,-0.2100,-78.4000,709.3987,284.1437,52.0945,-0.1194,-0.1868,3.0517,17.0355,39.7978,11.1189,58.7641,11.6529,7.5127,
2021-05-16T06:00:00Z,2021-05-12T12:00:00Z,Quito_Tumbaco,-0.2100,-78.4000,709.1047,283.8668,36.9549,-0.3666,-0.1405,4.3020,15.3838,37.0448,14.5813,60.1405,12.7128,7.1826,
2021-05-16T07:00:00Z,2021-05-12T12:00:00Z,Quito_Tumbaco,-0.2100,-78.4000,708.8228,283.5775,21.8749,-0.5793,0.1795,5.2444,14.1758,35.2165,13.6180,63.7665,11.9929,7.2374,
2021-05-16T08:00:00Z,2021-05-12T12:00:00Z,Quito_Tumbaco,-0.2100,-78.4000,708.6044,283.2347,5.1558,-0.8100,0.4008,6.5260,12.4281,32.3075,13.7293,64.3278,12.8028,7.3798,
2021-05-16T09:00:00Z,2021-05-12T12:00:00Z,Quito_Tumbaco,-0.2100,-78.4000,708.6363,282.9331,1.5497,-0.9464,0.4875,6.4701,6.5199,28.8348,13.3009,57.3893,17.9746,7.3965,
2021-05-16T10:00:00Z,2021-05-12T12:00:00Z,Quito_Tumbaco,-0.2100,-78.4000,708.7947,282.5272,1.1642,-1.0618,0.6336,6.5658,6.8579,27.2669,12.3508,59.2644,18.4378,7.9502,
2021-05-16T11:00:00Z,2021-05-12T12:00:00Z,Quito_Tumbaco,-0.2100,-78.4000,709.1566,282.3732,1.9930,-1.1037,0.6710,9.0531,9.0321,23.6563,15.1402,60.9478,18.5900,8.3716,
2021-05-16T12:00:00Z,2021-05-12T12:00:00Z,Quito_Tumbaco,-0.2100,-78.4000,709.7371,283.8412,3.6918,-1.3466,0.4081,18.8030,13.5401,13.3066,9.8924,41.7591,20.1225,6.0952,
2021-05-16T13:00:00Z,2021-05-12T12:00:00Z,Quito_Tumbaco,-0.2100,-78.4000,710.1387,286.3401,1.7527,-0.9725,-0.6781,28.5854,18.6159,5.7104,6.9538,16.0256,18.4263,2.7363,
2021-05-16T14:00:00Z,2021-05-12T12:00:00Z,Quito_Tumbaco,-0.2100,-78.4000,710.0331,288.6235,2.1867,-0.3130,-1.3838,34.6788,26.0274,3.3967,9.7722,9.3212,16.8179,1.7172,
2021-05-16T15:00:00Z,2021-05-12T12:00:00Z,Quito_Tumbaco,-0.2100,-78.4000,709.6508,289.9626,11.6080,0.3335,-1.7248,40.9560,46.1074,2.3004,9.4180,7.1536,17.9513,1.3872,
2021-05-16T16:00:00Z,2021-05-12T12:00:00Z,Quito_Tumbaco,-0.2100,-78.4000,709.0316,290.2037,39.6967,0.8207,-1.8156,45.9765,54.3158,1.6965,7.2304,6.6077,15.4656,1.4675,
2021-05-16T17:00:00Z,2021-05-12T12:00:00Z,Quito_Tumbaco,-0.2100,-78.4000,708.3664,289.6395,128.7460,0.9430,-1.8005,47.8309,52.8105,1.4817,5.3786,6.4752,13.8522,1.9430,
2021-05-16T18:00:00Z,2021-05-12T12:00:00Z,Quito_Tumbaco,-0.2100,-78.4000,707.7930,288.8125,333.3092,0.9174,-1.7370,46.4467,46.9282,1.5735,5.4784,6.1436,13.4620,2.9076,
2021-05-16T19:00:00Z,2021-05-12T12:00:00Z,Quito_Tumbaco,-0.2100,-78.4000,707.3963,288.0708,567.4362,0.9216,-1.6576,44.0646,47.4747,2.0462,6.3800,6.1031,12.5674,4.5329,
2021-05-16T20:00:00Z,2021-05-12T12:00:00Z,Quito_Tumbaco,-0.2100,-78.4000,707.3002,287.3413,816.3452,0.9217,-1.5401,40.9032,38.6664,3.0271,5.4780,6.4334,12.8977,6.1573,
2021-05-16T21:00:00Z,2021-05-12T12:00:00Z,Quito_Tumbaco,-0.2100,-78.4000,707.5383,286.7192,1066.2079,0.6320,-1.3141,37.2327,32.2654,4.2963,6.1595,6.9274,14.1386,8.4314,
2021-05-16T22:00:00Z,2021-05-12T12:00:00Z,Quito_Tumbaco,-0.2100,-78.4000,708.0234,286.1804,1094.8181,0.3036,-0.9802,32.2571,26.8209,6.7821,10.7649,7.8938,14.7243,13.0746,
2021-05-16T23:00:00Z,2021-05-12T12:00:00Z,Quito_Tumbaco,-0.2100,-78.4000,708.6838,285.7026,852.5848,0.1399,-0.5554,24.9227,23.1634,12.2217,11.8290,10.4716,13.7549,10.7055,
2021-05-17T00:00:00Z,2021-05-12T12:00:00Z,Quito_Tumbaco,-0.2100,-78.4000,709.2241,285.4878,646.5912,0.0976,-0.3103,17.1760,20.9288,18.0803,10.4147,14.2694,14.5896,6.8205,
2021-05-17T01:00:00Z,2021-05-12T12:00:00Z,Quito_Tumbaco,-0.2100,-78.4000,709.6314,285.3285,611.3052,-0.0737,-0.3074,11.0736,22.4219,22.5860,8.3354,18.9104,14.0521,5.3593,
2021-05-17T02:00:00Z,2021-05-12T12:00:00Z,Quito_Tumbaco,-0.2100,-78.4000,709.8699,285.1263,582.6950,-0.1871,-0.2732,5.9295,20.5710,26.8589,9.4669,25.1928,12.9239,4.8789,
2021-05-17T03:00:00Z,2021-05-12T12:00:00Z,Quito_Tumbaco,-0.2100,-78.4000,709.8397,284.8499,531.1966,-0.2850,-0.2469,4.3440,19.6121,29.2111,10.3624,30.6933,8.0227,4.9428,
2021-05-17T04:00:00Z,2021-05-12T12:00:00Z,Quito_Tumbaco,-0.2100,-78.4000,709.6824,284.5411,410.0800,-0.4167,-0.2002,3.8033,16.9801,30.2001,13.5117,34.3182,8.2364,4.9728,
2021-05-17T05:00:00Z,2021-05-12T12:00:00Z,Quito_Tumbaco,-0.2100,-78.4000,709.2455,284.1749,221.4909,-0.5046,-0.0935,3.2605,17.6521,31.0242,12.4729,37.8179,10.1054,5.2101,
2021-05-17T06:00:00Z,2021-05-12T12:00:00Z,Quito_Tumbaco,-0.2100,-78.4000,708.7383,283.7834,85.7115,-0.5199,-0.0606,2.7642,17.6773,31.8088,10.3803,42.1933,9.4123,5.9177,
2021-05-17T07:00:00Z,2021-05-12T12:00:00Z,Quito_Tumbaco,-0.2100,-78.4000,708.3389,283.3459,26.0770,-0.6552,-0.0255,2.4887,16.7133,32.2827,8.9020,46.7559,9.1037,6.4610,
2021-05-17T08:00:00Z,2021-05-12T12:00:00Z,Quito_Tumbaco,-0.2100,-78.4000,708.1016,282.9414,5.7071,-0.8985,0.0968,2.4756,14.9216,32.2375,10.7645,49.4425,11.9588,6.9355,
2021-05-17T09:00:00Z,2021-05-12T12:00:00Z,Quito_Tumbaco,-0.2100,-78.4000,708.1669,282.6936,0.9798,-1.0952,0.2587,2.8095,14.5236,31.5830,10.0892,49.5064,12.0227,7.3914,
2021-05-17T10:00:00Z,2021-05-12T12:00:00Z,Quito_Tumbaco,-0.2100,-78.4000,708.4175,282.5602,0.4726,-1.2728,0.5273,3.5336,5.9697,30.3173,12.5589,47.1955,13.1582,7.3558,
2021-05-17T11:00:00Z,2021-05-12T12:00:00Z,Quito_Tumbaco,-0.2100,-78.4000,708.7512,282.6345,0.2733,-1.3333,0.6990,7.5210,7.0802,25.7205,11.7505,43.3850,13.4794,7.0056,
2021-05-12T12:00:00Z,2021-05-12T12:00:00Z,Quito_LosChillos,-0.3000,-78.4600,708.9741,283.8204,0.1201,-2.3590,0.9805,31.5617,4.2677,11.4028,23.7777,13.9841,17.1311,3.1018,
2021-05-12T13:00:00Z,2021-05-12T12:00:00Z,Quito_LosChillos,-0.3000,-78.4600,709.0759,285.7407,0.4964,-3.0445,1.1364,37.3580,7.2438,3.8359,24.3898,4.8299,8.3539,1.5338,
2021-05-12T14:00:00Z,2021-05-12T12:00:00Z,Quito_LosChillos,-0.3000,-78.4600,709.1236,287.4953,1.1679,-3.2324,1.0115,38.9146,17.3625,2.1422,19.5467,2.8794,10.2304,1.0499,
2021-05-12T15:00:00Z,2021-05-12T12:00:00Z,Quito_LosChillos,-0.3000,-78.4600,709.0923,288.9521,1.6857,-3.1327,0.7342,40.0361,38.1584,1.4867,14.5765,2.3968,14.5508,0.9348,
2021-05-12T16:00:00Z,2021-05-12T12:00:00Z,Quito_LosChillos,-0.3000,-78.4600,708.9109,289.9386,3.2224,-2.6245,0.1960,40.5469,37.8429,1.2475,11.2120,2.3769,11.0177,1.0077,
2021-05-12T17:00:00Z,2021-05-12T12:00:00Z,Quito_LosChillos,-0.3000,-78.4600,708.6160,290.5020,11.9507,-1.8387,-0.3711,40.9433,33.6131,1.2114,9.8345,2.6261,12.0876,1.1964,
2021-05-12T18:00:00Z,2021-05-12T12:00:00Z,Quito_LosChillos,-0.3000,-78.4600,708.2672,290.6724,38.9814,-1.2370,-0.6783,41.3495,34.0579,1.2825,9.3062,3.0182,11.2592,1.8341,
2021-05-12T19:00:00Z,2021-05-12T12:00:00Z,Quito_LosChillos,-0.3000,-78.4600,708.0283,290.4139,78.5589,-0.9206,-1.0859,40.8808,37.9656,1.5408,9.0972,3.4238,10.3791,2.6790,
2021-05-12T20:00:00Z,2021-05-12T12:00:00Z,Quito_LosChillos,-0.3000,-78.4600,708.0339,289.6020,120.4014,-0.7139,-1.5096,39.0240,43.5092,2.1627,12.9714,3.8487,16.0470,2.7469,
2021-05-12T21:00:00Z,2021-05-12T12:00:00Z,Quito_LosChillos,-0.3000,-78.4600,708.2961,288.5097,169.2772,-0.5667,-1.6800,35.9276,27.1962,3.1328,13.4887,4.1432,10.4339,3.0427,
2021-05-12T22:00:00Z,2021-05-12T12:00:00Z,Quito_LosChillos,-0.3000,-78.4600,708.6986,287.3608,207.4242,-0.6004,-1.5196,31.4093,21.7309,5.2219,16.0661,4.8071,9.4895,2.7911,
2021-05-12T23:00:00Z,2021-05-12T12:00:00Z,Quito_LosChillos,-0.3000,-78.4600,709.0613,286.2717,208.1394,-0.7906,-1.0919,25.5522,18.1361,8.9834,19.0984,6.0606,14.3219,3.0034,
2021-05-13T00:00:00Z,2021-05-12T12:00:00Z,Quito_LosChillos,-0.3000,-78.4600,709.3633,285.5704,208.8547,-0.9561,-0.8511,18.5099,17.2970,14.4589,19.1298,8.4993,14.4202,3.5380,
2021-05-13T01:00:00Z,2021-05-12T12:00:00Z,Quito_LosChillos,-0.3000,-78.4600,709.7592,285.0736,197.8874,-0.8853,-0.6672,14.8713,14.5533,17.1381,20.4907,10.2678,13.1497,3.8361,
2021-05-13T02:00:00Z,2021-05-12T12:00:00Z,Quito_LosChillos,-0.3000,-78.4600,710.0110,284.6367,161.4094,-0.8039,-0.4554,9.7339,13.0582,21.5284,20.4670,13.5974,13.9238,4.3630,
2021-05-13T03:00:00Z,2021-05-12T12:00:00Z,Quito_LosChillos,-0.3000,-78.4600,709.9680,284.1889,76.6516,-0.7111,-0.2008,3.7830,16.0469,27.5546,17.9314,19.2376,11.4362,6.0456,
2021-05-13T04:00:00Z,2021-05-12T12:00:00Z,Quito_LosChillos,-0.3000,-78.4600,709.7526,283.6485,31.4116,-0.7169,0.0637,2.5094,14.7828,30.9831,14.4481,26.7054,7.5941,6.8288,
2021-05-13T05:00:00Z,2021-05-12T12:00:00Z,Quito_LosChillos,-0.3000,-78.4600,709.3171,283.1770,6.8396,-0.8553,0.2391,2.6357,16.5595,32.9113,14.1100,32.8296,7.6130,7.1621,
2021-05-13T06:00:00Z,2021-05-12T12:00:00Z,Quito_LosChillos,-0.3000,-78.4600,708.8280,282.6402,2.2352,-1.0252,0.4300,3.1710,16.6827,33.9202,14.1027,37.4544,7.9968,7.8309,
2021-05-13T07:00:00Z,2021-05-12T12:00:00Z,Quito_LosChillos,-0.3000,-78.4600,708.5321,282.1898,1.0300,-1.2083,0.6572,4.2561,15.6296,33.2728,14.1825,40.5784,9.6712,8.1361,
2021-05-13T08:00:00Z,2021-05-12T12:00:00Z,Quito_LosChillos,-0.3000,-78.4600,708.3459,281.7654,0.3506,-1.3377,0.8289,5.7235,11.9788,31.4522,12.3381,41.0765,10.9883,7.8457,
2021-05-13T09:00:00Z,2021-05-12T12:00:00Z,Quito_LosChillos,-0.3000,-78.4600,708.2977,281.4741,0.1700,-1.4780,0.8701,7.2088,9.1320,29.3351,11.6014,39.9525,10.5783,7.5990,
2021-05-13T10:00:00Z,2021-05-12T12:00:00Z,Quito_LosChillos,-0.3000,-78.4600,708.3494,281.1875,0.1276,-1.5761,0.9124,8.4017,3.8351,27.7447,13.0470,38.3259,14.2575,7.2859,
2021-05-13T11:00:00Z,2021-05-12T12:00:00Z,Quito_LosChillos,-0.3000,-78.4600,708.4624,281.3209,0.0912,-1.5055,0.9959,12.4611,4.6489,23.8837,13.9410,36.3224,12.9632,6.7757,
2021-05-13T12:00:00Z,2021-05-12T12:00:00Z,Quito_LosChillos,-0.3000,-78.4600,708.7473,283.4063,0.0476,-1.8371,1.1079,22.6478,3.1549,12.7648,17.0628,25.2254,16.8331,4.8689,
2021-05-13T13:00:00Z,2021-05-12T12:00:00Z,Quito_LosChillos,-0.3000,-78.4600,709.0882,285.9896,0.0329,-2.2875,0.8186,31.8272,7.6790,4.6111,20.0638,7.8778,16.3558,2.1369,
2021-05-13T14:00:00Z,2021-05-12T12:00:00Z,Quito_LosChillos,-0.3000,-78.4600,709.2321,288.1973,0.5523,-2.5143,0.3055,35.9727,20.5797,2.4790,17.8782,3.8174,13.4326,1.2695,
2021-05-13T15:00:00Z,2021-05-12T12:00:00Z,Quito_LosChillos,-0.3000,-78.4600,709.1912,289.7911,1.6429,-2.3801,-0.0969,39.0211,33.8792,1.6402,15.0838,2.7716,10.1107,1.0001,
2021-05-13T16:00:00Z,2021-05-12T12:00:00Z,Quito_LosChillos,-0.3000,-78.4600,708.8593,290.7862,7.6443,-2.1738,-0.2574,40.6716,39.3056,1.3125,10.3597,2.5865,12.6457,0.9707,
2021-05-13T17:00:00Z,2021-05-12T12:00:00Z,Quito_LosChillos,-0.3000,-78.4600,708.4691,291.4583,16.4509,-1.7173,-0.5779,41.2906,35.6765,1.2072,8.2467,2.6235,9.8291,1.0518,
2021-05-13T18:00:00Z,2021-05-12T12:00:00Z,Quito_LosChillos,-0.3000,-78.4600,708.2607,291.5031,32.7229,-1.0036,-0.9982,42.3743,35.1111,1.2372,8.7705,2.9505,11.7030,1.5705,
2021-05-13T19:00:00Z,2021-05-12T12:00:00Z,Quito_LosChillos,-0.3000,-78.4600,707.8076,291.0751,51.1408,-0.6858,-1.1945,43.0632,39.5391,1.4658,9.0837,3.4007,14.6467,2.2177,
2021-05-13T20:00:00Z,2021-05-12T12:00:00Z,Quito_LosChillos,-0.3000,-78.4600,707.6130,289.8763,97.7516,-0.4545,-1.6028,41.8759,46.7965,1.9211,10.9600,3.7169,13.3523,2.2928,
2021-05-13T21:00:00Z,2021-05-12T12:00:00Z,Quito_LosChillos,-0.3000,-78.4600,707.7733,288.4843,130.8918,-0.3263,-1.8045,38.7073,34.6485,3.0221,14.3168,4.1408,13.2926,2.1884,
2021-05-13T22:00:00Z,2021-05-12T12:00:00Z,Quito_LosChillos,-0.3000,-78.4600,708.0712,287.2856,114.2025,-0.3483,-1.5696,34.2057,23.7109,4.9062,15.2384,4.6896,12.8833,2.4706,
2021-05-13T23:00:00Z,2021-05-12T12:00:00Z,Quito_LosChillos,-0.3000,-78.4600,708.3517,286.3715,91.5527,-0.4472,-1.0577,29.2582,20.1300,7.7466,18.3445,5.6311,9.0244,2.8817,
2021-05-14T00:00:00Z,2021-05-12T12:00:00Z,Quito_LosChillos,-0.3000,-78.4600,708.8313,285.7001,90.4799,-0.6816,-0.7042,22.5937,18.8756,12.7037,26.0544,7.9344,14.7886,3.5590,
2021-05-14T01:00:00Z,2021-05-12T12:00:00Z,Quito_LosChillos,-0.3000,-78.4600,709.3022,285.0193,69.6182,-0.9174,-0.1371,15.3036,16.6343,19.3943,22.4549,11.9378,13.5340,4.3972,
2021-05-14T02:00:00Z,2021-05-12T12:00:00Z,Quito_LosChillos,-0.3000,-78.4600,709.5815,284.5865,37.6105,-1.0316,0.2113,14.9978,13.5389,18.9296,22.1407,11.9077,14.3369,5.2414,
2021-05-14T03:00:00Z,2021-05-12T12:00:00Z,Quito_LosChillos,-0.3000,-78.4600,709.8614,284.1620,22.9776,-0.9993,0.3192,9.0870,13.5949,24.8179,17.6308,16.9082,11.6805,6.1679,
2021-05-14T04:00:00Z,2021-05-12T12:00:00Z,Quito_LosChillos,-0.3000,-78.4600,709.9086,283.6679,15.3482,-0.9580,0.4339,6.8644,11.4781,28.4088,17.8938,22.7835,11.5644,6.9173,
2021-05-14T05:00:00Z,2021-05-12T12:00:00Z,Quito_LosChillos,-0.3000,-78.4600,709.5918,283.1707,10.2073,-0.9660,0.5450,5.9576,10.2613,30.5038,12.3058,27.9722,11.0551,7.4418,
2021-05-14T06:00:00Z,2021-05-12T12:00:00Z,Quito_LosChillos,-0.3000,-78.4600,709.3051,282.6354,6.8769,-1.0556,0.5611,5.7662,10.3842,31.3574,13.7781,32.5676,9.5048,7.9211,
2021-05-14T07:00:00Z,2021-05-12T12:00:00Z,Quito_LosChillos,-0.3000,-78.4600,708.9920,282.1111,4.3958,-1.1643,0.7413,6.3234,10.7345,30.9972,12.9759,36.3175,8.8830,8.1246,
2021-05-14T08:00:00Z,2021-05-12T12:00:00Z,Quito_LosChillos,-0.3000,-78.4600,708.6455,281.6045,2.6859,-1.2354,0.9516,7.5154,10.3125,29.6196,13.0984,38.3795,11.6734,7.9217,
2021-05-14T09:00:00Z,2021-05-12T12:00:00Z,Quito_LosChillos,-0.3000,-78.4600,708.6313,281.2872,1.5460,-1.2575,0.9400,8.6773,9.8504,28.1515,14.0358,39.3167,12.6106,7.7315,
2021-05-14T10:00:00Z,2021-05-12T12:00:00Z,Quito_LosChillos,-0.3000,-78.4600,708.7914,281.0602,0.8652,-1.3304,1.0283,9.4277,7.0951,27.0436,15.0512,39.1930,15.2823,7.3593,
2021-05-14T11:00:00Z,2021-05-12T12:00:00Z,Quito_LosChillos,-0.3000,-78.4600,708.9189,281.1688,0.3693,-1.3672,1.0441,13.0901,4.4829,23.1813,15.8078,37.7586,15.1285,6.8436,
2021-05-14T12:00:00Z,2021-05-12T12:00:00Z,Quito_LosChillos,-0.3000,-78.4600,709.1828,283.2705,0.0209,-1.6645,1.0824,21.7051,4.0523,13.2423,18.6914,29.1377,22.5027,5.2662,
2021-05-14T13:00:00Z,2021-05-12T12:00:00Z,Quito_LosChillos,-0.3000,-78.4600,709.5305,286.2577,0.0204,-1.5979,0.4425,30.0265,8.3167,5.0187,21.8087,9.3279,17.0810,2.1480,
2021-05-14T14:00:00Z,2021-05-12T12:00:00Z,Quito_LosChillos,-0.3000,-78.4600,709.6697,288.5871,1.0151,-1.0989,-0.1764,34.9547,24.7085,2.9747,21.5177,5.1949,15.5797,1.3664,
2021-05-14T15:00:00Z,2021-05-12T12:00:00Z,Quito_LosChillos,-0.3000,-78.4600,709.5826,290.0437,13.1428,-0.4591,-0.7505,39.8719,33.9144,2.1740,22.2702,4.4510,16.1776,1.1690,
2021-05-14T16:00:00Z,2021-05-12T12:00:00Z,Quito_LosChillos,-0.3000,-78.4600,709.2480,290.6081,39.4583,0.0457,-1.2641,44.6143,49.6974,1.7291,17.3864,4.6758,15.0410,1.2455,
2021-05-14T17:00:00Z,2021-05-12T12:00:00Z,Quito_LosChillos,-0.3000,-78.4600,708.8018,290.2584,98.4669,0.5406,-1.6616,47.1018,52.0049,1.5236,12.5899,5.0413,18.2449,1.7885,
2021-05-14T18:00:00Z,2021-05-12T12:00:00Z,Quito_LosChillos,-0.3000,-78.4600,708.3506,289.2679,242.9485,1.0757,-2.0170,47.8090,50.1511,1.6388,16.0545,5.4620,17.8521,3.5777,
2021-05-14T19:00:00Z,2021-05-12T12:00:00Z,Quito_LosChillos,-0.3000,-78.4600,707.9113,288.0129,450.1343,1.3702,-2.0688,46.9138,46.5410,2.3103,14.5785,6.1802,16.7377,6.2512,
2021-05-14T20:00:00Z,2021-05-12T12:00:00Z,Quito_LosChillos,-0.3000,-78.4600,707.5949,287.0102,607.4905,1.3982,-1.9715,44.5713,43.0461,3.6770,20.0567,7.2737,14.2357,9.2199,
2021-05-14T21:00:00Z,2021-05-12T12:00:00Z,Quito_LosChillos,-0.3000,-78.4600,707.5807,286.4341,741.0049,1.1594,-1.8291,40.8000,38.3537,5.5985,20.5592,8.4460,15.0342,12.5094,
2021-05-14T22:00:00Z,2021-05-12T12:00:00Z,Quito_LosChillos,-0.3000,-78.4600,707.8461,285.8739,796.3181,0.8541,-1.5517,35.4037,29.3844,9.2098,27.7257,10.1495,15.2074,23.1334,
2021-05-14T23:00:00Z,2021-05-12T12:00:00Z,Quito_LosChillos,-0.3000,-78.4600,708.3464,285.4359,805.8548,0.6525,-1.1329,28.0613,20.6555,14.9445,29.4216,12.9435,17.1494,22.3771,
2021-05-15T00:00:00Z,2021-05-12T12:00:00Z,Quito_LosChillos,-0.3000,-78.4600,709.0383,285.2107,695.2286,0.6680,-0.6893,23.4745,20.9730,18.4734,21.8884,15.6454,16.0104,14.8067,
2021-05-15T01:00:00Z,2021-05-12T12:00:00Z,Quito_LosChillos,-0.3000,-78.4600,709.7299,285.0242,556.9458,0.6858,-0.2669,18.7432,19.1292,22.0920,20.5939,18.7872,10.6819,13.4645,
2021-05-15T02:00:00Z,2021-05-12T12:00:00Z,Quito_LosChillos,-0.3000,-78.4600,710.2591,284.7849,415.3252,0.5989,0.0823,13.7235,16.3817,25.9421,18.8944,22.7233,9.5728,13.2762,
2021-05-15T03:00:00Z,2021-05-12T12:00:00Z,Quito_LosChillos,-0.3000,-78.4600,710.4072,284.5151,227.2129,0.4868,0.0960,9.5966,14.2047,29.3492,21.5003,26.9708,8.0749,11.9549,
2021-05-15T04:00:00Z,2021-05-12T12:00:00Z,Quito_LosChillos,-0.3000,-78.4600,710.2997,284.0812,141.3822,0.3318,-0.0105,5.2040,14.9214,33.6572,18.8801,33.3749,6.0001,10.9073,
2021-05-15T05:00:00Z,2021-05-12T12:00:00Z,Quito_LosChillos,-0.3000,-78.4600,709.8745,283.7248,118.7325,0.2153,0.0399,3.6783,20.4799,36.5396,18.1802,40.3735,7.4176,10.0492,
2021-05-15T06:00:00Z,2021-05-12T12:00:00Z,Quito_LosChillos,-0.3000,-78.4600,709.4198,283.4848,104.6658,0.0948,0.0812,3.3795,22.0912,38.4409,13.9830,48.9981,9.5760,9.9326,
2021-05-15T07:00:00Z,2021-05-12T12:00:00Z,Quito_LosChillos,-0.3000,-78.4600,708.9844,283.2852,117.3019,0.0677,0.0361,3.2904,20.9212,39.6533,12.6875,57.7487,11.1197,9.5378,
2021-05-15T08:00:00Z,2021-05-12T12:00:00Z,Quito_LosChillos,-0.3000,-78.4600,708.6070,283.0946,92.1488,-0.0275,-0.0175,3.5432,15.9922,39.3365,8.3444,64.4380,6.2955,9.1165,
2021-05-15T09:00:00Z,2021-05-12T12:00:00Z,Quito_LosChillos,-0.3000,-78.4600,708.5079,282.8704,34.9283,-0.2322,-0.0246,7.5435,11.1292,33.3127,12.7409,61.8156,6.8736,7.5742,
2021-05-15T10:00:00Z,2021-05-12T12:00:00Z,Quito_LosChillos,-0.3000,-78.4600,708.6931,282.6911,10.7437,-0.5554,0.1049,9.3930,10.2778,30.6783,13.3061,63.8803,7.0445,7.0148,
2021-05-15T11:00:00Z,2021-05-12T12:00:00Z,Quito_LosChillos,-0.3000,-78.4600,708.9265,282.5748,1.5907,-0.9044,0.4325,12.7512,7.3287,26.4595,17.3829,66.5675,13.6277,7.2343,
2021-05-15T12:00:00Z,2021-05-12T12:00:00Z,Quito_LosChillos,-0.3000,-78.4600,709.3895,284.1678,0.2421,-1.2523,0.3803,23.9917,4.6206,13.7068,19.2717,38.8799,11.7434,5.3646,
2021-05-15T13:00:00Z,2021-05-12T12:00:00Z,Quito_LosChillos,-0.3000,-78.4600,709.9061,286.7531,1.4715,-0.6419,-0.4923,32.9854,24.2201,5.7701,11.8033,15.1923,11.7617,2.6614,
2021-05-15T14:00:00Z,2021-05-12T12:00:00Z,Quito_LosChillos,-0.3000,-78.4600,710.1005,288.4382,11.9954,-0.0003,-1.1641,37.4350,25.2424,3.3199,18.9701,8.6773,14.4506,1.7832,
2021-05-15T15:00:00Z,2021-05-12T12:00:00Z,Quito_LosChillos,-0.3000,-78.4600,709.9875,289.3230,28.0142,0.2681,-1.5568,42.3030,35.7260,2.2448,17.5304,7.1633,19.1491,1.5910,
2021-05-15T16:00:00Z,2021-05-12T12:00:00Z,Quito_LosChillos,-0.3000,-78.4600,709.6032,289.8329,42.7961,0.5170,-1.9105,46.1547,56.0395,1.6360,15.8066,6.4215,17.7142,1.6243,
2021-05-15T17:00:00Z,2021-05-12T12:00:00Z,Quito_LosChillos,-0.3000,-78.4600,709.0254,290.0118,72.4792,1.0296,-2.2673,47.9782,57.1166,1.3876,14.4282,6.2564,17.0608,1.9188,
2021-05-15T18:00:00Z,2021-05-12T12:00:00Z,Quito_LosChillos,-0.3000,-78.4600,708.5497,289.2137,180.4829,1.6332,-2.5088,49.2309,53.6771,1.4546,12.0558,6.5616,17.2328,3.0619,
2021-05-15T19:00:00Z,2021-05-12T12:00:00Z,Quito_LosChillos,-0.3000,-78.4600,708.1779,287.9275,368.5951,1.9734,-2.4590,49.3422,46.7050,2.3044,12.2420,7.6800,17.3524,5.3839,
2021-05-15T20:00:00Z,2021-05-12T12:00:00Z,Quito_LosChillos,-0.3000,-78.4600,707.7852,287.1469,490.1886,1.8485,-2.2590,47.7924,46.1274,3.5075,12.3581,8.8354,17.4053,8.0450,
2021-05-15T21:00:00Z,2021-05-12T12:00:00Z,Quito_LosChillos,-0.3000,-78.4600,707.6714,286.6114,537.8723,1.5214,-2.0016,44.5551,33.7036,5.1485,20.1529,9.5347,15.0704,13.0645,
2021-05-15T22:00:00Z,2021-05-12T12:00:00Z,Quito_LosChillos,-0.3000,-78.4600,707.8766,286.0538,467.7773,1.1637,-1.6976,39.2082,30.4666,8.4274,26.8220,10.9149,20.4483,18.3322,
2021-05-15T23:00:00Z,2021-05-12T12:00:00Z,Quito_LosChillos,-0.3000,-78.4600,708.3179,285.5353,368.1183,0.8586,-1.2790,30.5928,17.5750,15.1783,20.1018,15.5776,17.5302,12.7321,
2021-05-16T00:00:00Z,2021-05-12T12:00:00Z,Quito_LosChillos,-0.3000,-78.4600,708.8895,285.3086,305.1758,0.6941,-1.0798,22.2091,14.5566,22.0838,23.4069,22.7333,17.3170,9.2137,
2021-05-16T01:00:00Z,2021-05-12T12:00:00Z,Quito_LosChillos,-0.3000,-78.4600,709.4135,285.1108,237.7033,0.4815,-0.8961,14.4441,16.7352,28.6460,24.9318,30.2026,11.5505,7.2914,
2021-05-16T02:00:00Z,2021-05-12T12:00:00Z,Quito_LosChillos,-0.3000,-78.4600,709.6862,284.9469,171.6614,0.1769,-0.6761,8.5262,16.4342,33.8467,25.1729,38.4516,9.8900,6.6373,
2021-05-16T03:00:00Z,2021-05-12T12:00:00Z,Quito_LosChillos,-0.3000,-78.4600,709.7238,284.7298,111.8183,-0.0307,-0.3582,4.8895,16.4832,37.4063,16.1844,46.8880,13.9021,7.2438,
2021-05-16T04:00:00Z,2021-05-12T12:00:00Z,Quito_LosChillos,-0.3000,-78.4600,709.6413,284.4654,73.7906,-0.0149,-0.2036,3.7200,20.0045,39.0032,14.3381,53.4506,13.1794,7.4208,
2021-05-16T05:00:00Z,2021-05-12T12:00:00Z,Quito_LosChillos,-0.3000,-78.4600,709.3987,284.1437,52.0945,-0.1194,-0.1868,3.0517,19.4551,39.7978,14.6604,58.7641,9.2258,7.5127,
2021-05-16T06:00:00Z,2021-05-12T12:00:00Z,Quito_LosChillos,-0.3000,-78.4600,709.1047,283.8668,36.9549,-0.3666,-0.1405,4.3020,13.9983,37.0448,16.2727,60.1405,8.9537,7.1826,
2021-05-16T07:00:00Z,2021-05-12T12:00:00Z,Quito_LosChillos,-0.3000,-78.4600,708.8228,283.5775,21.8749,-0.5793,0.1795,5.2444,15.9605,35.2165,15.2031,63.7665,6.9520,7.2374,
2021-05-16T08:00:00Z,2021-05-12T12:00:00Z,Quito_LosChillos,-0.3000,-78.4600,708.6044,283.2347,5.1558,-0.8100,0.4008,6.5260,11.6840,32.3075,16.3718,64.3278,9.5497,7.3798,
2021-05-16T09:00:00Z,2021-05-12T12:00:00Z,Quito_LosChillos,-0.3000,-78.4600,708.6363,282.9331,1.5497,-0.9464,0.4875,6.4701,10.6505,28.8348,16.2038,57.3893,13.0950,7.3965,
2021-05-16T10:00:00Z,2021-05-12T12:00:00Z,Quito_LosChillos,-0.3000,-78.4600,708.7947,282.5272,1.1642,-1.0618,0.6336,6.5658,8.2430,27.2669,16.1029,59.2644,10.7804,7.9502,
2021-05-16T11:00:00Z,2021-05-12T12:00:00Z,Quito_LosChillos,-0.3000,-78.4600,709.1566,282.3732,1.9930,-1.1037,0.6710,9.0531,7.8560,23.6563,16.9537,60.9478,9.3817,8.3716,
2021-05-16T12:00:00Z,2021-05-12T12:00:00Z,Quito_LosChillos,-0.3000,-78.4600,709.7371,283.8412,3.6918,-1.3466,0.4081,18.8030,8.0679,13.3066,25.7387,41.7591,9.8787,6.0952,
2021-05-16T13:00:00Z,2021-05-12T12:00:00Z,Quito_LosChillos,-0.3000,-78.4600,710.1387,286.3401,1.7527,-0.9725,-0.6781,28.5854,21.7442,5.7104,19.3713,16.0256,15.3089,2.7363,
2021-05-16T14:00:00Z,2021-05-12T12:00:00Z,Quito_LosChillos,-0.3000,-78.4600,710.0331,288.6235,2.1867,-0.3130,-1.3838,34.6788,25.5672,3.3967,26.3732,9.3212,15.9317,1.7172,
2021-05-16T15:00:00Z,2021-05-12T12:00:00Z,Quito_LosChillos,-0.3000,-78.4600,709.6508,289.9626,11.6080,0.3335,-1.7248,40.9560,41.4419,2.3004,19.2625,7.1536,17.3876,1.3872,
2021-05-16T16:00:00Z,2021-05-12T12:00:00Z,Quito_LosChillos,-0.3000,-78.4600,709.0316,290.2037,39.6967,0.8207,-1.8156,45.9765,55.9174,1.6965,14.2565,6.6077,17.5588,1.4675,
2021-05-16T17:00:00Z,2021-05-12T12:00:00Z,Quito_LosChillos,-0.3000,-78.4600,708.3664,289.6395,128.7460,0.9430,-1.8005,47.8309,56.1344,1.4817,14.8738,6.4752,16.1801,1.9430,
2021-05-16T18:00:00Z,2021-05-12T12:00:00Z,Quito_LosChillos,-0.3000,-78.4600,707.7930,288.8125,333.3092,0.9174,-1.7370,46.4467,56.2213,1.5735,14.1123,6.1436,16.3642,2.9076,
2021-05-16T19:00:00Z,2021-05-12T12:00:00Z,Quito_LosChillos,-0.3000,-78.4600,707.3963,288.0708,567.4362,0.9216,-1.6576,44.0646,49.0074,2.0462,17.4919,6.1031,13.1775,4.5329,
2021-05-16T20:00:00Z,2021-05-12T12:00:00Z,Quito_LosChillos,-0.3000,-78.4600,707.3002,287.3413,816.3452,0.9217,-1.5401,40.9032,38.6299,3.0271,20.9548,6.4334,12.4391,6.1573,
2021-05-16T21:00:00Z,2021-05-12T12:00:00Z,Quito_LosChillos,-0.3000,-78.4600,707.5383,286.7192,1066.2079,0.6320,-1.3141,37.2327,29.7886,4.2963,18.5698,6.9274,12.1401,8.4314,
2021-05-16T22:00:00Z,2021-05-12T12:00:00Z,Quito_LosChillos,-0.3000,-78.4600,708.0234,286.1804,1094.8181,0.3036,-0.9802,32.2571,24.6139,6.7821,23.1927,7.8938,12.8597,13.0746,
2021-05-16T23:00:00Z,2021-05-12T12:00:00Z,Quito_LosChillos,-0.3000,-78.4600,708.6838,285.7026,852.5848,0.1399,-0.5554,24.9227,19.8987,12.2217,20.4267,10.4716,16.3984,10.7055,
2021-05-17T00:00:00Z,2021-05-12T12:00:00Z,Quito_LosChillos,-0.3000,-78.4600,709.2241,285.4878,646.5912,0.0976,-0.3103,17.1760,16.1232,18.0803,22.0762,14.2694,11.9760,6.8205,
2021-05-17T01:00:00Z,2021-05-12T12:00:00Z,Quito_LosChillos,-0.3000,-78.4600,709.6314,285.3285,611.3052,-0.0737,-0.3074,11.0736,17.9710,22.5860,21.1041,18.9104,9.9059,5.3593,
2021-05-17T02:00:00Z,2021-05-12T12:00:00Z,Quito_LosChillos,-0.3000,-78.4600,709.8699,285.1263,582.6950,-0.1871,-0.2732,5.9295,15.4165,26.8589,20.8659,25.1928,8.9798,4.8789,
2021-05-17T03:00:00Z,2021-05-12T12:00:00Z,Quito_LosChillos,-0.3000,-78.4600,709.8397,284.8499,531.1966,-0.2850,-0.2469,4.3440,17.3296,29.2111,18.3751,30.6933,4.7796,4.9428,
2021-05-17T04:00:00Z,2021-05-12T12:00:00Z,Quito_LosChillos,-0.3000,-78.4600,709.6824,284.5411,410.0800,-0.4167,-0.2002,3.8033,17.6295,30.2001,17.6533,34.3182,4.8888,4.9728,
2021-05-17T05:00:00Z,2021-05-12T12:00:00Z,Quito_LosChillos,-0.3000,-78.4600,709.2455,284.1749,221.4909,-0.5046,-0.0935,3.2605,17.0959,31.0242,15.4376,37.8179,8.8577,5.2101,
2021-05-17T06:00:00Z,2021-05-12T12:00:00Z,Quito_LosChillos,-0.3000,-78.4600,708.7383,283.7834,85.7115,-0.5199,-0.0606,2.7642,14.2632,31.8088,14.2267,42.1933,8.3677,5.9177,
2021-05-17T07:00:00Z,2021-05-12T12:00:00Z,Quito_LosChillos,-0.3000,-78.4600,708.3389,283.3459,26.0770,-0.6552,-0.0255,2.4887,16.5195,32.2827,13.8541,46.7559,8.0981,6.4610,
2021-05-17T08:00:00Z,2021-05-12T12:00:00Z,Quito_LosChillos,-0.3000,-78.4600,708.1016,282.9414,5.7071,-0.8985,0.0968,2.4756,16.2651,32.2375,13.7887,49.4425,11.5963,6.9355,
2021-05-17T09:00:00Z,2021-05-12T12:00:00Z,Quito_LosChillos,-0.3000,-78.4600,708.1669,282.6936,0.9798,-1.0952,0.2587,2.8095,15.2395,31.5830,13.4347,49.5064,13.3623,7.3914,
2021-05-17T10:00:00Z,2021-05-12T12:00:00Z,Quito_LosChillos,-0.3000,-78.4600,708.4175,282.5602,0.4726,-1.2728,0.5273,3.5336,5.9331,30.3173,13.1298,47.1955,13.7023,7.3558,
2021-05-17T11:00:00Z,2021-05-12T12:00:00Z,Quito_LosChillos,-0.3000,-78.4600,708.7512,282.6345,0.2733,-1.3333,0.6990,7.5210,4.4548,25.7205,17.2154,43.3850,12.3691,7.0056,